[[{"header":{"parameterUnit":"m.s-1","parameterCategory":1,"la1":30.6,"la2":29.2853,"lo1":-89.7004,"lo2":-87.6739,"dy":0.0162,"dx":0.0183,"nx":112,"ny":82,"refTime":"2024-07-13T18:00:00:Z","depth":0,"parameterNumber":2,"parameterNumberName":"U-component_of_WINDS"},"data":[0.0,0.0,0.0,0.0,0.0,0.0,0.0,0.0,0.0,0.0,0.0,0.0,0.0,0.0,0.0,0.0,0.0,0.0,0.0,0.0,0.0,0.0,0.0,0.0,0.0,0.0,0.0,0.0,0.0,0.0,0.0,0.0,0.0,0.0,0.0,0.0,0.0,0.0,0.0,0.0,0.0,0.0,0.0,0.0,0.0,0.0,0.0,0.0,0.0,0.0,0.0,0.0,0.0,0.0,0.0,0.0,0.0,0.0,0.0,0.0,0.0,0.0,0.0,0.0,0.0,0.0,0.0,0.0,0.0,0.0,0.0,0.0,0.0,0.0,0.0,0.0,0.0,0.0,0.0,0.0,0.0,0.0,0.0,0.0,0.0,0.0,0.0,0.0,0.0,0.0,0.0,-2.1808,-2.4462,-2.5749,-2.5141,-2.5213,-2.3862,-2.0494,0.0,0.0,0.0,0.0,0.0,0.0,0.0,0.0,0.0,0.0,0.0,0.0,0.0,0.0,0.0,0.0,0.0,0.0,0.0,0.0,0.0,0.0,0.0,0.0,0.0,0.0,0.0,0.0,0.0,0.0,0.0,0.0,0.0,0.0,0.0,0.0,0.0,0.0,0.0,0.0,0.0,0.0,0.0,0.0,0.0,0.0,0.0,0.0,0.0,0.0,0.0,0.0,0.0,0.0,0.0,0.0,0.0,0.0,0.0,0.0,0.0,0.0,0.0,0.0,0.0,0.0,0.0,0.0,0.0,0.0,0.0,0.0,0.0,0.0,0.0,0.0,0.0,0.0,0.0,0.0,0.0,0.0,0.0,0.0,0.0,0.0,0.0,0.0,0.0,0.0,0.0,0.0,0.0,0.0,0.0,0.0,0.0,0.0,0.0,0.0,0.0,0.0,0.0,0.0,-1.9626,-2.4451,-2.5595,-2.6106,-2.6387,-2.4913,-2.3273,-2.1624,0.0,0.0,0.0,0.0,0.0,0.0,0.0,0.0,0.0,0.0,0.0,0.0,0.0,0.0,0.0,0.0,0.0,0.0,0.0,0.0,0.0,0.0,0.0,0.0,0.0,0.0,0.0,0.0,0.0,0.0,0.0,0.0,0.0,0.0,0.0,0.0,0.0,0.0,0.0,0.0,0.0,0.0,0.0,0.0,0.0,0.0,0.0,0.0,0.0,0.0,0.0,0.0,0.0,0.0,0.0,0.0,0.0,0.0,0.0,0.0,0.0,0.0,0.0,0.0,0.0,0.0,0.0,0.0,0.0,0.0,0.0,0.0,0.0,0.0,0.0,0.0,0.0,0.0,0.0,0.0,0.0,0.0,0.0,0.0,0.0,0.0,0.0,0.0,0.0,0.0,0.0,0.0,0.0,0.0,0.0,0.0,0.0,0.0,0.0,0.0,0.0,0.0,0.0,-1.8847,-2.1142,-2.4629,-2.5596,-2.6025,-2.61,-2.4876,-2.319,-2.096,-1.785,0.0,0.0,0.0,0.0,0.0,0.0,0.0,0.0,0.0,0.0,0.0,0.0,0.0,0.0,0.0,0.0,0.0,0.0,0.0,0.0,0.0,0.0,0.0,0.0,0.0,0.0,0.0,0.0,0.0,0.0,0.0,0.0,0.0,0.0,0.0,0.0,0.0,0.0,0.0,0.0,0.0,0.0,0.0,0.0,0.0,0.0,0.0,0.0,0.0,0.0,0.0,0.0,0.0,0.0,0.0,0.0,0.0,0.0,0.0,0.0,0.0,0.0,0.0,0.0,0.0,0.0,0.0,0.0,0.0,0.0,0.0,0.0,0.0,0.0,0.0,0.0,0.0,0.0,0.0,0.0,0.0,0.0,0.0,0.0,0.0,0.0,0.0,0.0,0.0,0.0,0.0,0.0,0.0,0.0,0.0,0.0,0.0,0.0,0.0,0.0,0.0,0.0,-2.1023,-2.2696,-2.4421,-2.5462,-2.5893,-2.5611,-2.4611,-2.2835,-2.017,-1.6915,0.0,0.0,0.0,0.0,0.0,0.0,0.0,0.0,0.0,0.0,0.0,0.0,0.0,0.0,0.0,0.0,0.0,0.0,0.0,0.0,0.0,0.0,0.0,0.0,0.0,0.0,0.0,0.0,0.0,0.0,0.0,0.0,0.0,0.0,0.0,0.0,0.0,0.0,0.0,0.0,0.0,0.0,0.0,0.0,0.0,0.0,0.0,0.0,0.0,0.0,0.0,0.0,0.0,0.0,0.0,0.0,0.0,0.0,0.0,0.0,0.0,0.0,0.0,0.0,0.0,0.0,0.0,0.0,0.0,0.0,0.0,0.0,0.0,0.0,0.0,0.0,0.0,0.0,0.0,0.0,0.0,0.0,0.0,0.0,0.0,0.0,0.0,0.0,0.0,0.0,0.0,0.0,0.0,0.0,0.0,0.0,0.0,0.0,0.0,0.0,0.0,0.0,-2.1419,-2.3918,-2.4862,-2.5587,-2.5893,-2.5611,-2.368,-2.1755,-2.0103,-1.5933,0.0,0.0,0.0,0.0,0.0,0.0,0.0,0.0,0.0,0.0,0.0,0.0,0.0,0.0,0.0,0.0,0.0,0.0,0.0,0.0,0.0,0.0,0.0,0.0,0.0,0.0,0.0,0.0,0.0,0.0,0.0,0.0,0.0,0.0,0.0,0.0,0.0,0.0,0.0,0.0,0.0,0.0,0.0,0.0,0.0,0.0,0.0,0.0,0.0,0.0,0.0,0.0,0.0,0.0,0.0,0.0,0.0,0.0,0.0,0.0,0.0,0.0,0.0,0.0,0.0,0.0,0.0,0.0,0.0,0.0,0.0,0.0,0.0,0.0,0.0,0.0,0.0,0.0,0.0,0.0,0.0,0.0,0.0,0.0,0.0,0.0,0.0,0.0,0.0,0.0,0.0,0.0,0.0,0.0,0.0,0.0,0.0,0.0,0.0,0.0,0.0,0.0,-2.0532,-2.2944,0.0,-2.5477,-2.571,-2.4985,-2.4152,-2.2226,-1.8848,0.0,0.0,0.0,0.0,0.0,0.0,0.0,0.0,0.0,0.0,0.0,0.0,0.0,0.0,0.0,0.0,0.0,0.0,0.0,0.0,0.0,0.0,0.0,0.0,0.0,0.0,0.0,0.0,0.0,0.0,0.0,0.0,0.0,0.0,0.0,0.0,0.0,0.0,0.0,0.0,0.0,0.0,0.0,0.0,0.0,0.0,0.0,0.0,0.0,0.0,0.0,0.0,0.0,0.0,0.0,0.0,0.0,0.0,0.0,0.0,0.0,0.0,0.0,0.0,0.0,0.0,0.0,0.0,0.0,0.0,0.0,0.0,0.0,0.0,0.0,0.0,0.0,0.0,0.0,0.0,0.0,0.0,0.0,0.0,0.0,0.0,0.0,0.0,0.0,0.0,0.0,0.0,0.0,0.0,0.0,0.0,0.0,0.0,0.0,0.0,0.0,0.0,-1.7305,-2.0089,-2.2384,0.0,-2.473,-2.4979,-2.4223,-2.3712,-2.1833,-1.8036,0.0,0.0,0.0,0.0,0.0,0.0,0.0,0.0,0.0,0.0,0.0,0.0,0.0,0.0,0.0,0.0,0.0,0.0,0.0,0.0,0.0,0.0,0.0,0.0,0.0,0.0,0.0,0.0,0.0,0.0,0.0,0.0,0.0,0.0,0.0,0.0,0.0,0.0,0.0,0.0,0.0,0.0,0.0,0.0,0.0,0.0,0.0,0.0,0.0,0.0,0.0,0.0,0.0,0.0,0.0,0.0,0.0,0.0,0.0,0.0,0.0,0.0,0.0,0.0,0.0,0.0,0.0,0.0,0.0,0.0,0.0,0.0,0.0,0.0,0.0,0.0,0.0,0.0,0.0,0.0,0.0,0.0,0.0,0.0,0.0,0.0,0.0,0.0,0.0,0.0,0.0,0.0,0.0,0.0,0.0,0.0,0.0,0.0,0.0,0.0,0.0,0.0,-1.7072,-2.0373,-2.2619,-2.2698,-2.3309,-2.3635,-2.3431,-2.207,-2.0259,0.0,0.0,0.0,0.0,0.0,0.0,0.0,0.0,0.0,0.0,0.0,0.0,0.0,0.0,0.0,0.0,0.0,0.0,0.0,0.0,0.0,0.0,0.0,0.0,0.0,0.0,0.0,0.0,0.0,0.0,0.0,0.0,0.0,0.0,0.0,0.0,0.0,0.0,0.0,0.0,0.0,0.0,0.0,0.0,0.0,0.0,0.0,0.0,0.0,0.0,0.0,0.0,0.0,0.0,0.0,0.0,0.0,0.0,0.0,0.0,0.0,0.0,0.0,0.0,0.0,0.0,0.0,0.0,0.0,0.0,0.0,0.0,0.0,0.0,0.0,0.0,0.0,0.0,0.0,0.0,0.0,0.0,0.0,0.0,0.0,0.0,0.0,0.0,0.0,0.0,0.0,0.0,0.0,0.0,0.0,0.0,0.0,0.0,0.0,0.0,0.0,0.0,0.0,-1.7451,-2.087,-2.3165,-2.3195,-2.385,-2.4031,-2.346,-2.3001,-2.1329,-1.8003,0.0,0.0,0.0,0.0,0.0,0.0,0.0,0.0,0.0,0.0,0.0,0.0,0.0,0.0,0.0,0.0,0.0,0.0,0.0,0.0,0.0,0.0,0.0,0.0,0.0,0.0,0.0,0.0,0.0,0.0,0.0,0.0,0.0,0.0,0.0,0.0,0.0,0.0,0.0,0.0,0.0,0.0,0.0,0.0,0.0,0.0,0.0,0.0,0.0,0.0,0.0,0.0,0.0,0.0,0.0,0.0,0.0,0.0,0.0,0.0,0.0,0.0,0.0,0.0,0.0,0.0,0.0,0.0,0.0,0.0,0.0,0.0,0.0,0.0,0.0,0.0,0.0,0.0,0.0,0.0,0.0,0.0,0.0,0.0,0.0,0.0,0.0,0.0,0.0,0.0,0.0,0.0,0.0,0.0,0.0,0.0,0.0,0.0,0.0,0.0,0.0,0.0,-1.7614,-2.0822,-2.297,-2.297,-2.3359,-2.3427,-2.3004,-2.297,-2.1617,-1.8437,0.0,0.0,0.0,0.0,0.0,0.0,0.0,0.0,0.0,0.0,0.0,0.0,0.0,0.0,0.0,0.0,0.0,0.0,0.0,0.0,0.0,0.0,0.0,0.0,0.0,0.0,0.0,0.0,0.0,0.0,0.0,0.0,0.0,0.0,0.0,0.0,0.0,0.0,0.0,0.0,0.0,0.0,0.0,0.0,0.0,0.0,0.0,0.0,0.0,0.0,0.0,0.0,0.0,0.0,0.0,0.0,0.0,0.0,0.0,0.0,0.0,0.0,0.0,0.0,0.0,0.0,0.0,0.0,0.0,0.0,0.0,0.0,0.0,0.0,0.0,0.0,0.0,0.0,0.0,0.0,0.0,0.0,0.0,0.0,0.0,0.0,0.0,0.0,0.0,0.0,0.0,0.0,0.0,0.0,0.0,0.0,0.0,0.0,0.0,0.0,0.0,0.0,-1.7698,-2.0471,-2.2296,-2.2296,-2.2296,-2.2296,-2.2296,-2.2296,-2.135,-1.9147,0.0,0.0,0.0,0.0,0.0,0.0,0.0,0.0,0.0,0.0,0.0,0.0,0.0,0.0,0.0,0.0,0.0,0.0,0.0,0.0,0.0,0.0,0.0,0.0,0.0,0.0,0.0,0.0,0.0,0.0,0.0,0.0,0.0,0.0,0.0,0.0,0.0,0.0,0.0,0.0,0.0,0.0,0.0,0.0,0.0,0.0,0.0,0.0,0.0,0.0,0.0,0.0,0.0,0.0,0.0,0.0,0.0,0.0,0.0,0.0,-1.7305,0.0,0.0,0.0,0.0,0.0,0.0,0.0,0.0,0.0,0.0,0.0,0.0,0.0,0.0,0.0,0.0,0.0,0.0,0.0,0.0,0.0,0.0,0.0,0.0,0.0,0.0,0.0,0.0,0.0,0.0,0.0,0.0,0.0,0.0,0.0,0.0,0.0,0.0,0.0,0.0,0.0,-1.8403,-2.0792,-2.2296,-2.2296,-2.2296,-2.2296,-2.2296,-2.2296,-2.1569,-1.9879,0.0,0.0,0.0,0.0,0.0,0.0,0.0,0.0,0.0,0.0,0.0,0.0,0.0,0.0,0.0,0.0,0.0,0.0,0.0,0.0,0.0,0.0,0.0,0.0,0.0,0.0,0.0,0.0,0.0,0.0,0.0,0.0,0.0,0.0,0.0,0.0,0.0,0.0,0.0,0.0,0.0,0.0,0.0,0.0,0.0,0.0,0.0,0.0,0.0,0.0,0.0,0.0,0.0,0.0,0.0,0.0,0.0,0.0,0.0,0.0,0.0,-1.9399,0.0,0.0,0.0,0.0,0.0,0.0,0.0,0.0,0.0,0.0,0.0,0.0,0.0,0.0,0.0,0.0,0.0,0.0,0.0,0.0,0.0,0.0,0.0,0.0,0.0,0.0,0.0,0.0,0.0,0.0,0.0,0.0,0.0,0.0,0.0,0.0,0.0,0.0,0.0,0.0,-1.8657,-2.0889,-2.2296,-2.2296,-2.2296,-2.2296,-2.2296,-2.2296,-2.1806,-2.0653,-1.9164,0.0,0.0,0.0,0.0,0.0,0.0,0.0,0.0,0.0,0.0,0.0,0.0,0.0,0.0,0.0,0.0,0.0,0.0,0.0,0.0,0.0,0.0,0.0,0.0,0.0,0.0,0.0,0.0,0.0,0.0,0.0,0.0,0.0,0.0,0.0,0.0,0.0,0.0,0.0,0.0,0.0,0.0,0.0,0.0,0.0,0.0,0.0,0.0,0.0,0.0,0.0,0.0,0.0,-2.5861,-2.66,-2.7477,-2.6603,-2.6522,-2.6945,-2.3991,-2.2784,-2.2753,0.0,0.0,0.0,0.0,0.0,0.0,0.0,0.0,0.0,0.0,0.0,0.0,0.0,0.0,0.0,0.0,0.0,0.0,0.0,0.0,0.0,0.0,0.0,0.0,0.0,-2.3139,-2.2578,0.0,0.0,0.0,0.0,0.0,0.0,0.0,0.0,0.0,0.0,0.0,0.0,-1.908,-2.1059,-2.2296,-2.2296,-2.2296,-2.2296,-2.2296,-2.2296,-2.204,-2.1427,-2.009,-1.8685,0.0,0.0,0.0,0.0,0.0,0.0,0.0,0.0,0.0,0.0,0.0,0.0,0.0,0.0,0.0,0.0,0.0,0.0,0.0,0.0,0.0,0.0,0.0,0.0,0.0,0.0,0.0,0.0,0.0,0.0,0.0,0.0,-1.5417,-1.6321,0.0,0.0,0.0,0.0,0.0,0.0,0.0,0.0,0.0,0.0,0.0,0.0,0.0,-2.4593,-2.5635,-2.6991,-2.7721,-2.7824,-2.8305,-2.8609,-2.876,-2.8621,-2.8604,-2.8671,-2.8199,0.0,-2.5,-2.2871,0.0,0.0,0.0,0.0,0.0,0.0,0.0,0.0,0.0,0.0,0.0,0.0,0.0,0.0,0.0,0.0,0.0,0.0,0.0,0.0,0.0,0.0,-2.4881,-2.4338,-2.4271,-2.4186,0.0,-2.1498,-1.9241,-1.7665,-1.6847,0.0,0.0,0.0,0.0,0.0,0.0,0.0,-2.0615,-2.1718,-2.2296,-2.2296,-2.2296,-2.2296,-2.2296,-2.2296,-2.2245,-2.2175,-2.1363,-2.0513,-1.9596,-1.7523,0.0,0.0,0.0,0.0,0.0,0.0,0.0,0.0,0.0,0.0,0.0,0.0,0.0,0.0,0.0,0.0,0.0,0.0,0.0,0.0,0.0,0.0,0.0,0.0,0.0,0.0,0.0,0.0,0.0,-1.4915,-1.7007,-1.8724,-1.8926,-1.8603,0.0,0.0,0.0,0.0,0.0,0.0,0.0,0.0,0.0,-2.592,-2.6873,-2.7947,-2.9238,-3.0367,-3.0922,-3.0904,-3.1551,-3.1737,-3.1461,-3.1461,-3.1461,-3.1461,-3.1461,-3.0446,-2.8569,-2.6319,-2.4697,-2.3528,0.0,0.0,0.0,0.0,-2.1397,-2.2003,-2.1681,-2.204,0.0,-2.0842,0.0,0.0,0.0,0.0,0.0,0.0,0.0,0.0,0.0,0.0,0.0,-2.571,-2.5743,-2.5743,-2.5743,-2.4374,-2.2702,0.0,-2.0348,-1.9469,-1.8273,0.0,0.0,0.0,0.0,0.0,-2.1634,-2.2462,-2.2919,-2.2919,-2.2547,-2.2296,-2.2296,-2.2296,-2.2296,-2.2296,-2.2006,-2.1465,-2.0703,-1.9316,-1.7676,0.0,0.0,0.0,0.0,0.0,0.0,0.0,0.0,0.0,0.0,0.0,0.0,0.0,0.0,0.0,0.0,0.0,0.0,0.0,0.0,0.0,0.0,0.0,0.0,0.0,0.0,0.0,0.0,-1.6646,-1.8786,-2.0888,-2.1316,-2.1089,0.0,0.0,0.0,0.0,0.0,0.0,-2.4344,-2.5801,-2.7288,-2.8853,-2.9796,-3.082,-3.1898,-3.269,-3.3085,-3.3044,-3.3633,-3.3744,-3.3406,-3.3406,-3.3406,-3.3406,-3.3406,-3.278,-3.1579,-2.9311,-2.7503,-2.6083,-2.5338,-2.4728,-2.4239,-2.4239,-2.4695,-2.532,-2.5134,-2.5541,-2.588,-2.424,0.0,-2.3209,-2.206,0.0,0.0,0.0,0.0,-2.4644,-2.5202,-2.5896,-2.6607,-2.7165,-2.73,-2.7233,-2.7029,-2.6556,-2.5744,0.0,-2.3376,-2.2496,-2.135,0.0,0.0,0.0,0.0,-2.2037,-2.2767,-2.3173,-2.3393,-2.3393,-2.275,-2.2296,-2.2296,-2.2296,-2.2296,-2.2296,-2.2296,-2.2057,-2.1512,-2.0737,-1.935,-1.7298,0.0,0.0,0.0,0.0,0.0,0.0,0.0,0.0,0.0,0.0,0.0,0.0,0.0,0.0,0.0,0.0,0.0,0.0,0.0,0.0,0.0,0.0,0.0,0.0,0.0,0.0,0.0,0.0,0.0,-2.2713,-2.3547,0.0,0.0,0.0,0.0,-2.3836,-2.5322,-2.6908,-2.8508,-2.9341,-3.0325,-3.1563,-3.2339,-3.2921,-3.3303,-3.3347,-3.3376,-3.3376,-3.3431,-3.3427,-3.3406,-3.3406,-3.3406,-3.3406,-3.3406,-3.3372,-3.3136,-3.0903,-2.9075,-2.7621,-2.6877,-2.6573,-2.6522,-2.6522,-2.7012,-2.7536,-2.6826,-2.708,-2.7672,-2.757,-2.7046,-2.6454,-2.6387,-2.5896,0.0,0.0,-2.6438,-2.7587,-2.7621,-2.823,-2.884,-2.8874,-2.8874,-2.8688,-2.7908,-2.7722,-2.7249,0.0,-2.4881,-2.4355,-2.4288,0.0,-2.3359,-2.4101,-2.3695,-2.356,-2.4288,-2.3814,-2.3393,-2.3393,-2.275,-2.2296,-2.2296,-2.2296,-2.2296,-2.2296,-2.2296,-2.2279,-2.2245,-2.1532,-2.0395,-1.8821,-1.6644,0.0,0.0,0.0,0.0,0.0,0.0,0.0,0.0,0.0,0.0,0.0,0.0,0.0,0.0,0.0,0.0,0.0,0.0,0.0,0.0,0.0,0.0,0.0,0.0,0.0,0.0,0.0,0.0,-2.5369,-2.6129,0.0,0.0,-2.5988,-2.6487,-2.7442,-2.7889,-2.8973,-3.0982,-3.1341,-3.2259,-3.4006,-3.3959,-3.437,-3.5311,-3.4984,-3.4822,-3.4822,-3.4822,-3.4822,-3.4822,-3.4822,-3.4822,-3.4822,-3.4822,-3.4556,-3.4049,-3.3254,-3.2324,-3.1272,-3.0074,-2.9583,-2.9482,-2.8536,-2.8653,-2.9159,-2.8433,-2.8653,-2.9193,-2.8721,-2.84,-2.818,-2.818,-2.8011,-2.7791,-2.7791,-2.8163,-2.8569,-2.8569,-2.879,-2.8993,-2.8993,-2.8993,-2.8925,-2.8619,-2.818,-2.7638,-2.7114,-2.6048,-2.5203,-2.5203,-2.4609,-2.4203,-2.4457,-2.4678,-2.4915,-2.5169,-2.4983,-2.4628,-2.4169,-2.3444,-2.2818,-2.233,-2.2296,-2.2296,-2.2296,-2.1854,-2.1583,-2.1583,-2.0839,-1.9959,-1.891,-1.7659,-1.5886,0.0,0.0,0.0,0.0,0.0,0.0,0.0,0.0,0.0,0.0,0.0,0.0,0.0,0.0,0.0,0.0,0.0,0.0,0.0,0.0,0.0,0.0,0.0,0.0,0.0,0.0,-2.5035,-2.7235,-2.8106,-2.8504,-2.8516,-2.8776,-2.9333,-3.0309,-3.0445,-3.1106,-3.2598,-3.2919,-3.3645,-3.4991,-3.5197,-3.5686,-3.6535,-3.6174,-3.6011,-3.6011,-3.5718,-3.56,-3.56,-3.56,-3.56,-3.56,-3.56,-3.5312,-3.4878,-3.4878,-3.459,-3.4015,-3.2527,-3.1782,-3.1464,-3.0465,-3.0279,-3.0395,-2.9905,-3.0057,-3.0395,-2.9907,-2.9738,-2.9704,-2.9467,-2.9551,-2.9687,-2.945,-2.9551,-2.9738,-2.9738,-2.9738,-2.9738,-2.9738,-2.9738,-2.967,-2.9414,-2.8958,-2.85,-2.8264,-2.7012,-2.5981,-2.5981,-2.5574,-2.5235,-2.5235,-2.5659,-2.5981,-2.5981,-2.5761,-2.5423,-2.4915,-2.4,-2.319,-2.2702,-2.2431,-2.2296,-2.2296,-2.1837,-2.1566,-2.1566,-2.0822,-2.0061,-1.9299,-1.8065,-1.6712,-1.524,0.0,0.0,0.0,0.0,0.0,0.0,0.0,0.0,0.0,0.0,0.0,0.0,0.0,0.0,0.0,0.0,0.0,0.0,0.0,0.0,0.0,0.0,0.0,-2.2371,-2.4888,-2.7108,-2.8299,-2.9467,-3.0187,-3.0208,-3.1501,-3.2344,-3.2361,-3.3034,-3.3457,-3.3474,-3.4167,-3.4556,-3.4556,-3.6051,-3.6829,-3.6829,-3.6829,-3.6829,-3.6829,-3.6028,-3.5633,-3.5633,-3.5616,-3.56,-3.56,-3.56,-3.56,-3.56,-3.56,-3.56,-3.5447,-3.4015,-3.3,-3.2361,-3.2344,-3.1887,-3.1258,-3.1241,-3.1224,-3.1224,-3.1207,-3.119,-3.1072,-3.0362,-3.0632,-3.1055,-3.0345,-3.0649,-3.119,-3.119,-3.119,-3.119,-3.119,-3.119,-3.1004,-3.0294,-3.0125,-2.9888,-2.9179,-2.7808,-2.6759,-2.6725,-2.6708,-2.6691,-2.6691,-2.6691,0.0,-2.6691,-2.6082,-2.5642,-2.5592,-2.4323,-2.3444,-2.3393,-2.275,-2.2313,-2.2296,-2.2279,-2.2262,-2.2262,-2.1563,-2.0788,-2.0018,-1.7862,-1.6766,-1.6733,0.0,0.0,0.0,0.0,0.0,0.0,0.0,0.0,0.0,0.0,0.0,0.0,0.0,0.0,0.0,0.0,0.0,0.0,0.0,0.0,0.0,0.0,-2.5323,-2.5781,-2.7302,-2.9074,-3.1034,-3.1525,-3.1899,-3.2442,-3.2856,-3.3322,-3.3846,-3.4066,-3.4438,-3.4957,-3.574,-3.6169,-3.6169,-3.7094,-3.7601,-3.7601,-3.7601,-3.7601,-3.7584,-3.6823,-3.6468,-3.6451,-3.5876,-3.56,-3.56,-3.56,-3.56,-3.56,-3.56,-3.56,-3.5498,-3.4556,-3.4066,-3.3812,-3.3288,-3.2966,-3.2713,-3.2192,-3.2005,-3.1921,-3.136,-3.119,-3.1157,-3.0954,-3.1038,-3.1157,-3.0954,-3.1038,-3.119,-3.119,-3.119,-3.119,-3.119,-3.119,-3.114,-3.0937,-3.048,-3.004,-2.9837,-2.9008,-2.818,-2.7587,-2.7063,-2.6691,-2.6691,-2.6691,0.0,-2.6691,-2.6522,-2.6184,-2.5659,-2.5253,-2.456,-2.3477,-2.3207,-2.2868,-2.233,-2.1803,-2.1512,-2.1512,-2.0754,-2.0234,-2.0002,-1.8877,-1.8031,0.0,0.0,0.0,0.0,0.0,0.0,0.0,0.0,0.0,0.0,0.0,0.0,0.0,0.0,0.0,0.0,0.0,0.0,0.0,0.0,0.0,0.0,-2.6137,-2.7964,-2.8968,-2.9728,-3.0796,-3.2459,-3.299,-3.3477,-3.4089,-3.4262,-3.4506,-3.4928,-3.5267,-3.5639,-3.6079,-3.684,-3.7246,-3.7246,-3.7973,-3.8362,-3.8362,-3.8362,-3.8362,-3.8345,-3.7601,-3.7246,-3.7229,-3.6789,-3.6377,0.0,-3.6096,-3.5904,-3.56,-3.56,-3.56,0.0,0.0,0.0,0.0,0.0,-3.3406,-3.3339,-3.2899,-3.2767,-3.2649,-3.1904,-3.1667,-3.1616,-3.1275,-3.119,-3.119,-3.119,-3.119,-3.119,-3.119,-3.119,-3.119,-3.119,-3.119,-3.119,-3.119,-3.0869,-3.0565,-3.0565,-2.9973,0.0,-2.8838,-2.7858,-2.7063,-2.6742,-2.6691,-2.6691,-2.6691,-2.6691,-2.6539,-2.6116,-2.5795,-2.5253,-2.4391,-2.3765,0.0,0.0,0.0,-2.1515,-2.1207,-2.0754,0.0,0.0,0.0,0.0,0.0,0.0,0.0,0.0,-1.7876,-1.7559,0.0,0.0,0.0,0.0,0.0,0.0,0.0,0.0,0.0,0.0,0.0,0.0,0.0,0.0,0.0,0.0,-2.8032,-2.9886,-3.1712,-3.2059,-3.2386,-3.3175,-3.3994,-3.47,-3.5191,-3.5547,-3.5735,-3.5735,-3.6468,-3.6931,-3.6931,0.0,0.0,0.0,0.0,-3.9106,-3.9106,-3.9106,-3.9106,-3.9106,-3.8379,-3.8024,-3.8024,-3.7939,-3.7533,-3.6931,-3.6931,-3.6468,-3.5735,-3.5735,-3.5667,-3.56,-3.56,-3.5194,-3.4539,-3.3897,-3.366,-3.3643,-3.3558,0.0,0.0,-3.2581,-3.2293,-3.2158,-3.141,-3.119,-3.119,-3.119,-3.119,-3.119,-3.119,-3.119,-3.119,-3.119,-3.119,-3.119,-3.119,-3.119,-3.119,-3.119,-3.0666,-3.0209,-3.0106,-2.8821,-2.757,-2.6911,-2.6742,-2.6691,-2.6691,-2.6691,-2.6691,-2.6691,0.0,0.0,-2.5609,-2.4408,-2.3579,-2.341,-2.2716,-2.2006,-2.136,-2.1326,-2.1326,-2.1326,-2.1326,-2.1647,-2.2296,-2.2296,-2.2296,-2.2212,-1.8642,-1.8203,0.0,0.0,0.0,0.0,0.0,0.0,0.0,0.0,0.0,0.0,0.0,0.0,0.0,0.0,0.0,-2.8881,-3.0129,-3.1314,-3.287,-3.3603,-3.4175,-3.4723,-3.4605,-3.4769,-3.5467,-3.6164,-3.6575,-3.6575,-3.7263,-3.7686,-3.7686,-3.8396,0.0,-3.8785,-3.9503,-3.9893,-3.9893,-3.9893,-3.9893,-3.9893,0.0,0.0,-3.8768,-3.8176,-3.7821,-3.7686,-3.7686,-3.7263,-3.6575,-3.6575,-3.618,-3.56,-3.56,-3.5498,-3.5363,-3.5228,-3.516,-3.5076,-3.4489,-3.4286,-3.4066,-3.2733,-3.2293,-3.2158,-3.141,-3.119,0.0,-3.119,-3.119,-3.119,-3.119,-3.119,-3.119,-3.119,-3.119,-3.119,-3.119,-3.119,-3.119,-3.119,-3.1072,-3.0801,-3.019,-2.8821,-2.7756,-2.7604,-2.708,-2.6691,-2.6691,-2.6691,-2.6691,-2.6691,-2.6573,-2.6251,-2.5643,-2.5339,-2.4678,-2.3477,-2.2716,-2.2229,-2.2076,-2.209,-2.209,-2.209,-2.209,-2.2175,-2.2296,-2.2296,-2.2296,-2.2279,-2.1495,-2.1728,0.0,0.0,0.0,0.0,0.0,0.0,0.0,0.0,0.0,0.0,0.0,-2.464,0.0,0.0,-2.8905,-3.0876,-3.1816,-3.2696,-3.3795,-3.4269,-3.4597,-3.4818,-3.4963,-3.5199,-3.5566,-3.6315,-3.6795,-3.6795,-3.7821,-3.8447,-3.8447,-3.914,-3.9554,-3.9554,-3.991,-4.0096,-4.0096,-4.0096,-4.0096,-4.0096,-3.974,-3.9554,-3.9554,-3.9157,-3.8802,-3.8447,-3.8447,-3.8024,-3.7313,-3.6965,-3.6315,-3.56,-3.56,-3.56,-3.56,-3.56,-3.56,-3.5549,-3.5182,-3.5064,-3.4878,-3.3744,-3.341,-3.319,-3.209,-3.1752,-3.1684,-3.1292,-3.119,-3.119,-3.119,-3.119,-3.119,-3.119,-3.119,-3.119,-3.119,-3.119,-3.119,-3.119,-3.119,-3.1072,-3.0717,-2.9719,-2.8686,-2.7925,-2.7486,-2.7131,-2.6742,-2.6691,-2.6691,-2.6691,-2.6691,-2.6539,-2.6184,-2.5812,-2.4983,-2.3494,-2.3054,-2.2682,-2.2313,-2.2296,-2.2296,-2.2296,-2.2296,-2.2296,-2.2296,-2.2682,-2.2852,-2.2868,-2.3224,-2.3393,0.0,0.0,0.0,0.0,0.0,0.0,0.0,0.0,-2.3703,-2.4896,-2.613,-2.754,-2.942,-3.0244,-3.1112,-3.2486,-3.322,-3.388,-3.4607,-3.4709,-3.4709,-3.4709,-3.525,-3.56,-3.56,-3.6468,-3.7015,-3.7015,-3.8386,-3.9208,-3.9208,-3.9791,-4.0096,-4.0096,-4.0096,-4.0096,-4.0096,-4.0096,-4.0096,-4.0096,-4.0096,-4.0096,-4.0096,-4.0096,-3.9791,-3.9191,-3.9056,-3.8667,-3.8058,-3.7313,-3.6552,-3.5819,-3.5819,-3.5735,-3.56,-3.56,-3.56,-3.56,-3.56,-3.56,-3.5481,-3.4742,-3.4489,-3.4218,-3.275,-3.2293,-3.2158,-3.1413,-3.119,-3.119,-3.119,-3.119,-3.119,-3.119,-3.119,-3.119,-3.119,-3.119,-3.119,-3.119,-3.119,-3.119,-3.119,-3.0717,-2.9835,-2.8466,-2.7993,-2.7587,-2.6996,-2.6793,-2.6691,-2.6691,-2.6691,-2.6691,-2.6691,-2.6031,-2.5101,-2.39,-2.368,-2.3342,-2.275,-2.2733,-2.2733,-2.2733,-2.2733,-2.2733,-2.2733,-2.3325,-2.3613,-2.363,-2.4372,-2.4406,-2.0016,-1.951,-1.9756,-2.2758,-2.3052,-2.3635,0.0,0.0,-2.751,-2.8667,-2.8802,-2.9185,-3.0726,-3.1082,-3.1808,-3.3918,-3.432,-3.4624,-3.5363,-3.5481,-3.5481,-3.5481,-3.5549,-3.56,-3.56,-3.6924,-3.7787,-3.7787,-3.9123,-3.9977,-3.9977,-4.0062,-4.0096,-4.0096,-4.0096,-4.0096,-4.0096,-4.0096,-4.0096,-4.0096,-4.0096,-4.0096,-4.0096,-4.0096,-4.0062,-3.9943,-3.9276,-3.8937,-3.8819,-3.8075,-3.733,-3.6677,-3.6677,-3.6231,-3.56,-3.56,-3.56,-3.56,-3.56,-3.56,-3.5481,-3.4742,-3.4489,-3.4218,-3.275,-3.2293,-3.2158,-3.1413,-3.119,-3.119,-3.119,-3.119,-3.119,-3.119,-3.119,-3.119,-3.119,-3.119,-3.119,-3.119,-3.119,-3.119,-3.119,-3.1123,-3.0801,-2.9973,-2.8686,-2.7773,-2.7689,-2.7114,-2.6691,-2.6691,-2.6691,-2.6691,-2.6691,-2.6031,-2.5525,-2.5372,-2.4745,-2.4338,-2.4254,-2.4254,-2.4254,-2.4254,-2.4254,-2.4254,-2.4254,-2.4338,-2.4372,-2.4389,-2.5135,-2.5439,-2.3795,0.0,0.0,0.0,-2.6741,-2.7549,-2.8931,-2.9401,-2.968,-3.0124,-3.0437,-3.0964,-3.2063,-3.2392,-3.2916,0.0,-3.4861,-3.536,-3.5977,-3.5805,-3.5564,-3.5433,-3.5533,-3.56,-3.56,-3.6986,-3.7905,-3.7905,-3.9259,-4.0096,-4.0096,-4.0096,-4.0096,-4.0096,-4.0096,-4.0237,-4.0552,-4.0254,-4.0254,-4.0552,-4.0237,-4.0096,-4.0096,-4.0096,-4.0096,-4.0079,-3.9774,-3.9394,-3.8971,-3.8667,-3.7838,-3.6795,-3.6795,-3.6299,-3.56,-3.56,-3.56,-3.56,-3.56,-3.56,-3.5549,-3.525,-3.5148,-3.4945,-3.3897,-3.3596,-3.3343,-3.2175,-3.1853,-3.1752,-3.1309,-3.119,-3.119,-3.119,-3.119,-3.119,-3.119,-3.119,-3.119,-3.119,-3.119,-3.119,-3.119,-3.119,-3.1089,-3.0784,-2.9465,-2.8332,-2.7858,-2.7165,-2.6691,-2.6691,-2.6691,-2.6691,-2.6691,-2.642,-2.6065,-2.5642,-2.5321,-2.4948,-2.4508,-2.4491,-2.4491,-2.4491,-2.4491,-2.4491,-2.4491,-2.4931,-2.5135,-2.5152,-2.5896,-2.6234,-2.6227,0.0,0.0,-2.8154,-2.9494,-3.041,-2.9941,-3.0679,-3.1413,-3.1232,-3.1515,-3.2049,-3.2846,-3.3159,0.0,-3.4555,-3.5258,-3.5903,-3.6545,-3.608,-3.5717,-3.5819,-3.5645,-3.5567,-3.5793,-3.6898,-3.7686,-3.7889,-3.9073,-3.9951,-4.0294,-4.0336,-4.0392,-4.0546,-4.0587,-4.0767,-4.1155,-4.0601,-4.0521,-4.0903,-4.0521,-4.0336,-4.0336,-4.0336,-4.0254,-4.0096,-4.0096,-3.9808,-3.9292,-3.9292,-3.8531,-3.7405,-3.7161,-3.662,-3.591,-3.5667,-3.56,-3.56,-3.56,-3.56,-3.56,-3.56,-3.56,-3.5447,-3.4726,-3.4489,-3.4184,-3.2716,-3.2293,-3.2141,-3.1396,-3.119,-3.119,-3.119,-3.119,-3.119,-3.119,-3.119,-3.119,-3.119,-3.119,-3.119,-3.119,-3.119,-3.119,-3.119,-3.0108,-2.9008,-2.8229,-2.73,-2.6691,-2.6691,-2.6691,-2.6691,-2.6691,-2.6691,-2.6471,-2.5947,-2.5913,-2.5659,-2.5134,-2.5117,-2.5117,-2.5117,-2.5117,-2.5117,-2.5117,-2.5642,-2.5913,-2.593,-2.6437,-2.6691,0.0,0.0,-2.7181,-2.9549,-3.0742,-3.1461,-3.1833,-3.2538,-3.3006,-3.2548,-3.2092,-3.2049,-3.2846,-3.3002,-3.3521,-3.503,-3.561,-3.6196,-3.7048,-3.6425,-3.6213,-3.703,-3.6003,-3.552,0.0,-3.6654,-3.7134,-3.7855,-3.8599,-3.9586,-4.0798,-4.088,-4.1155,-4.1746,-4.1746,-4.1768,-4.1771,-4.1178,-4.088,-4.0903,-4.088,-4.088,-4.088,-4.088,-4.0601,-4.0096,-4.0096,-4.0096,-4.0079,-4.0079,-3.9622,-3.8853,-3.8159,-3.7398,-3.6677,-3.5893,-3.56,-3.56,-3.56,-3.56,-3.56,-3.56,-3.56,-3.5447,-3.4726,-3.4489,-3.4184,-3.2716,-3.2293,-3.2141,-3.1396,-3.119,-3.119,-3.119,-3.119,-3.119,-3.119,-3.119,-3.119,-3.119,-3.119,-3.119,-3.119,-3.119,-3.119,-3.119,-3.0548,-2.9803,-2.9061,-2.7639,-2.6691,-2.6691,-2.6691,-2.6691,-2.6691,-2.6691,-2.6691,-2.6657,-2.6657,-2.6657,-2.6623,-2.6623,-2.6623,-2.6623,-2.6623,-2.6623,-2.6623,-2.6674,-2.6657,-2.6657,-2.6691,-2.6691,0.0,0.0,-3.0099,-3.1445,-3.2394,-3.2962,-3.2821,-3.3208,-3.3334,-3.2364,-3.2041,-3.186,-3.158,-3.2118,-3.295,-3.4003,-3.5133,-3.6308,-3.7506,-3.761,-3.7393,-3.6968,-3.7159,0.0,0.0,0.0,0.0,-3.8362,-3.9101,-4.0118,-4.1433,-4.149,-4.1599,-4.1793,-4.181,-4.181,-4.181,-4.1599,-4.149,-4.149,-4.149,-4.1291,-4.0903,-4.0903,-4.0625,-4.0121,-4.0473,-4.0631,-4.0631,-4.0631,-4.0201,-3.9416,-3.8326,-3.7449,-3.6711,-3.591,-3.56,-3.56,-3.56,-3.56,-3.56,-3.56,-3.56,-3.5549,-3.5318,-3.5233,-3.4928,-3.344,-3.3034,-3.2747,-3.1512,-3.119,-3.119,-3.119,-3.119,-3.119,-3.119,-3.119,-3.119,-3.119,-3.119,-3.119,-3.119,-3.119,-3.119,-3.119,-3.0581,-2.9651,-2.8383,-2.7739,-2.7232,-2.6742,-2.6691,-2.6691,-2.6691,-2.6691,-2.6691,-2.6691,-2.6691,-2.6691,-2.6691,-2.6691,-2.6691,-2.6691,-2.6691,-2.6691,-2.6691,-2.6691,-2.6691,-2.6691,-2.6691,-2.6691,0.0,-3.0815,-3.2082,-3.317,-3.3848,-3.4161,-3.3898,-3.3606,-3.308,-3.1997,-3.1432,-3.0886,-3.0048,-3.0466,-3.1493,-3.3194,-3.4647,-3.6281,-3.8331,-3.8796,-3.8797,-3.8381,-3.8528,0.0,0.0,0.0,0.0,-3.8642,-3.9587,-4.0703,-4.2047,-4.2121,-4.2223,-4.2386,-4.2406,-4.2406,-4.2406,-4.2223,-4.2121,-4.2121,-4.1895,-4.1707,-4.1534,-4.1335,-4.1036,-4.0737,-4.1064,-4.1223,-4.1223,-4.1223,-4.0926,-4.0358,-3.8803,-3.7883,-3.7337,-3.6045,-3.56,-3.56,-3.56,-3.56,-3.56,-3.56,-3.56,-3.56,-3.56,-3.56,-3.5295,-3.3829,-3.3406,-3.3068,-3.1579,-3.119,-3.119,-3.119,-3.119,-3.119,-3.119,-3.119,-3.119,-3.119,-3.119,-3.119,-3.119,-3.119,-3.119,-3.119,-3.0801,-3.004,-2.8787,-2.8145,-2.7621,-2.7148,-2.686,-2.6691,-2.6691,-2.6691,-2.6691,-2.6691,-2.6691,-2.6691,-2.6691,-2.6691,-2.6691,-2.6691,-2.6691,-2.6691,-2.6691,-2.6691,-2.6691,-2.6691,-2.6691,-2.6843,-3.0846,-3.2118,-3.3151,-3.4692,-3.5041,-3.5004,-3.4949,-3.3683,-3.2289,-3.1439,-3.0332,-2.9242,0.0,0.0,-2.9445,-3.2654,-3.4243,-3.6197,-3.9441,-3.9953,-4.023,0.0,0.0,0.0,0.0,0.0,0.0,-3.8881,0.0,-4.1324,-4.2676,-4.275,-4.2976,-4.3479,-4.3515,-4.3497,-4.3444,-4.2958,-4.2711,-4.2713,-4.2162,-4.2162,-4.2674,-4.2101,-4.1832,-4.181,-4.1814,-4.1853,-4.1853,-4.1853,-4.1817,-4.1577,-3.9551,-3.8703,-3.8386,-3.6382,-3.5605,-3.56,-3.56,-3.56,-3.56,-3.56,-3.5622,-3.5644,-3.5622,-3.5622,-3.534,-3.3863,-3.3461,-3.3089,-3.165,-3.1227,-3.123,-3.121,-3.119,-3.119,-3.119,-3.119,-3.119,-3.119,-3.119,-3.119,-3.119,-3.119,-3.119,-3.119,-3.119,-3.092,-3.0192,-2.8787,-2.7858,-2.7807,-2.7148,-2.6691,-2.6691,-2.6691,-2.6691,-2.6691,-2.6691,-2.6691,-2.6691,-2.6691,-2.6691,-2.6691,-2.6691,-2.6691,-2.6691,-2.6691,-2.6691,-2.6691,-2.6725,-2.7131,-3.2137,-3.3788,-3.5459,-3.5862,-3.5481,-3.4839,-3.4247,-3.2852,-3.1311,-2.9898,-2.8892,-2.7999,-2.7184,0.0,0.0,-3.2414,-3.4559,0.0,-3.9533,-4.0414,0.0,0.0,0.0,-4.1173,-4.0384,-4.1106,0.0,0.0,-4.1115,-4.1866,-4.3231,-4.3286,-4.3357,-4.3497,-4.3515,-4.3322,-4.2902,-4.2769,-4.2902,-4.3286,-4.3142,-4.294,-4.2693,-4.2539,-4.2241,-4.1832,-4.2282,-4.248,-4.248,-4.248,-4.2083,-4.1343,-3.9866,-3.8688,-3.7694,-3.6594,-3.5941,-3.56,-3.56,-3.56,-3.56,-3.56,-3.5876,-3.6118,-3.5717,-3.5876,-3.5929,-3.4601,-3.4068,-3.3622,-3.236,-3.1839,-3.1565,-3.1271,-3.119,-3.119,-3.119,-3.119,-3.119,-3.119,-3.119,-3.119,-3.119,-3.119,-3.119,-3.119,-3.119,-3.092,-3.0192,-2.9279,-2.8467,-2.7858,-2.7148,-2.6691,-2.6691,-2.6691,-2.6691,-2.6691,-2.6691,-2.6691,-2.6691,-2.6691,-2.6691,-2.6691,-2.6691,-2.6691,-2.6691,-2.6691,-2.6691,-2.6708,-2.7249,-2.7621,-3.3935,-3.5495,-3.6725,-3.6376,-3.5936,-3.5169,-3.3623,-3.2027,-3.021,-2.7897,-2.7053,0.0,0.0,0.0,0.0,0.0,0.0,0.0,-3.946,-4.091,-4.1772,0.0,-4.2543,0.0,-4.1776,-4.2388,-4.2714,0.0,-4.2377,-4.2703,-4.3461,-4.3515,-4.3515,-4.3515,-4.3515,-4.3357,-4.305,-4.305,-4.3196,-4.3497,-4.325,-4.3105,-4.3032,-4.2807,-4.2637,-4.2562,0.0,-4.305,-4.305,-4.305,-4.2541,-4.1669,-4.0359,-3.9173,-3.8082,-3.7106,-3.6563,-3.6295,-3.6295,-3.6295,-3.6253,-3.6032,-3.6312,-3.6643,-3.6118,-3.6333,-3.6486,-3.5211,-3.4901,-3.4585,-3.3048,-3.2505,-3.2166,-3.1395,-3.119,-3.119,-3.119,-3.119,-3.119,-3.119,-3.119,-3.119,-3.119,-3.119,-3.119,-3.119,-3.119,-3.1055,-3.0632,-2.9939,-2.9313,-2.8855,-2.7824,-2.7182,-2.7182,-2.6894,-2.6691,-2.6691,-2.6691,-2.6691,-2.6691,-2.6691,-2.6691,-2.6691,-2.6691,-2.6691,-2.6691,-2.6691,-2.686,-2.7199,-2.7604,-2.8162,-3.5716,-3.6978,-3.7474,-3.6666,-3.6285,-3.5477,-3.2999,-3.1035,-2.887,-2.5852,0.0,0.0,-2.2326,0.0,-2.6237,-2.8748,0.0,-3.511,-3.9313,-4.1093,-4.2359,-4.3386,-4.3515,-4.3515,-4.3515,-4.3515,-4.3515,-4.3515,-4.3515,-4.3515,-4.3515,-4.3515,-4.3515,-4.3515,-4.3515,-4.3515,-4.3515,-4.3515,-4.3515,-4.3479,-4.3032,-4.305,-4.3479,-4.3014,-4.305,-4.3515,0.0,0.0,-4.3515,-4.3515,-4.2947,-4.2032,-4.0869,-3.9823,-3.8814,-3.7701,-3.7248,-3.7209,-3.7209,-3.7229,-3.721,-3.6684,-3.6845,-3.7192,-3.6664,-3.6865,-3.705,-3.5883,-3.5814,-3.5651,-3.3731,-3.3203,-3.285,-3.1536,-3.119,-3.119,-3.119,-3.119,-3.119,-3.119,-3.119,-3.119,-3.119,-3.119,-3.119,-3.119,-3.119,-3.119,-3.119,-3.0565,-3.0055,-2.9973,-2.8652,-2.7756,-2.7655,-2.7063,-2.6691,-2.6691,-2.6691,-2.6691,-2.6691,-2.6691,-2.6691,-2.6691,-2.6691,-2.6691,-2.6691,-2.6691,-2.7029,-2.7655,-2.7858,-2.8669,-3.6174,-3.7367,-3.8303,-3.7492,-3.6248,-3.4582,-3.2155,-2.9329,0.0,0.0,0.0,-2.2492,-2.2758,-2.4218,0.0,-2.9494,0.0,0.0,0.0,0.0,-4.1111,0.0,0.0,0.0,0.0,0.0,0.0,0.0,0.0,0.0,-4.3515,-4.3515,-4.3515,-4.3515,-4.3515,-4.3515,-4.3515,-4.3515,-4.3515,-4.3515,-4.341,-4.341,-4.3497,-4.341,-4.341,-4.3515,-4.3515,0.0,-4.3515,-4.3515,-4.2635,-4.1297,-4.1066,-3.9792,-3.8092,-3.7861,-3.7524,-3.7209,-3.7209,-3.7451,-3.7702,-3.721,-3.7396,-3.7685,-3.721,-3.7396,-3.7649,-3.7051,-3.672,-3.6183,-3.445,-3.3807,-3.3196,-3.1596,-3.119,-3.119,-3.119,-3.119,-3.119,-3.119,-3.119,-3.119,-3.119,-3.119,-3.119,-3.119,-3.119,-3.119,-3.119,-3.0565,-2.9871,-2.9264,-2.8366,-2.7553,-2.6945,-2.6776,-2.6691,-2.6691,-2.6691,-2.6691,-2.6691,-2.6691,-2.6691,-2.6691,-2.6691,-2.6691,-2.6691,-2.6691,-2.6759,-2.6911,-2.8214,-2.8942,-3.6574,-3.7492,-3.7881,-3.7088,-3.5624,-3.3628,-3.0797,0.0,0.0,0.0,0.0,-2.1647,-2.1161,0.0,0.0,0.0,0.0,0.0,0.0,0.0,0.0,0.0,0.0,0.0,0.0,0.0,0.0,0.0,0.0,0.0,-4.3515,-4.3515,-4.3515,-4.3515,-4.3515,-4.3515,-4.3515,-4.3515,-4.3515,-4.3515,-4.3515,-4.3515,-4.3515,-4.3515,-4.3515,-4.3515,-4.3515,0.0,-4.3478,-4.3039,-4.2176,-4.1058,-4.0653,-3.9589,-3.8334,-3.8334,-3.8167,-3.7982,-3.7982,-3.8135,-3.8283,-3.805,-3.8117,-3.8216,-3.772,-3.7929,-3.82,-3.772,-3.7659,-3.7339,-3.5596,-3.4729,-3.39,-3.2178,-3.1643,-3.1582,-3.1823,-3.1677,-3.1507,-3.1507,-3.1332,-3.119,-3.119,-3.119,-3.119,-3.119,-3.119,-3.119,-3.119,-3.0886,-3.0395,-2.9651,-2.85,-2.7655,-2.73,-2.6911,-2.6691,-2.6691,-2.6691,-2.6691,-2.6691,-2.6691,-2.6691,-2.6691,-2.6691,-2.6691,-2.6691,-2.6691,-2.6894,-2.73,-2.8468,-2.9213,-3.6189,-3.6978,-3.7052,-3.6229,-3.4633,-3.2522,-2.9666,-2.6869,0.0,0.0,0.0,-2.0913,-1.9774,0.0,0.0,0.0,0.0,0.0,0.0,0.0,0.0,0.0,0.0,0.0,0.0,0.0,0.0,0.0,0.0,0.0,-4.3515,-4.3515,-4.3515,-4.3515,-4.3515,-4.3515,-4.3515,-4.3515,-4.3515,-4.3515,-4.3515,-4.3515,-4.3515,-4.3515,-4.3515,-4.3515,-4.3515,0.0,0.0,-4.2635,-4.1827,-4.1022,-4.0212,-3.9405,-3.8707,-3.8707,-3.8707,-3.8707,-3.8707,-3.8707,-3.8707,-3.8707,-3.8707,-3.8627,-3.82,-3.8366,-3.8611,-3.8183,-3.8382,-3.8261,-3.6396,-3.5473,-3.4588,-3.2779,-3.2127,-3.2039,-3.2417,-3.2196,-3.1951,-3.1951,-3.1603,-3.1351,-3.1449,-3.1329,-3.123,-3.1329,-3.1269,-3.119,-3.119,-3.1055,-3.0734,-3.0176,-2.8872,-2.7908,-2.7587,-2.7029,-2.6691,-2.6691,-2.6691,-2.6691,-2.6691,-2.6691,-2.6691,-2.6691,-2.6691,-2.6776,-2.6945,-2.6945,-2.7317,-2.8077,-2.8873,-2.955,-3.4082,-3.5238,-3.6193,-3.5334,-3.3366,-3.1164,-2.939,0.0,0.0,0.0,-2.0582,-1.9719,-2.0272,0.0,0.0,0.0,0.0,0.0,0.0,0.0,0.0,0.0,0.0,0.0,0.0,0.0,0.0,0.0,0.0,0.0,0.0,-4.3515,-4.3515,-4.3515,-4.3515,-4.3515,-4.3515,-4.3515,-4.3515,-4.3515,-4.3515,-4.3515,-4.3515,-4.3515,-4.3515,-4.3515,-4.3515,0.0,0.0,-4.2635,-4.1827,-4.1022,-4.0212,-3.9405,-3.8707,-3.8707,-3.8707,-3.8707,-3.8707,-3.8707,-3.8707,-3.8707,-3.8707,-3.8692,-3.8643,-3.8658,-3.8692,-3.8643,-3.8658,-3.823,-3.6166,-3.5602,-3.5022,-3.2977,-3.2453,-3.2451,-3.2484,-3.2467,-3.2434,-3.2434,-3.2074,-3.1879,-3.2316,-3.1714,-3.1312,-3.1696,-3.143,-3.119,-3.119,-3.0615,-3.0192,-3.0125,-2.9364,-2.8333,-2.6911,-2.6725,-2.6691,-2.6691,-2.6691,-2.6691,-2.6691,-2.6691,-2.6691,-2.6691,-2.6691,-2.7029,-2.7705,-2.7705,-2.8094,-2.8908,-2.9651,-3.004,-3.3403,-3.4651,-3.5316,-3.4491,-3.2467,-3.0265,-2.865,0.0,0.0,-2.1867,-2.0472,-1.9407,-1.9711,-2.0162,-2.1098,0.0,-2.3914,0.0,0.0,0.0,0.0,0.0,0.0,0.0,0.0,0.0,0.0,0.0,0.0,0.0,0.0,-4.3515,-4.3515,-4.3515,-4.3515,-4.3515,-4.3515,-4.3515,-4.3515,-4.3515,-4.3515,-4.3515,-4.3515,-4.3515,-4.3515,-4.3478,-4.2983,0.0,0.0,-4.1387,-4.0671,-4.0304,-3.9496,-3.8982,-3.8707,-3.8707,-3.8707,-3.8707,-3.8707,-3.8707,-3.8707,-3.8707,-3.8707,-3.8707,-3.8707,-3.8707,-3.8707,-3.8707,-3.834,-3.7699,-3.6564,-3.5334,-3.415,-3.3156,-3.2921,-3.2999,-3.3225,-3.309,-3.2921,-3.2921,-3.2533,-3.2282,-3.2467,-3.1986,-3.1621,-3.1823,-3.1485,-3.119,-3.119,-3.0937,-3.0598,-3.014,-2.9008,-2.8044,-2.7401,-2.6962,-2.6691,-2.6691,-2.6691,-2.6894,-2.7334,-2.6945,-2.6911,-2.735,-2.735,-2.7503,-2.7807,-2.8298,-2.8705,-2.9027,-2.9753,-3.0108,-3.1861,-3.3133,-3.3793,-3.322,-3.1274,-2.9127,0.0,0.0,-2.1721,-2.1482,-2.0288,-1.9297,-1.9297,-1.9767,-2.0519,0.0,-2.2483,-2.4125,-2.7346,0.0,0.0,0.0,0.0,0.0,0.0,0.0,0.0,0.0,0.0,0.0,0.0,-4.3515,-4.3515,-4.3515,-4.3515,-4.3515,-4.3515,-4.3515,-4.3515,-4.3515,-4.3515,-4.3515,-4.3496,-4.324,-4.3149,-4.3094,0.0,0.0,0.0,-4.0469,-3.99,-3.9808,-3.9019,-3.8707,-3.8707,-3.8707,-3.8707,-3.8707,-3.8707,-3.8707,-3.8707,-3.8707,-3.8707,-3.8707,-3.8707,-3.8707,-3.8707,-3.8707,-3.7955,-3.6996,-3.6365,-3.4943,-3.3598,-3.3429,-3.3394,-3.3465,-3.3734,-3.3578,-3.3394,-3.3394,-3.2996,-3.2697,-3.2697,-3.2196,-3.1824,-3.186,-3.1485,-3.119,-3.119,-3.119,-3.1004,-3.048,-2.9261,-2.8297,-2.7841,-2.7537,-2.7199,-2.6725,-2.7131,-2.7402,-2.7469,-2.7199,-2.7182,-2.7469,-2.7689,-2.7925,-2.8145,-2.8941,-2.945,-2.967,-3.0176,-3.0429,-2.8822,-3.0228,-3.1433,-3.1433,-2.9616,-2.7603,0.0,-2.4116,-2.1555,-2.0694,-1.9877,-1.9297,-1.9297,-1.9315,-1.9866,-2.1519,-2.2483,-2.4125,0.0,0.0,0.0,0.0,0.0,0.0,0.0,0.0,0.0,0.0,0.0,0.0,0.0,-4.3515,-4.3515,-4.3515,-4.3515,-4.3515,-4.3515,-4.3515,-4.3515,-4.3515,-4.3515,-4.3515,-4.3478,-4.2671,-4.2304,0.0,0.0,0.0,0.0,-4.023,-3.99,-3.9808,-3.9019,-3.8707,-3.8707,-3.8707,-3.8707,-3.8707,-3.8707,-3.8707,-3.8707,-3.8707,-3.8707,-3.8707,-3.8707,-3.8707,-3.8707,-3.8707,-3.7551,-3.6119,-3.5243,-3.4417,-3.3793,-3.3775,-3.3788,-3.3788,-3.3807,-3.3807,-3.3788,-3.3788,-3.348,-3.3199,-3.3199,-3.2416,-3.1807,-3.1807,-3.1468,-3.119,-3.119,-3.119,-3.119,-3.119,-3.0531,-2.9447,-2.7925,-2.8518,-2.8333,-2.6809,-2.813,-2.8299,-2.6759,-2.7401,-2.7452,-2.6725,-2.7418,-2.8179,-2.8993,-2.9736,-3.0463,-3.1173,-3.1173,-3.119,-2.6476,-2.7714,-2.8679,-2.7578,-2.6715,-2.5797,-2.4447,-2.2923,-2.1555,-2.0676,-1.9858,-1.9297,-1.9297,-1.9297,-2.0215,-2.2987,0.0,0.0,0.0,0.0,0.0,0.0,0.0,0.0,0.0,0.0,0.0,0.0,0.0,0.0,0.0,-4.2671,-4.2928,-4.3478,-4.3515,-4.3515,-4.3515,-4.3515,-4.3515,-4.3496,-4.2928,-4.2671,-4.2653,-4.1864,0.0,0.0,0.0,0.0,0.0,-3.9405,-3.9074,-3.9056,-3.8799,-3.8707,-3.8707,-3.8707,-3.8707,-3.8707,-3.8707,-3.8707,-3.8707,-3.8707,-3.8707,-3.8707,-3.8707,-3.8707,-3.8469,-3.7367,-3.6688,-3.5973,-3.4559,-3.399,-3.3807,-3.3807,-3.3807,-3.3807,-3.3807,-3.3807,-3.3807,-3.3807,-3.3694,-3.3606,-3.3606,-3.3151,-3.2761,-3.2761,-3.2384,-3.2092,-3.2092,-3.1806,-3.1621,-3.1621,-3.1166,-3.0446,-2.9447,-2.9127,-2.879,-2.8299,-2.8739,-2.879,-2.8299,-2.7959,-2.7942,-2.8282,-2.8502,-2.8991,-2.9753,-3.0497,-3.097,-3.119,-3.119,-3.119,0.0,-2.5227,-2.6201,-2.5209,-2.4713,-2.4153,-2.285,-2.1914,-2.107,-2.0217,-1.9656,-1.9297,-1.9297,-1.9297,-2.0178,-2.2859,0.0,0.0,0.0,0.0,0.0,0.0,0.0,0.0,0.0,0.0,0.0,0.0,0.0,0.0,0.0,0.0,-4.2084,-4.258,-4.2598,-4.2745,-4.3039,-4.2745,-4.2745,-4.3039,-4.2231,-4.1864,-4.1827,-4.102,0.0,0.0,0.0,0.0,0.0,-3.8909,-3.8707,-3.8707,-3.8707,-3.8707,-3.8707,-3.8707,-3.8707,-3.8707,-3.8707,-3.8707,-3.8707,-3.8707,-3.8707,-3.8707,-3.8707,-3.8707,-3.8358,-3.6743,-3.6303,-3.5899,-3.4247,-3.3807,-3.3807,-3.3807,-3.3807,-3.3807,-3.3807,-3.3807,-3.3807,-3.3807,-3.3807,-3.3748,-3.3592,-3.3361,-3.3154,-3.2968,-3.2681,-3.2501,-3.2501,-3.223,-3.2057,-3.2057,-3.1842,-3.1504,-3.1039,-3.0282,-2.9602,-2.9044,-2.9517,-2.9585,-2.9027,-2.8789,-2.8845,-2.9211,-2.9355,-2.9729,-3.032,-3.0915,-3.1271,-3.143,-3.1271,-3.1387,0.0,-2.2547,-2.3749,-2.3694,-2.3199,-2.2538,-2.1721,-2.0996,0.0,-1.9481,-1.9297,-1.9334,-1.9462,-1.9426,-1.9995,-2.1831,0.0,0.0,0.0,0.0,0.0,0.0,0.0,0.0,0.0,0.0,0.0,0.0,0.0,0.0,0.0,0.0,-4.0985,-4.093,-4.093,-4.1334,-4.2213,-4.1462,-4.148,-4.2194,-4.1405,-4.1003,-4.0985,-4.0175,0.0,0.0,0.0,0.0,0.0,-3.8707,-3.8707,-3.8707,-3.8707,-3.8707,-3.8707,-3.8707,-3.8707,-3.8707,-3.8707,-3.8707,-3.8707,-3.8707,-3.8707,-3.8689,-3.8634,-3.8615,-3.8285,-3.6743,-3.6266,-3.5844,-3.4211,-3.3807,-3.3807,-3.3807,-3.3807,-3.3807,-3.3807,-3.3807,-3.3807,-3.3807,-3.3807,-3.368,-3.3302,-3.3243,-3.309,-3.2665,-3.2599,-3.2599,-3.2599,-3.2567,-3.255,-3.255,-3.2517,-3.2501,-3.2501,-3.1768,-3.0713,-2.9339,-3.0527,-3.0645,-2.9237,-2.983,-3.005,-2.9726,-3.0102,-3.0443,-3.0838,-3.1127,-3.147,-3.1843,-3.1468,-3.1731,-1.6992,0.0,-1.9399,-1.8768,-1.9399,-1.995,0.0,-1.9759,-2.0272,-1.9481,0.0,-1.9683,-2.0986,-2.0666,-2.1373,0.0,0.0,0.0,0.0,0.0,0.0,0.0,0.0,0.0,0.0,0.0,0.0,0.0,0.0,0.0,0.0,0.0,-3.99,-3.9294,-3.9258,-3.9955,-4.137,-4.1187,-4.1187,-4.137,-4.0579,-4.0175,-4.0157,-3.935,0.0,0.0,0.0,0.0,-3.8707,-3.8707,-3.8707,-3.8707,-3.8707,-3.8707,-3.8707,-3.8707,-3.8707,-3.8707,-3.8707,-3.8707,-3.8707,-3.8707,-3.8707,-3.8597,-3.7955,-3.7786,-3.7584,-3.6578,-3.5826,-3.5059,-3.4064,-3.3807,-3.3807,-3.3807,-3.3807,-3.3807,-3.3807,-3.3807,-3.3807,-3.3807,-3.3807,-3.3762,-3.368,-3.3666,-3.362,-3.3504,-3.349,-3.349,-3.349,-3.3243,-3.3029,-3.3029,-3.2713,-3.2501,-3.2501,-3.2316,-3.2056,-3.1688,-3.2003,-3.1792,-3.0861,-3.1001,-3.1068,-3.097,-3.1615,-3.1984,-3.2068,-3.216,-3.2248,-3.2315,-3.223,-3.2299,-1.5234,-1.7015,-1.8742,-1.8157,-1.9004,-1.9849,-1.9331,0.0,0.0,0.0,0.0,-1.9683,-2.096,0.0,0.0,0.0,0.0,0.0,0.0,0.0,0.0,0.0,0.0,0.0,0.0,0.0,0.0,0.0,0.0,0.0,0.0,0.0,-3.9148,-3.8707,-3.8707,-3.9313,-4.0543,-4.0178,-4.0178,-4.0543,-3.9735,-3.935,-3.9331,-3.8909,-3.8707,0.0,0.0,0.0,-3.8707,-3.8707,-3.8707,-3.8707,-3.8707,-3.8707,-3.8707,-3.8707,-3.8707,-3.8652,-3.8267,-3.8138,-3.8212,-3.8579,-3.845,-3.8065,-3.7639,-3.6945,-3.6266,-3.5844,-3.5353,-3.4821,-3.4009,-3.3807,-3.3807,-3.3807,-3.3807,-3.3807,-3.3807,-3.3807,-3.3807,-3.3807,-3.3807,-3.3807,-3.3807,-3.3807,-3.3807,-3.3807,-3.3807,-3.3807,-3.3807,-3.3606,-3.348,-3.348,-3.324,-3.3087,-3.3087,-3.3087,-3.2934,-3.2534,-3.2501,-3.2323,-3.1914,-3.1896,-3.1896,-3.1896,-3.2515,-3.2713,-3.2501,-3.2501,-3.2616,-3.2809,-3.2599,-3.2713,-1.4979,-1.7385,-1.9663,-1.9091,-1.9896,-2.0762,-2.0578,0.0,0.0,0.0,0.0,0.0,0.0,0.0,0.0,0.0,0.0,0.0,0.0,0.0,0.0,0.0,0.0,0.0,0.0,0.0,0.0,0.0,0.0,0.0,0.0,0.0,0.0,-3.8707,-3.8707,-3.9038,-3.9698,-3.9038,-3.9038,-3.9698,-3.9038,-3.8707,-3.8707,-3.8707,-3.8707,0.0,0.0,0.0,-3.8707,-3.8707,-3.8707,-3.8707,-3.8707,-3.8707,-3.8707,-3.8707,-3.8615,-3.8395,-3.7603,-3.7327,-3.7437,-3.8102,-3.7863,-3.729,-3.7162,-3.6138,-3.4968,-3.4857,-3.4821,-3.4656,-3.3972,-3.3807,-3.3807,-3.3807,-3.3807,-3.3807,-3.3807,-3.3807,-3.3807,-3.3807,-3.3807,-3.3807,-3.3807,-3.3807,-3.3807,-3.3807,-3.3807,-3.3807,-3.3807,-3.3807,-3.3807,-3.3807,-3.3807,-3.3807,-3.3807,-3.3807,-3.3476,-3.2745,-3.2697,-3.2697,-3.2697,-3.2697,-3.2697,-3.2697,-3.309,-3.309,-3.2697,-3.2697,-3.2903,-3.3273,-3.2887,-3.3087,-1.6434,-1.8272,-1.9429,-1.7833,-1.9136,-2.0786,-2.0751,0.0,0.0,0.0,0.0,0.0,0.0,0.0,0.0,0.0,0.0,0.0,0.0,0.0,0.0,0.0,0.0,0.0,0.0,0.0,0.0,0.0,0.0,0.0,0.0,0.0,0.0,-3.8707,-3.8707,-3.8762,-3.8891,-3.8762,-3.8762,-3.8891,-3.8762,-3.8707,-3.8707,-3.8707,-3.8707,0.0,0.0,-3.8707,-3.8707,-3.8707,-3.8707,-3.8707,-3.8707,-3.8707,-3.8707,-3.8707,-3.8267,-3.7566,-3.6762,-3.6468,-3.6486,-3.6633,-3.6578,-3.634,-3.561,-3.5206,-3.4857,-3.4192,-3.399,-3.3954,-3.3825,-3.3807,-3.3807,-3.3807,-3.3807,-3.3807,-3.3807,-3.3807,-3.3807,-3.3807,-3.3807,-3.3807,-3.3807,-3.3807,-3.3807,-3.3807,-3.3807,-3.3807,-3.3807,-3.3807,-3.3807,-3.3807,-3.3807,-3.3807,-3.3807,-3.3807,-3.3734,-3.3606,-3.3606,-3.3606,-3.3606,-3.3606,-3.3606,-3.3606,-3.3662,-3.3662,-3.3606,-3.3606,-3.3634,-3.3707,-3.3634,-3.3662,-1.579,-1.7552,-1.9056,-1.8615,-2.0333,-2.2233,-2.2551,0.0,0.0,0.0,0.0,0.0,0.0,0.0,0.0,0.0,0.0,0.0,0.0,0.0,0.0,0.0,0.0,0.0,0.0,0.0,0.0,0.0,0.0,0.0,0.0,0.0,0.0,0.0,-3.8707,-3.8707,-3.8707,-3.8707,-3.8707,-3.8707,-3.8707,-3.8707,-3.8707,-3.8707,-3.8707,-3.8707,0.0,-3.8707,-3.8707,-3.8707,-3.8432,-3.8046,-3.8046,-3.779,-3.7404,-3.7404,-3.6872,-3.6156,-3.6266,-3.5991,-3.5665,-3.6156,-3.5973,-3.5518,-3.5133,-3.4692,-3.427,-3.3899,-3.3807,-3.3807,-3.3807,-3.3807,-3.3807,-3.3807,-3.3807,-3.3807,-3.3807,-3.3807,-3.3807,-3.3807,-3.3807,-3.3807,-3.3807,-3.3807,-3.3807,-3.3807,-3.3807,-3.3807,-3.3807,-3.3807,-3.3807,-3.3807,-3.3807,-3.3807,-3.3807,-3.3807,-3.3807,-3.3807,-3.3807,-3.3807,-3.3807,-3.3807,-3.3807,-3.3807,-3.3807,-3.3807,-3.3807,-3.3807,-3.3807,-3.3807,-3.3807,-3.3807,-1.5484,-1.7055,-1.8809,-1.9799,0.0,-2.3375,-2.4552,0.0,0.0,0.0,0.0,0.0,0.0,0.0,0.0,0.0,0.0,0.0,0.0,0.0,0.0,0.0,0.0,0.0,0.0,0.0,0.0,0.0,0.0,0.0,0.0,0.0,0.0,0.0,-3.8138,-3.8138,-3.8138,-3.8138,-3.834,-3.8707,-3.8707,-3.8597,-3.8414,-3.8414,-3.8322,-3.8138,-3.8138,-3.8138,-3.8138,-3.8138,-3.7771,-3.7217,-3.7217,-3.685,-3.6266,-3.6064,-3.5573,-3.5078,-3.555,-3.5275,-3.4821,-3.5495,-3.5257,-3.4729,-3.4729,-3.4302,-3.3807,-3.3807,-3.3807,-3.3807,-3.3807,-3.3807,-3.3807,-3.3807,-3.3807,-3.3807,-3.3807,-3.3807,-3.3807,-3.3807,-3.3807,-3.3807,-3.3807,-3.3807,-3.3807,-3.3807,-3.3807,-3.3807,-3.3807,-3.3807,-3.3807,-3.3807,-3.3807,-3.3807,-3.3807,-3.3807,-3.3807,-3.3807,-3.3807,-3.3807,-3.3807,-3.3807,-3.3807,-3.3807,-3.3807,-3.3807,-3.3807,-3.3807,-3.3807,-3.3807,-3.3807,-3.3807,-1.6962,-1.7942,-1.8922,-2.0657,-2.1751,0.0,-2.6032,-2.6052,0.0,-2.8614,0.0,0.0,0.0,0.0,0.0,0.0,0.0,0.0,0.0,0.0,0.0,0.0,0.0,0.0,0.0,0.0,0.0,0.0,0.0,0.0,0.0,0.0,0.0,0.0,0.0,-3.6468,-3.6468,-3.6468,-3.7221,-3.8707,-3.8707,-3.8303,-3.7584,-3.7584,-3.718,-3.6468,-3.6468,-3.6468,-3.6468,-3.6468,-3.6431,-3.6376,-3.6376,-3.634,-3.6193,-3.5389,-3.5059,-3.4912,-3.4229,-3.3935,-3.3899,-3.3954,-3.3935,-3.3899,-3.3899,-3.3844,-3.3807,-3.3807,-3.3807,-3.3807,-3.3807,-3.3807,-3.3807,-3.3807,-3.3807,-3.3807,-3.3807,-3.3807,-3.3807,-3.3807,-3.3807,-3.3807,-3.3807,-3.3807,-3.3807,-3.3807,-3.3807,-3.3807,-3.3807,-3.3807,-3.3807,-3.3807,-3.3807,-3.3807,-3.3807,-3.3807,-3.3807,-3.3807,-3.3807,-3.3807,-3.3807,-3.3807,-3.3807,-3.3807,-3.3807,-3.3807,-3.3807,-3.3807,-3.3807,-3.3807,-3.3807,-3.3807,-1.5925,-1.738,-1.8968,-2.0152,-2.1483,0.0,0.0,-2.6896,-2.784,-2.9394,0.0,0.0,0.0,0.0,0.0,0.0,0.0,0.0,0.0,0.0,0.0,0.0,0.0,0.0,0.0,0.0,0.0,0.0,0.0,0.0,0.0,0.0,0.0,0.0,0.0,-3.6303,-3.6303,-3.6303,-3.6597,-3.7202,-3.7202,-3.7037,-3.6758,-3.6758,-3.6578,-3.6303,-3.6303,-3.6303,-3.6303,-3.6303,-3.5973,-3.5445,-3.4945,-3.4743,-3.4706,-3.4394,-3.4252,-3.4211,-3.3917,-3.3807,-3.3807,-3.3807,-3.3807,-3.3807,-3.3807,-3.3807,-3.3807,-3.3807,-3.3807,-3.3807,-3.3807,-3.3807,-3.3807,-3.3807,-3.3807,-3.3807,-3.3807,-3.3807,-3.3807,-3.3807,-3.3807,-3.3807,-3.3807,-3.3807,-3.3807,-3.3807,-3.3807,-3.3807,-3.3807,-3.3807,-3.3807,-3.3807,-3.3807,-3.3807,-3.3807,-3.3807,-3.3807,-3.3807,-3.3807,-3.3807,-3.3807,-3.3807,-3.3807,-3.3807,-3.3807,-3.3807,-3.3807,-3.3807,-3.3807,-3.3807,-3.3807,-3.3807,-1.5984,-1.7558,-1.9392,0.0,0.0,0.0,-2.5702,-2.743,-2.9012,0.0,0.0,0.0,0.0,0.0,0.0,0.0,0.0,0.0,0.0,0.0,0.0,0.0,0.0,0.0,0.0,0.0,0.0,0.0,0.0,0.0,0.0,0.0,0.0,0.0,0.0,-3.5514,-3.5514,-3.5514,-3.5551,-3.5643,-3.5551,-3.5642,-3.5899,-3.5899,-3.5752,-3.5514,-3.5514,-3.5514,-3.5514,-3.5514,-3.5165,-3.4564,-3.4027,-3.3807,-3.3807,-3.3807,-3.3807,-3.3807,-3.3807,-3.3807,-3.3807,-3.3807,-3.3807,-3.3807,-3.3807,-3.3807,-3.3807,-3.3807,-3.3807,-3.3807,-3.3807,-3.3807,-3.3807,-3.3807,-3.3807,-3.3807,-3.3807,-3.3807,-3.3807,-3.3807,-3.3807,-3.3807,-3.3807,-3.3807,-3.3807,-3.3807,-3.3807,-3.3807,-3.3807,-3.3807,-3.3807,-3.3807,-3.3807,-3.3807,-3.3807,-3.3807,-3.3807,-3.3807,-3.3807,-3.3807,-3.3807,-3.3807,-3.3807,-3.3807,-3.3807,-3.3807,-3.3807,-3.3807,-3.3807,-3.3807,-3.3807,-3.3807,-1.7699,-1.8815,-2.0251,0.0,0.0,0.0,0.0,0.0,0.0,0.0,0.0,0.0,0.0,0.0,0.0,0.0,0.0,0.0,0.0,0.0,0.0,0.0,0.0,0.0,0.0,0.0,0.0,0.0,0.0,0.0,0.0,0.0,0.0,0.0,0.0,0.0,-3.382,-3.382,-3.3935,-3.42,-3.3941,-3.4211,-3.4986,-3.4986,-3.4546,-3.3807,-3.3807,-3.3807,-3.3807,-3.3807,-3.3807,-3.3807,-3.3807,-3.3807,-3.3807,-3.3807,-3.3807,-3.3807,-3.3807,-3.3807,-3.3807,-3.3807,-3.3807,-3.3807,-3.3807,-3.3807,-3.3807,-3.3807,-3.3807,-3.3807,-3.3807,-3.3807,-3.3807,-3.3807,-3.3807,-3.3807,-3.3807,-3.3807,-3.3807,-3.3807,-3.3807,-3.3807,-3.3807,-3.3807,-3.3807,-3.3807,-3.3807,-3.3807,-3.3807,-3.3807,-3.3807,-3.3807,-3.3807,-3.3807,-3.3807,-3.3807,-3.3807,-3.3807,-3.3807,-3.3807,-3.3807,-3.3807,-3.3807,-3.3807,-3.3807,-3.3807,-3.3807,-3.3807,-3.3807,-3.3807,-3.3807,-3.3807,-1.6853,-1.8501,0.0,0.0,0.0,0.0,0.0,0.0,0.0,0.0,0.0,0.0,0.0,0.0,0.0,0.0,0.0,0.0,0.0,0.0,0.0,0.0,0.0,0.0,0.0,0.0,0.0,0.0,0.0,0.0,0.0,0.0,0.0,0.0,0.0,-3.442,-3.442,-3.442,-3.4464,-3.4551,-3.4464,-3.4437,-3.442,-3.4244,-3.4027,-3.3807,-3.3807,-3.3807,-3.3807,-3.3807,-3.3807,-3.3807,-3.3807,-3.3807,-3.3807,-3.3807,-3.3807,-3.3807,-3.3807,-3.3807,-3.3807,-3.3807,-3.3807,-3.3807,-3.3807,-3.3807,-3.3807,-3.3807,-3.3807,-3.3807,-3.3807,-3.3807,-3.3807,-3.3807,-3.3807,-3.3807,-3.3807,-3.3807,-3.3807,-3.3807,-3.3807,-3.3807,-3.3807,-3.3807,-3.3807,-3.3807,-3.3807,-3.3807,-3.3807,-3.3807,-3.3807,-3.3807,-3.3807,-3.3807,-3.3807,-3.3807,-3.3807,-3.3807,-3.3807,-3.3807,-3.3807,-3.3807,-3.3807,-3.3807,-3.3807,-3.3807,-3.3807,-3.3807,-3.3807,-3.3807,-3.3807,-3.3807,-1.8215,0.0,0.0,0.0,0.0,0.0,0.0,0.0,0.0,0.0,0.0,0.0,0.0,0.0,0.0,0.0,0.0,0.0,0.0,0.0,0.0,0.0,0.0,0.0,0.0,0.0,0.0,0.0,0.0,0.0,0.0,0.0,0.0,0.0,-3.4694,-3.4694,-3.4694,-3.4694,-3.4744,-3.487,-3.4744,-3.4645,-3.4563,-3.4284,-3.416,-3.416,-3.416,-3.416,-3.4148,-3.4012,-3.3961,-3.3948,-3.3842,-3.3868,-3.3948,-3.3842,-3.3881,-3.3935,-3.3842,-3.3807,-3.3807,-3.3807,-3.3807,-3.3807,-3.3807,-3.3807,-3.3807,-3.3807,-3.3807,-3.3807,-3.3807,-3.3807,-3.3807,-3.3807,-3.3807,-3.3807,-3.3807,-3.3807,-3.3807,-3.3807,-3.3807,-3.3807,-3.3807,-3.3807,-3.3807,-3.3807,-3.3807,-3.3807,-3.3807,-3.3807,-3.3807,-3.3807,-3.3807,-3.3807,-3.3807,-3.3807,-3.3807,-3.3807,-3.3807,-3.3807,-3.3807,-3.3807,-3.3807,-3.3807,-3.3807,-3.3807,-3.3807,-3.3807,-3.3807,-3.3807,-3.3807,-3.3623,0.0,0.0,0.0,0.0,0.0,0.0,0.0,0.0,0.0,0.0,0.0,0.0,0.0,0.0,0.0,0.0,0.0,0.0,0.0,0.0,0.0,0.0,0.0,0.0,0.0,0.0,0.0,0.0,0.0,0.0,0.0,0.0,0.0,0.0,-3.4651,-3.4688,-3.4764,-3.4764,-3.4898,0.0,-3.4822,-3.4813,-3.5122,-3.4822,-3.4694,-3.4694,-3.4694,-3.4694,-3.4674,-3.4368,-3.4253,-3.4211,-3.3992,-3.4037,-3.4218,-3.3961,-3.4049,-3.4218,-3.3979,-3.3881,-3.3881,-3.3881,-3.3881,-3.3881,-3.3881,-3.3881,-3.3881,-3.3881,-3.3881,-3.3881,-3.3881,-3.3868,-3.3842,-3.3842,-3.3815,-3.3807,-3.3807,-3.3807,-3.3807,-3.3807,-3.3807,-3.3807,-3.3807,-3.3807,-3.3807,-3.3807,-3.3807,-3.3807,-3.3807,-3.3807,-3.3807,-3.3807,-3.3807,-3.3807,-3.3807,-3.3807,-3.3807,-3.3807,-3.3807,-3.3807,-3.3807,-3.3807,-3.3807,-3.3807,-3.3807,-3.3752,-3.3697,-3.3752,-3.3715,-3.3587,-3.366,-3.3256,0.0,0.0,0.0,0.0,0.0,0.0,0.0,0.0,0.0,0.0,0.0,0.0,0.0,0.0,0.0,0.0,0.0,0.0,0.0,0.0,0.0,0.0,0.0,0.0,0.0,0.0,0.0,0.0,0.0,0.0,0.0,0.0,0.0,-3.4292,-3.4311,-3.4637,-3.532,-3.5339,-3.5361,0.0,-3.4652,-3.4697,-3.5391,-3.4926,-3.4694,-3.4694,-3.4694,-3.4694,-3.4684,-3.4632,-3.4582,-3.4601,-3.4537,-3.4529,-3.4601,-3.4537,-3.4529,-3.4572,-3.4537,-3.4516,-3.4516,-3.4516,-3.4516,-3.4516,-3.4516,-3.4516,-3.4516,-3.4516,-3.4516,-3.4516,-3.4516,-3.4318,-3.4111,-3.4111,-3.3948,-3.3807,-3.3807,-3.3807,-3.3807,-3.3807,-3.3807,-3.3807,-3.3807,-3.3807,-3.3807,-3.3807,-3.3807,-3.3807,-3.3807,-3.3807,-3.3807,-3.3807,-3.3807,-3.3807,-3.3807,-3.3807,-3.3807,-3.3807,-3.3807,-3.3807,-3.3807,-3.3807,-3.3807,-3.3807,-3.3807,-3.3495,-3.2858,-3.3495,-3.3146,-3.1929,-3.2559,-3.243,0.0,0.0,0.0,0.0,0.0,0.0,0.0,0.0,0.0,0.0,0.0,0.0,0.0,0.0,0.0,0.0,0.0,0.0,0.0,0.0,0.0,0.0,0.0,0.0,0.0,0.0,0.0,0.0,0.0,0.0,0.0,0.0,0.0,-3.3564,-3.3583,-3.3795,-3.425,-3.425,-3.425,-3.425,-3.3795,-3.3814,-3.4263,-3.4824,-3.5088,-3.5088,-3.5088,-3.5088,-3.5079,-3.4944,-3.4898,-3.4889,-3.4744,-3.4774,-3.4879,-3.4744,-3.4774,-3.486,-3.4734,-3.4694,-3.4694,-3.4694,-3.4694,-3.4694,-3.4694,-3.4694,-3.4663,-3.4508,-3.4456,-3.4442,-3.4295,-3.4148,-3.4006,-3.4006,-3.3902,-3.3807,-3.3807,-3.3807,-3.3807,-3.3807,-3.3807,-3.3807,-3.3807,-3.3807,-3.3807,-3.3807,-3.3807,-3.3807,-3.3807,-3.3807,-3.3807,-3.3807,-3.3807,-3.3807,-3.3807,-3.3928,-3.3999,-3.3999,-3.4148,-3.4232,-3.4232,-3.4232,-3.4105,-3.382,-3.3807,-3.3403,-3.2601,-3.3023,-3.2596,-3.1415,-3.1825,-3.1586,0.0,0.0,0.0,0.0,0.0,0.0,0.0,0.0,0.0,0.0,0.0,0.0,0.0,0.0,0.0,0.0,0.0,0.0,0.0,0.0,0.0,0.0,0.0,0.0,0.0,0.0,0.0,0.0,0.0,0.0,0.0,0.0,-3.2545,-3.2699,-3.2699,-3.2756,-3.2891,-3.2891,-3.2891,-3.2891,-3.2891,-3.2833,-3.2756,-3.4327,-3.5058,-3.5058,-3.5058,-3.5058,-3.5025,-3.4806,-3.4716,-3.4718,-3.4641,-3.4744,-3.4947,-3.4869,-3.4981,-3.513,-3.4917,-3.4851,-3.4851,-3.4851,-3.4851,-3.4851,-3.4851,-3.4851,-3.4774,-3.4456,-3.4349,-3.4292,-3.4068,-3.3992,-3.3967,-3.4012,-3.3992,-3.3941,-3.3876,-3.3863,-3.3863,-3.3863,-3.3863,-3.3863,-3.3863,-3.3915,-3.3954,-3.3954,-3.3954,-3.3954,-3.3954,-3.3954,-3.3954,-3.3954,-3.3954,-3.3954,-3.3954,-3.4165,-3.43,-3.43,-3.4551,-3.4694,-3.4694,-3.4694,-3.4397,-3.3751,-3.3738,-3.3332,-3.2539,-3.2527,-3.2029,-3.11,-3.1248,-3.0855,0.0,0.0,0.0,0.0,0.0,0.0,0.0,0.0,0.0,0.0,0.0,0.0,0.0,0.0,0.0,0.0,0.0,0.0,0.0,0.0,0.0,0.0,0.0,0.0,0.0,0.0,0.0,0.0,0.0,0.0,0.0,-3.0731,-3.1077,-3.1833,-3.1852,-3.2199,-3.2891,-3.2891,-3.2891,-3.2891,-3.2891,-3.2526,-3.1891,-3.2814,-3.3256,-3.3256,-3.3256,-3.3256,-3.3237,-3.3211,-3.3179,-3.3275,-3.3984,-3.4299,-3.4415,-3.5129,-3.5424,-3.5439,-3.5417,-3.5383,-3.5383,-3.5383,-3.5383,-3.5383,-3.5383,-3.5383,-3.5346,-3.5051,-3.499,-3.4962,-3.4935,-3.4764,-3.4643,-3.487,-3.4754,-3.4497,-3.4206,-3.4147,-3.4147,-3.4147,-3.4147,-3.4147,-3.4147,-3.4398,-3.458,-3.458,-3.458,-3.458,-3.458,-3.458,-3.458,-3.458,-3.458,-3.458,-3.458,-3.4612,-3.4643,-3.4643,-3.4674,-3.4694,-3.4694,-3.4694,-3.4314,-3.3477,-3.3458,-3.3055,-3.2248,-3.22,-3.1382,-2.9945,-3.065,-3.044,0.0,0.0,0.0,0.0,0.0,0.0,0.0,0.0,0.0,0.0,0.0,0.0,0.0,0.0,0.0,0.0,0.0,0.0,0.0,0.0,0.0,0.0,0.0,0.0,0.0,0.0,0.0,0.0,0.0,0.0,-3.0404,-3.0404,-3.0577,-3.0962,-3.0962,-3.1135,-3.15,-3.15,-3.15,-3.15,-3.15,-3.1308,-3.0981,-3.1346,-3.2006,-3.2891,-3.2891,-3.2891,-3.2891,-3.2891,-3.2891,-3.2949,-3.3314,-3.3782,-3.4244,-3.4622,-3.5084,-3.55,-3.55,-3.55,-3.55,-3.55,-3.55,-3.55,-3.55,-3.55,-3.5439,-3.5182,-3.5105,-3.507,-3.4917,-3.4784,-3.4724,-3.486,-3.4793,-3.4704,-3.4696,-3.4584,-3.4486,-3.4486,-3.4486,-3.4486,-3.4486,-3.4593,-3.4694,-3.4694,-3.4694,-3.4694,-3.4694,-3.4694,-3.4694,-3.4694,-3.4694,-3.4694,-3.4694,-3.4851,-3.4926,-3.4926,-3.507,-3.5138,-3.5138,-3.5138,-3.4966,-3.4577,-3.38,-3.276,-3.1468,-3.144,-3.0763,-2.9542,-2.9888,-2.9749,0.0,0.0,0.0,0.0,0.0,0.0,0.0,0.0,0.0,0.0,0.0,0.0,0.0,0.0,0.0,0.0,0.0,0.0,0.0,0.0,0.0,0.0,0.0,0.0,0.0,0.0,0.0,0.0,0.0,0.0,-3.0404,-3.0404,-3.0404,-3.0404,-3.0404,-3.0404,-3.0404,-3.0404,-3.0404,-3.0404,-3.0404,-3.0404,-3.0404,-3.0404,-3.1077,-3.2256,-3.2256,-3.2256,-3.2256,-3.2256,-3.2256,-3.2295,-3.2506,-3.2987,-3.359,-3.3801,-3.441,-3.5173,-3.5173,-3.5308,-3.55,-3.55,-3.55,-3.55,-3.55,-3.55,-3.5439,-3.5182,-3.5105,-3.5043,-3.4841,-3.4793,-3.4832,-3.4898,-3.4908,-3.4944,-3.5079,-3.4944,-3.4793,-3.4793,-3.4793,-3.4793,-3.4793,-3.487,-3.4908,-3.4908,-3.4908,-3.4908,-3.4908,-3.4908,-3.4908,-3.4908,-3.4908,-3.4908,-3.4908,-3.5088,-3.5207,-3.5207,-3.5383,-3.55,-3.55,-3.55,-3.5404,-3.5173,-3.3914,-3.2662,-3.1408,-3.0905,-3.0299,-2.9542,-2.9494,-2.9343,0.0,0.0,0.0,0.0,0.0,0.0,0.0,0.0,0.0,0.0,0.0,0.0,0.0,0.0,0.0,0.0,0.0,0.0,0.0,0.0,0.0,0.0,0.0,0.0,0.0,0.0,0.0,0.0,0.0,0.0,-3.0404,-3.0404,-3.0404,-3.0404,-3.0404,-3.0404,-3.0404,-3.0404,-3.0404,-3.0404,-3.0404,-3.0404,-3.0404,-3.0404,-3.0442,-3.0538,-3.0538,-3.0538,-3.0538,-3.0538,-3.0538,-3.0615,-3.1448,-3.1795,-3.1929,-3.2699,-3.3526,-3.4263,-3.4263,-3.4814,-3.55,-3.55,-3.55,-3.55,-3.55,-3.55,-3.5439,-3.5182,-3.5105,-3.5096,-3.5088,-3.5079,-3.5138,-3.5391,-3.5453,-3.5383,-3.5147,-3.5088,-3.5079,-3.5079,-3.5079,-3.5079,-3.5079,-3.5289,-3.5453,-3.5453,-3.5453,-3.5453,-3.5453,-3.5453,-3.5453,-3.5453,-3.5453,-3.5453,-3.5453,-3.546,-3.5486,-3.5486,-3.5493,-3.55,-3.55,-3.55,-3.5122,-3.4282,-3.3372,-3.2885,-3.2788,-3.0944,-3.0022,-2.9969,-2.9763,-2.957,0.0,0.0,0.0,0.0,0.0,0.0,0.0,0.0,0.0,0.0,0.0,0.0,0.0,0.0,0.0,0.0,0.0,0.0,0.0,0.0,0.0,0.0,0.0,0.0,0.0,0.0,0.0,0.0,0.0,0.0,-2.8794,-2.8794,-2.8794,-2.8794,-2.9294,-2.9833,-3.0385,-3.0404,-3.0404,-3.0404,-3.0404,-3.0404,-3.0404,-3.0404,-3.0404,-3.0404,-3.0404,-3.0404,-3.0404,-3.0404,-3.0404,-3.0423,-3.0731,-3.1212,-3.1737,-3.2025,-3.2641,-3.3372,-3.3372,-3.3564,-3.393,-3.4487,-3.4661,-3.4776,-3.5327,-3.55,-3.5486,-3.5383,-3.5361,-3.5361,-3.5361,-3.5361,-3.5376,-3.5486,-3.55,-3.546,-3.5376,-3.5361,-3.5361,-3.5361,-3.5361,-3.5361,-3.5361,-3.5439,-3.55,-3.55,-3.55,-3.55,-3.55,-3.55,-3.55,-3.55,-3.55,-3.55,-3.55,-3.55,-3.55,-3.55,-3.55,-3.55,-3.55,-3.55,-3.5084,-3.4225,-3.3333,-3.2641,-3.2122,-3.0868,-3.0182,-2.9999,-2.9931,-2.9722,0.0,0.0,0.0,0.0,0.0,0.0,0.0,0.0,0.0,0.0,0.0,0.0,0.0,0.0,0.0,0.0,0.0,0.0,0.0,0.0,0.0,0.0,0.0,0.0,0.0,0.0,0.0,0.0,0.0,0.0,-2.7895,-2.7895,-2.7895,-2.7895,-2.8415,-2.8986,-2.9558,-2.9558,-2.9558,-2.9558,-2.9558,-2.9558,-2.9577,-2.9846,-2.9967,-2.9987,-3.0269,-3.0404,-3.0404,-3.0404,-3.0404,-3.0404,-3.0404,-3.075,-3.125,-3.125,-3.1795,-3.2506,-3.2506,-3.2679,-3.3006,-3.3583,-3.3763,-3.3872,-3.4449,-3.4635,-3.4635,-3.4635,-3.4846,-3.5064,-3.5064,-3.5269,-3.55,-3.55,-3.55,-3.55,-3.55,-3.55,-3.55,-3.55,-3.55,-3.55,-3.55,-3.55,-3.55,-3.55,-3.55,-3.55,-3.55,-3.55,-3.55,-3.55,-3.55,-3.55,-3.55,-3.55,-3.55,-3.55,-3.55,-3.55,-3.55,-3.5212,-3.4795,-3.4205,-3.3083,-3.2237,-3.1698,-3.0733,-3.0163,-2.9999,-2.9931,-2.9765,0.0,0.0,0.0,0.0,0.0,0.0,0.0,0.0,0.0,0.0,0.0,0.0,0.0,0.0,0.0,0.0,0.0,0.0,0.0,0.0,0.0,0.0,0.0,0.0,0.0,0.0,0.0,0.0,0.0,-2.7818,-2.7818,-2.7818,-2.7838,-2.7857,-2.7857,-2.7876,-2.7895,-2.7895,-2.7895,-2.7895,-2.7895,-2.7895,-2.7934,-2.8703,-2.9088,-2.9146,-2.9981,-3.0385,-3.0404,-3.0404,-3.0404,-3.0404,-3.0404,-3.0404,-3.0404,-3.0404,-3.0942,-3.166,-3.166,-3.2179,-3.2833,-3.2852,-3.2852,-3.2872,-3.2891,-3.2891,-3.2891,-3.2891,-3.3506,-3.4167,-3.4167,-3.4795,-3.5423,-3.5423,-3.5442,-3.5462,-3.5462,-3.5481,-3.55,-3.55,-3.55,-3.55,-3.55,-3.55,-3.55,-3.55,-3.55,-3.55,-3.55,-3.55,-3.55,-3.55,-3.55,-3.55,-3.55,-3.55,-3.55,-3.55,-3.55,-3.5481,-3.5462,-3.4641,-3.4186,-3.4129,-3.2526,-3.1698,-3.166,-3.0545,-3.0013,-3.0006,-2.9796,-2.9713,-1.0269,0.0,0.0,0.0,0.0,0.0,0.0,0.0,0.0,0.0,0.0,0.0,0.0,0.0,0.0,0.0,0.0,0.0,0.0,0.0,0.0,0.0,0.0,0.0,0.0,0.0,0.0,0.0,-2.6019,-2.6019,-2.6019,-2.6019,-2.6308,-2.6948,-2.6967,-2.7255,-2.7895,-2.7895,-2.7895,-2.7895,-2.7895,-2.7895,-2.7915,-2.8126,-2.8549,-2.9107,-2.9352,-2.9813,-3.0404,-3.0404,-3.0404,-3.0404,-3.0404,-3.0404,-3.0404,-3.0404,-3.0558,-3.075,-3.075,-3.0904,-3.1192,-3.1833,-3.2025,-3.2141,-3.2718,-3.2891,-3.2891,-3.2891,-3.3064,-3.3256,-3.3256,-3.3449,-3.3622,-3.3622,-3.4103,-3.4564,-3.4564,-3.5045,-3.55,-3.55,-3.55,-3.55,-3.55,-3.55,-3.55,-3.55,-3.55,-3.55,-3.55,-3.55,-3.55,-3.55,-3.55,-3.55,-3.55,-3.55,-3.55,-3.55,-3.55,-3.5212,-3.4584,-3.434,-3.3628,-3.241,-3.1948,-3.1391,-3.075,-3.0432,-3.0299,-3.0273,-3.0032,-2.9924,0.0,0.0,0.0,0.0,0.0,0.0,0.0,0.0,0.0,0.0,0.0,0.0,0.0,0.0,0.0,0.0,0.0,0.0,0.0,0.0,0.0,0.0,0.0,0.0,0.0,0.0,0.0,0.0,-2.5308,-2.5308,-2.5308,-2.5308,-2.5538,-2.6038,-2.6058,-2.6288,-2.6813,-2.6813,-2.6813,-2.6813,-2.6813,-2.6813,-2.6832,-2.7198,-2.7601,-2.8102,-2.88,-2.939,-2.989,-3.025,-3.0404,-3.0404,-3.0404,-3.0404,-3.0404,-3.0404,-3.0404,-3.0404,-3.0404,-3.0404,-3.0481,-3.0981,-3.1154,-3.125,-3.1718,-3.1872,-3.1872,-3.1872,-3.2122,-3.2487,-3.2814,-3.2891,-3.2891,-3.2891,-3.3295,-3.366,-3.366,-3.4064,-3.4635,-3.5365,-3.55,-3.55,-3.55,-3.55,-3.55,-3.55,-3.55,-3.55,-3.55,-3.55,-3.55,-3.55,-3.55,-3.55,-3.55,-3.55,-3.55,-3.55,-3.55,-3.5122,-3.4244,-3.3859,-3.3045,-3.1737,-3.1346,-3.0904,-3.0404,-3.0404,-3.0404,-3.0398,-3.0248,-3.0176,-1.4288,-1.4386,0.0,0.0,0.0,0.0,0.0,-1.6128,0.0,0.0,0.0,0.0,0.0,0.0,0.0,0.0,0.0,0.0,0.0,0.0,0.0,0.0,0.0,0.0,0.0,0.0,-2.5308,-2.5308,-2.5308,-2.5308,-2.5308,-2.5308,-2.5308,-2.5308,-2.5308,-2.5308,-2.5308,-2.5308,-2.5308,-2.5308,-2.5308,-2.5308,-2.5327,-2.6096,-2.6505,-2.6678,-2.8184,-2.8876,-2.903,-2.991,-3.0308,-3.0404,-3.0404,-3.0404,-3.0404,-3.0404,-3.0404,-3.0404,-3.0404,-3.0404,-3.0404,-3.0404,-3.0404,-3.0404,-3.0404,-3.0404,-3.0404,-3.0404,-3.0962,-3.1718,-3.2449,-3.2622,-3.2622,-3.2622,-3.2699,-3.2776,-3.2776,-3.2833,-3.3353,-3.4904,-3.5288,-3.5385,-3.5481,-3.55,-3.55,-3.55,-3.55,-3.55,-3.55,-3.55,-3.55,-3.55,-3.55,-3.55,-3.55,-3.5404,-3.5365,-3.5365,-3.525,-3.4814,-3.3955,-3.3179,-3.2372,-3.1564,-3.0788,-3.0404,-3.0404,-3.0404,-3.0404,-3.0404,-3.0404,-3.0404,-1.5519,-1.6131,-1.6743,0.0,0.0,0.0,0.0,-1.4054,0.0,0.0,0.0,0.0,0.0,0.0,0.0,0.0,0.0,0.0,0.0,0.0,0.0,0.0,0.0,0.0,0.0,0.0,-2.5308,-2.5308,-2.5308,-2.5308,-2.5308,-2.5308,-2.5308,-2.5308,-2.5308,-2.5308,-2.5308,-2.5308,-2.5308,-2.5308,-2.5308,-2.5308,-2.5308,-2.5481,-2.5942,-2.6621,-2.6948,-2.7486,-2.8203,-2.903,-2.9775,-3.0404,-3.0404,-3.0404,-3.0404,-3.0404,-3.0404,-3.0404,-3.0404,-3.0404,-3.0404,-3.0404,-3.0404,-3.0404,-3.0404,-3.0404,-3.0404,-3.0404,-3.0519,-3.0692,-3.0846,-3.0885,-3.0885,-3.0885,-3.1423,-3.1929,-3.1929,-3.2449,-3.3006,-3.3333,-3.3968,-3.468,-3.5385,-3.55,-3.55,-3.55,-3.55,-3.55,-3.55,-3.55,-3.55,-3.55,-3.55,-3.55,-3.55,-3.4853,-3.4449,-3.4449,-3.3795,-3.3045,-3.2218,-3.2025,-3.1525,-3.0673,-3.0481,-3.0404,-3.0404,-3.0404,-3.0404,-3.0404,-3.0404,-3.0404,0.0,-1.7964,-1.8396,-1.7557,0.0,0.0,0.0,0.0,0.0,0.0,0.0,0.0,0.0,0.0,0.0,0.0,0.0,0.0,0.0,0.0,0.0,0.0,0.0,0.0,0.0,0.0,-2.5308,-2.5308,-2.5308,-2.5308,-2.5308,-2.5308,-2.5308,-2.5308,-2.5308,-2.5308,-2.5308,-2.5308,-2.5308,-2.5308,-2.5308,-2.5308,-2.5308,-2.5308,-2.5538,-2.5981,-2.6409,-2.6851,-2.7313,-2.8165,-2.8756,-2.9236,-3.0077,-3.0404,-3.0404,-3.0404,-3.0404,-3.0404,-3.0404,-3.0404,-3.0404,-3.0404,-3.0404,-3.0404,-3.0404,-3.0404,-3.0404,-3.0404,-3.0404,-3.0404,-3.0404,-3.0404,-3.0404,-3.0404,-3.0731,-3.1058,-3.1058,-3.1365,-3.1775,-3.2218,-3.2641,-3.3218,-3.4064,-3.4192,-3.4192,-3.4192,-3.4192,-3.4372,-3.4795,-3.4853,-3.5026,-3.5442,-3.5122,-3.4853,-3.4853,-3.4045,-3.3545,-3.3545,-3.3141,-3.2545,-3.1737,-3.1698,-3.1288,-3.0423,-3.0404,-3.0404,-3.0404,-3.0404,-3.0404,-3.0404,-3.0404,-3.0404,0.0,0.0,0.0,0.0,0.0,-1.7812,0.0,0.0,0.0,-1.6847,0.0,0.0,0.0,0.0,0.0,0.0,0.0,0.0,0.0,0.0,0.0,0.0,0.0,0.0,0.0,0.0,-2.4606,-2.525,-2.4879,-2.4807,-2.5288,-2.5313,-2.5313,-2.5308,-2.5313,-2.5322,-2.5327,-2.533,-2.5339,-2.5339,-2.5339,-2.5339,-2.5339,-2.5339,-2.533,-2.5365,-2.6059,-2.6352,-2.6428,-2.7294,-2.764,-2.7794,-2.9327,-2.9923,-2.9923,-2.9923,-3.0019,-3.0154,-3.0154,-3.0269,-3.0404,-3.0404,-3.0404,-3.0404,-3.0404,-3.0404,-3.0404,-3.0404,-3.0404,-3.0404,-3.0404,-3.0404,-3.0404,-3.0404,-3.0404,-3.0404,-3.0404,-3.0404,-3.0615,-3.1308,-3.1448,-3.1756,-3.2737,-3.2891,-3.2891,-3.2891,-3.2891,-3.3141,-3.3859,-3.3955,-3.4218,-3.4923,-3.4372,-3.3955,-3.3955,-3.316,-3.2679,-3.2679,-3.2506,-3.2141,-3.1487,-3.1448,-3.1115,-3.0404,-3.0404,-3.0404,-3.0404,-3.0404,-3.0404,-3.0404,-3.0404,-3.0404,0.0,0.0,0.0,0.0,-2.0977,0.0,0.0,0.0,-1.6972,-1.4941,0.0,0.0,0.0,0.0,0.0,0.0,0.0,0.0,0.0,0.0,0.0,0.0,0.0,0.0,0.0,0.0,0.0,-2.5077,-2.3313,-2.304,-2.5183,-2.5359,-2.5367,-2.5288,-2.535,-2.5387,-2.5395,-2.5453,-2.5488,-2.5488,-2.5488,-2.5488,-2.5488,-2.5488,-2.5431,-2.5395,-2.548,-2.55,-2.5519,-2.639,-2.6755,-2.6832,-2.7813,-2.8179,-2.8179,-2.8179,-2.8646,-2.9242,-2.9242,-2.9756,-3.0404,-3.0404,-3.0404,-3.0404,-3.0404,-3.0404,-3.0404,-3.0404,-3.0404,-3.0404,-3.0404,-3.0404,-3.0404,-3.0404,-3.0404,-3.0404,-3.0404,-3.0404,-3.0423,-3.0538,-3.0558,-3.1058,-3.2622,-3.2891,-3.2891,-3.2891,-3.2891,-3.2949,-3.3026,-3.3045,-3.3083,-3.3179,-3.3103,-3.3045,-3.3045,-3.2295,-3.1833,-3.1833,-3.1115,-3.0635,-3.0558,-3.0558,-3.05,-3.0404,-3.0404,-3.0404,-3.0404,-3.0404,-3.0404,-3.0404,-3.0404,-3.0404,0.0,0.0,0.0,0.0,0.0,0.0,0.0,0.0,-1.6465,0.0,0.0,0.0,0.0,0.0,0.0,0.0,0.0,0.0,0.0,0.0,0.0,0.0,0.0,0.0,0.0,0.0,0.0,0.0,0.0,-2.2028,-2.4529,-2.4681,-2.492,-2.5392,-2.5444,-2.5462,-2.5465,-2.5498,-2.5491,-2.5491,-2.5491,-2.5491,-2.5491,-2.5491,-2.5476,-2.5465,-2.5462,-2.5444,-2.5446,-2.5815,-2.597,-2.6008,-2.6354,-2.7071,-2.7895,-2.7895,-2.8107,-2.8472,-2.8934,-2.9338,-2.9737,-3.0231,-3.0404,-3.0404,-3.0404,-3.0404,-3.0404,-3.0404,-3.0404,-3.0404,-3.0404,-3.0404,-3.0404,-3.0404,-3.0404,-3.0404,-3.0404,-3.0404,-3.0404,-3.0404,-3.0404,-3.0615,-3.1327,-3.1442,-3.1442,-3.1442,-3.1442,-3.1635,-3.2141,-3.2199,-3.2372,-3.2852,-3.2487,-3.2199,-3.2199,-3.1423,-3.0942,-3.0942,-3.0596,-3.0404,-3.0404,-3.0404,-3.0404,-3.0404,-3.0404,-3.0404,-3.0404,-3.0404,-3.0404,-3.0404,-3.0404,-3.0404,-2.4043,0.0,0.0,0.0,0.0,0.0,0.0,0.0,0.0,0.0,0.0,0.0,0.0,0.0,0.0,0.0,0.0,0.0,0.0,0.0,0.0,0.0,0.0,0.0,0.0,0.0,0.0,0.0,0.0,0.0,-2.4022,-2.4213,-2.4627,-2.5471,-2.5526,-2.5535,-2.5535,-2.5549,-2.5556,-2.5556,-2.5556,-2.5556,-2.5556,-2.5556,-2.5549,-2.5535,-2.5535,-2.5526,-2.5491,-2.5491,-2.5491,-2.5491,-2.5491,-2.6214,-2.7238,-2.7229,-2.7344,-2.7621,-2.8203,-2.8723,-2.9242,-3.0115,-3.0404,-3.0404,-3.0404,-3.0404,-3.0404,-3.0404,-3.0404,-3.0404,-3.0404,-3.0404,-3.0404,-3.0404,-3.0404,-3.0416,-3.0422,-3.0428,-3.0428,-3.0428,-3.0441,-3.0456,-3.0433,-3.0428,-3.0428,-3.0428,-3.0441,-3.0679,-3.1316,-3.1393,-3.1625,-3.2199,-3.1728,-3.1378,-3.1378,-3.0794,-3.0428,-3.0428,-3.0408,-3.0404,-3.0404,-3.0404,-3.0404,-3.0404,-3.0404,-3.0404,-3.0404,-3.0404,-3.0404,-3.0404,-3.0404,-3.0404,0.0,0.0,0.0,-2.1484,0.0,0.0,0.0,0.0,-1.8945,0.0,0.0,0.0,0.0,0.0,0.0,0.0,0.0,0.0,0.0,0.0,0.0,0.0,0.0,0.0,0.0,0.0,0.0,0.0,0.0,0.0,-2.3949,-2.4269,-2.4664,-2.5474,-2.5561,-2.5599,-2.5599,-2.5661,-2.5683,-2.5683,-2.5683,-2.5683,-2.5683,-2.5683,-2.566,-2.5599,-2.5599,-2.5559,-2.5491,-2.5491,-2.5491,-2.5491,-2.5491,-2.5527,-2.5573,-2.5499,-2.5972,-2.6659,-2.6678,-2.7736,-2.9242,-3.0115,-3.0404,-3.0404,-3.0404,-3.0404,-3.0404,-3.0404,-3.0404,-3.0404,-3.0404,-3.0404,-3.0404,-3.0404,-3.0404,-3.0425,-3.0486,-3.0494,-3.0494,-3.0494,-3.0556,-3.0571,-3.0511,-3.0494,-3.0494,-3.0494,-3.0544,-3.0597,-3.0636,-3.0636,-3.0655,-3.0675,-3.0595,-3.0533,-3.0533,-3.0513,-3.0494,-3.0494,-3.0449,-3.0404,-3.0404,-3.0404,-3.0404,-3.0404,-3.0404,-3.0404,-3.0404,-3.0404,-3.0404,-3.0404,-3.0404,-3.0404,0.0,0.0,-2.5156,-2.2832,0.0,0.0,0.0,0.0,0.0,0.0,0.0,0.0,0.0,0.0,0.0,0.0,0.0,0.0,0.0,0.0,0.0,0.0,0.0,0.0,0.0,0.0,0.0,0.0,0.0,0.0,0.0,-2.2924,-2.394,-2.4755,-2.5347,-2.5661,-2.5661,-2.5683,-2.5703,-2.5703,-2.5703,-2.5703,-2.5703,-2.5703,-2.5683,-2.5661,-2.5661,-2.5659,-2.5633,-2.5633,-2.5633,-2.5633,-2.5633,-2.5604,-2.5558,-2.5484,-2.5631,-2.5945,-2.6474,-2.7758,-2.9212,-2.9457,-2.9929,-3.0404,-3.0404,-3.0404,-3.0404,-3.0404,-3.0404,-3.0404,-3.0404,-3.0419,-3.0472,-3.0472,-3.0494,-3.0541,-3.0554,-3.0561,-3.0561,-3.0561,-3.0584,-3.0594,-3.0568,-3.0592,-3.0628,-3.0571,-3.0587,-3.0603,-3.0603,-3.0603,-3.0603,-3.0603,-3.0578,-3.0561,-3.0561,-3.0561,-3.0561,-3.0561,-3.0503,-3.0472,-3.0472,-3.0422,-3.0404,-3.0404,-3.0404,-3.0404,-3.0404,-3.0404,-3.0404,-3.0404,-3.0404,-3.0404,-2.5703,-2.5703,0.0,-2.3535,-2.2285,0.0,-1.8926,0.0,0.0,0.0,0.0,0.0,0.0,0.0,0.0,0.0,0.0,0.0,0.0,0.0,0.0,0.0,0.0,0.0,0.0,0.0,-1.4774,-1.6513,0.0,0.0,0.0,0.0,-2.3535,-2.4375,-2.5254,-2.5703,-2.5703,-2.5703,-2.5703,-2.5703,-2.5703,-2.5703,-2.5703,-2.5703,-2.5703,-2.5703,-2.5703,-2.5703,-2.5703,-2.5703,-2.5703,-2.5703,-2.5703,-2.5662,-2.5632,-2.5559,-2.5529,-2.562,-2.6453,-2.7651,-2.8846,-2.9089,-2.9762,-3.0477,-3.0477,-3.0477,-3.0477,-3.0477,-3.0477,-3.0477,-3.0477,-3.0503,-3.0537,-3.0537,-3.0565,-3.0611,-3.0638,-3.0643,-3.0643,-3.0643,-3.0661,-3.0687,-3.0648,-3.0708,-3.074,-3.0652,-3.0681,-3.0712,-3.0712,-3.0712,-3.0712,-3.0712,-3.0657,-3.0643,-3.0643,-3.06,-3.0617,-3.0624,-3.0571,-3.0537,-3.0537,-3.0485,-3.0477,-3.0477,-3.0477,-3.0477,-3.0477,-3.0451,-3.0449,-3.0425,-3.0408,-3.0404]},{"header":{"parameterUnit":"m.s-1","parameterCategory":1,"la1":30.6,"la2":29.2853,"lo1":-89.7004,"lo2":-87.6739,"dy":0.0162,"dx":0.0183,"nx":112,"ny":82,"refTime":"2024-07-13T18:00:00:Z","depth":0,"parameterNumber":3,"parameterNumberName":"V-component_of_WINDS"},"data":[0.0,0.0,0.0,0.0,0.0,0.0,0.0,0.0,0.0,0.0,0.0,0.0,0.0,0.0,0.0,0.0,0.0,0.0,0.0,0.0,0.0,0.0,0.0,0.0,0.0,0.0,0.0,0.0,0.0,0.0,0.0,0.0,0.0,0.0,0.0,0.0,0.0,0.0,0.0,0.0,0.0,0.0,0.0,0.0,0.0,0.0,0.0,0.0,0.0,0.0,0.0,0.0,0.0,0.0,0.0,0.0,0.0,0.0,0.0,0.0,0.0,0.0,0.0,0.0,0.0,0.0,0.0,0.0,0.0,0.0,0.0,0.0,0.0,0.0,0.0,0.0,0.0,0.0,0.0,0.0,0.0,0.0,0.0,0.0,0.0,0.0,0.0,0.0,0.0,0.0,0.0,-1.386,-1.5547,-1.6325,-1.5862,-1.5224,-1.402,-1.2042,0.0,0.0,0.0,0.0,0.0,0.0,0.0,0.0,0.0,0.0,0.0,0.0,0.0,0.0,0.0,0.0,0.0,0.0,0.0,0.0,0.0,0.0,0.0,0.0,0.0,0.0,0.0,0.0,0.0,0.0,0.0,0.0,0.0,0.0,0.0,0.0,0.0,0.0,0.0,0.0,0.0,0.0,0.0,0.0,0.0,0.0,0.0,0.0,0.0,0.0,0.0,0.0,0.0,0.0,0.0,0.0,0.0,0.0,0.0,0.0,0.0,0.0,0.0,0.0,0.0,0.0,0.0,0.0,0.0,0.0,0.0,0.0,0.0,0.0,0.0,0.0,0.0,0.0,0.0,0.0,0.0,0.0,0.0,0.0,0.0,0.0,0.0,0.0,0.0,0.0,0.0,0.0,0.0,0.0,0.0,0.0,0.0,0.0,0.0,0.0,0.0,0.0,0.0,0.0,-1.1474,-1.4367,-1.5761,-1.6234,-1.5543,-1.5267,-1.4613,-1.3381,0.0,0.0,0.0,0.0,0.0,0.0,0.0,0.0,0.0,0.0,0.0,0.0,0.0,0.0,0.0,0.0,0.0,0.0,0.0,0.0,0.0,0.0,0.0,0.0,0.0,0.0,0.0,0.0,0.0,0.0,0.0,0.0,0.0,0.0,0.0,0.0,0.0,0.0,0.0,0.0,0.0,0.0,0.0,0.0,0.0,0.0,0.0,0.0,0.0,0.0,0.0,0.0,0.0,0.0,0.0,0.0,0.0,0.0,0.0,0.0,0.0,0.0,0.0,0.0,0.0,0.0,0.0,0.0,0.0,0.0,0.0,0.0,0.0,0.0,0.0,0.0,0.0,0.0,0.0,0.0,0.0,0.0,0.0,0.0,0.0,0.0,0.0,0.0,0.0,0.0,0.0,0.0,0.0,0.0,0.0,0.0,0.0,0.0,0.0,0.0,0.0,0.0,0.0,-1.1409,-1.2861,-1.4255,-1.5685,-1.6105,-1.5145,-1.48,-1.4003,-1.2594,-1.0488,0.0,0.0,0.0,0.0,0.0,0.0,0.0,0.0,0.0,0.0,0.0,0.0,0.0,0.0,0.0,0.0,0.0,0.0,0.0,0.0,0.0,0.0,0.0,0.0,0.0,0.0,0.0,0.0,0.0,0.0,0.0,0.0,0.0,0.0,0.0,0.0,0.0,0.0,0.0,0.0,0.0,0.0,0.0,0.0,0.0,0.0,0.0,0.0,0.0,0.0,0.0,0.0,0.0,0.0,0.0,0.0,0.0,0.0,0.0,0.0,0.0,0.0,0.0,0.0,0.0,0.0,0.0,0.0,0.0,0.0,0.0,0.0,0.0,0.0,0.0,0.0,0.0,0.0,0.0,0.0,0.0,0.0,0.0,0.0,0.0,0.0,0.0,0.0,0.0,0.0,0.0,0.0,0.0,0.0,0.0,0.0,0.0,0.0,0.0,0.0,0.0,0.0,-1.3201,-1.432,-1.4457,-1.5679,-1.6023,-1.4898,-1.4209,-1.3184,-1.1704,-0.9766,0.0,0.0,0.0,0.0,0.0,0.0,0.0,0.0,0.0,0.0,0.0,0.0,0.0,0.0,0.0,0.0,0.0,0.0,0.0,0.0,0.0,0.0,0.0,0.0,0.0,0.0,0.0,0.0,0.0,0.0,0.0,0.0,0.0,0.0,0.0,0.0,0.0,0.0,0.0,0.0,0.0,0.0,0.0,0.0,0.0,0.0,0.0,0.0,0.0,0.0,0.0,0.0,0.0,0.0,0.0,0.0,0.0,0.0,0.0,0.0,0.0,0.0,0.0,0.0,0.0,0.0,0.0,0.0,0.0,0.0,0.0,0.0,0.0,0.0,0.0,0.0,0.0,0.0,0.0,0.0,0.0,0.0,0.0,0.0,0.0,0.0,0.0,0.0,0.0,0.0,0.0,0.0,0.0,0.0,0.0,0.0,0.0,0.0,0.0,0.0,0.0,0.0,-1.3744,-1.5237,-1.5535,-1.6144,-1.6023,-1.4898,-1.3672,-1.2592,-1.1665,-0.9199,0.0,0.0,0.0,0.0,0.0,0.0,0.0,0.0,0.0,0.0,0.0,0.0,0.0,0.0,0.0,0.0,0.0,0.0,0.0,0.0,0.0,0.0,0.0,0.0,0.0,0.0,0.0,0.0,0.0,0.0,0.0,0.0,0.0,0.0,0.0,0.0,0.0,0.0,0.0,0.0,0.0,0.0,0.0,0.0,0.0,0.0,0.0,0.0,0.0,0.0,0.0,0.0,0.0,0.0,0.0,0.0,0.0,0.0,0.0,0.0,0.0,0.0,0.0,0.0,0.0,0.0,0.0,0.0,0.0,0.0,0.0,0.0,0.0,0.0,0.0,0.0,0.0,0.0,0.0,0.0,0.0,0.0,0.0,0.0,0.0,0.0,0.0,0.0,0.0,0.0,0.0,0.0,0.0,0.0,0.0,0.0,0.0,0.0,0.0,0.0,0.0,0.0,-1.2955,-1.4512,0.0,-1.5766,-1.591,-1.4498,-1.3909,-1.2832,-1.0909,0.0,0.0,0.0,0.0,0.0,0.0,0.0,0.0,0.0,0.0,0.0,0.0,0.0,0.0,0.0,0.0,0.0,0.0,0.0,0.0,0.0,0.0,0.0,0.0,0.0,0.0,0.0,0.0,0.0,0.0,0.0,0.0,0.0,0.0,0.0,0.0,0.0,0.0,0.0,0.0,0.0,0.0,0.0,0.0,0.0,0.0,0.0,0.0,0.0,0.0,0.0,0.0,0.0,0.0,0.0,0.0,0.0,0.0,0.0,0.0,0.0,0.0,0.0,0.0,0.0,0.0,0.0,0.0,0.0,0.0,0.0,0.0,0.0,0.0,0.0,0.0,0.0,0.0,0.0,0.0,0.0,0.0,0.0,0.0,0.0,0.0,0.0,0.0,0.0,0.0,0.0,0.0,0.0,0.0,0.0,0.0,0.0,0.0,0.0,0.0,0.0,0.0,-1.0372,-1.2706,-1.4192,0.0,-1.5341,-1.5495,-1.4021,-1.3656,-1.2574,-1.044,0.0,0.0,0.0,0.0,0.0,0.0,0.0,0.0,0.0,0.0,0.0,0.0,0.0,0.0,0.0,0.0,0.0,0.0,0.0,0.0,0.0,0.0,0.0,0.0,0.0,0.0,0.0,0.0,0.0,0.0,0.0,0.0,0.0,0.0,0.0,0.0,0.0,0.0,0.0,0.0,0.0,0.0,0.0,0.0,0.0,0.0,0.0,0.0,0.0,0.0,0.0,0.0,0.0,0.0,0.0,0.0,0.0,0.0,0.0,0.0,0.0,0.0,0.0,0.0,0.0,0.0,0.0,0.0,0.0,0.0,0.0,0.0,0.0,0.0,0.0,0.0,0.0,0.0,0.0,0.0,0.0,0.0,0.0,0.0,0.0,0.0,0.0,0.0,0.0,0.0,0.0,0.0,0.0,0.0,0.0,0.0,0.0,0.0,0.0,0.0,0.0,0.0,-1.1007,-1.3167,-1.4549,-1.439,-1.4885,-1.4733,-1.3596,-1.271,-1.1667,0.0,0.0,0.0,0.0,0.0,0.0,0.0,0.0,0.0,0.0,0.0,0.0,0.0,0.0,0.0,0.0,0.0,0.0,0.0,0.0,0.0,0.0,0.0,0.0,0.0,0.0,0.0,0.0,0.0,0.0,0.0,0.0,0.0,0.0,0.0,0.0,0.0,0.0,0.0,0.0,0.0,0.0,0.0,0.0,0.0,0.0,0.0,0.0,0.0,0.0,0.0,0.0,0.0,0.0,0.0,0.0,0.0,0.0,0.0,0.0,0.0,0.0,0.0,0.0,0.0,0.0,0.0,0.0,0.0,0.0,0.0,0.0,0.0,0.0,0.0,0.0,0.0,0.0,0.0,0.0,0.0,0.0,0.0,0.0,0.0,0.0,0.0,0.0,0.0,0.0,0.0,0.0,0.0,0.0,0.0,0.0,0.0,0.0,0.0,0.0,0.0,0.0,0.0,-1.0434,-1.2478,-1.3816,-1.3766,-1.4154,-1.4156,-1.3545,-1.3246,-1.2314,-1.042,0.0,0.0,0.0,0.0,0.0,0.0,0.0,0.0,0.0,0.0,0.0,0.0,0.0,0.0,0.0,0.0,0.0,0.0,0.0,0.0,0.0,0.0,0.0,0.0,0.0,0.0,0.0,0.0,0.0,0.0,0.0,0.0,0.0,0.0,0.0,0.0,0.0,0.0,0.0,0.0,0.0,0.0,0.0,0.0,0.0,0.0,0.0,0.0,0.0,0.0,0.0,0.0,0.0,0.0,0.0,0.0,0.0,0.0,0.0,0.0,0.0,0.0,0.0,0.0,0.0,0.0,0.0,0.0,0.0,0.0,0.0,0.0,0.0,0.0,0.0,0.0,0.0,0.0,0.0,0.0,0.0,0.0,0.0,0.0,0.0,0.0,0.0,0.0,0.0,0.0,0.0,0.0,0.0,0.0,0.0,0.0,0.0,0.0,0.0,0.0,0.0,0.0,-1.0195,-1.2021,-1.3262,-1.3262,-1.3486,-1.3525,-1.3281,-1.3262,-1.248,-1.0645,0.0,0.0,0.0,0.0,0.0,0.0,0.0,0.0,0.0,0.0,0.0,0.0,0.0,0.0,0.0,0.0,0.0,0.0,0.0,0.0,0.0,0.0,0.0,0.0,0.0,0.0,0.0,0.0,0.0,0.0,0.0,0.0,0.0,0.0,0.0,0.0,0.0,0.0,0.0,0.0,0.0,0.0,0.0,0.0,0.0,0.0,0.0,0.0,0.0,0.0,0.0,0.0,0.0,0.0,0.0,0.0,0.0,0.0,0.0,0.0,0.0,0.0,0.0,0.0,0.0,0.0,0.0,0.0,0.0,0.0,0.0,0.0,0.0,0.0,0.0,0.0,0.0,0.0,0.0,0.0,0.0,0.0,0.0,0.0,0.0,0.0,0.0,0.0,0.0,0.0,0.0,0.0,0.0,0.0,0.0,0.0,0.0,0.0,0.0,0.0,0.0,0.0,-1.0244,-1.1848,-1.2905,-1.2905,-1.2905,-1.2905,-1.2905,-1.2905,-1.2357,-1.1055,0.0,0.0,0.0,0.0,0.0,0.0,0.0,0.0,0.0,0.0,0.0,0.0,0.0,0.0,0.0,0.0,0.0,0.0,0.0,0.0,0.0,0.0,0.0,0.0,0.0,0.0,0.0,0.0,0.0,0.0,0.0,0.0,0.0,0.0,0.0,0.0,0.0,0.0,0.0,0.0,0.0,0.0,0.0,0.0,0.0,0.0,0.0,0.0,0.0,0.0,0.0,0.0,0.0,0.0,0.0,0.0,0.0,0.0,0.0,0.0,-0.9469,0.0,0.0,0.0,0.0,0.0,0.0,0.0,0.0,0.0,0.0,0.0,0.0,0.0,0.0,0.0,0.0,0.0,0.0,0.0,0.0,0.0,0.0,0.0,0.0,0.0,0.0,0.0,0.0,0.0,0.0,0.0,0.0,0.0,0.0,0.0,0.0,0.0,0.0,0.0,0.0,0.0,-1.0625,-1.2034,-1.2905,-1.2905,-1.2905,-1.2905,-1.2905,-1.2905,-1.2484,-1.1506,0.0,0.0,0.0,0.0,0.0,0.0,0.0,0.0,0.0,0.0,0.0,0.0,0.0,0.0,0.0,0.0,0.0,0.0,0.0,0.0,0.0,0.0,0.0,0.0,0.0,0.0,0.0,0.0,0.0,0.0,0.0,0.0,0.0,0.0,0.0,0.0,0.0,0.0,0.0,0.0,0.0,0.0,0.0,0.0,0.0,0.0,0.0,0.0,0.0,0.0,0.0,0.0,0.0,0.0,0.0,0.0,0.0,0.0,0.0,0.0,0.0,-1.0809,0.0,0.0,0.0,0.0,0.0,0.0,0.0,0.0,0.0,0.0,0.0,0.0,0.0,0.0,0.0,0.0,0.0,0.0,0.0,0.0,0.0,0.0,0.0,0.0,0.0,0.0,0.0,0.0,0.0,0.0,0.0,0.0,0.0,0.0,0.0,0.0,0.0,0.0,0.0,0.0,-1.0771,-1.2061,-1.2905,-1.2905,-1.2905,-1.2905,-1.2905,-1.2905,-1.2621,-1.1924,-1.1064,0.0,0.0,0.0,0.0,0.0,0.0,0.0,0.0,0.0,0.0,0.0,0.0,0.0,0.0,0.0,0.0,0.0,0.0,0.0,0.0,0.0,0.0,0.0,0.0,0.0,0.0,0.0,0.0,0.0,0.0,0.0,0.0,0.0,0.0,0.0,0.0,0.0,0.0,0.0,0.0,0.0,0.0,0.0,0.0,0.0,0.0,0.0,0.0,0.0,0.0,0.0,0.0,0.0,-1.2335,-1.3444,-1.4803,-1.5013,-1.5312,-1.5517,-1.3401,-1.2759,-1.3169,0.0,0.0,0.0,0.0,0.0,0.0,0.0,0.0,0.0,0.0,0.0,0.0,0.0,0.0,0.0,0.0,0.0,0.0,0.0,0.0,0.0,0.0,0.0,0.0,0.0,-1.3359,-1.3003,0.0,0.0,0.0,0.0,0.0,0.0,0.0,0.0,0.0,0.0,0.0,0.0,-1.1016,-1.2158,-1.2905,-1.2905,-1.2905,-1.2905,-1.2905,-1.2905,-1.2725,-1.234,-1.157,-1.0761,0.0,0.0,0.0,0.0,0.0,0.0,0.0,0.0,0.0,0.0,0.0,0.0,0.0,0.0,0.0,0.0,0.0,0.0,0.0,0.0,0.0,0.0,0.0,0.0,0.0,0.0,0.0,0.0,0.0,0.0,0.0,0.0,-0.5611,-0.5981,0.0,0.0,0.0,0.0,0.0,0.0,0.0,0.0,0.0,0.0,0.0,0.0,0.0,-1.1078,-1.2399,-1.3753,-1.4469,-1.4523,-1.5569,-1.6186,-1.6396,-1.6441,-1.6473,-1.6512,-1.6158,0.0,-1.4434,-1.3238,0.0,0.0,0.0,0.0,0.0,0.0,0.0,0.0,0.0,0.0,0.0,0.0,0.0,0.0,0.0,0.0,0.0,0.0,0.0,0.0,0.0,0.0,-1.4365,-1.4016,-1.3977,-1.3929,0.0,-1.2412,-1.1165,-1.0224,-0.9727,0.0,0.0,0.0,0.0,0.0,0.0,0.0,-1.1872,-1.2539,-1.2905,-1.2905,-1.2905,-1.2905,-1.2905,-1.2905,-1.2876,-1.2803,-1.2334,-1.1814,-1.1371,-1.0117,0.0,0.0,0.0,0.0,0.0,0.0,0.0,0.0,0.0,0.0,0.0,0.0,0.0,0.0,0.0,0.0,0.0,0.0,0.0,0.0,0.0,0.0,0.0,0.0,0.0,0.0,0.0,0.0,0.0,-0.5447,-0.6211,-0.6861,-0.6935,-0.6794,0.0,0.0,0.0,0.0,0.0,0.0,0.0,0.0,0.0,-1.1744,-1.289,-1.3631,-1.3829,-1.5473,-1.6312,-1.6389,-1.7042,-1.7637,-1.8164,-1.8164,-1.8164,-1.8164,-1.8164,-1.7578,-1.6494,-1.5234,-1.4294,-1.3584,0.0,0.0,0.0,0.0,-1.2353,-1.2671,-1.2486,-1.2725,0.0,-1.2064,0.0,0.0,0.0,0.0,0.0,0.0,0.0,0.0,0.0,0.0,0.0,-1.4844,-1.4825,-1.4825,-1.4825,-1.4072,-1.314,0.0,-1.1748,-1.124,-1.0577,0.0,0.0,0.0,0.0,0.0,-1.249,-1.2969,-1.3232,-1.3232,-1.3018,-1.2905,-1.2905,-1.2905,-1.2905,-1.2905,-1.2705,-1.2393,-1.1953,-1.1152,-1.0205,0.0,0.0,0.0,0.0,0.0,0.0,0.0,0.0,0.0,0.0,0.0,0.0,0.0,0.0,0.0,0.0,0.0,0.0,0.0,0.0,0.0,0.0,0.0,0.0,0.0,0.0,0.0,0.0,-0.6286,-0.7141,-0.7654,-0.8236,-0.8334,0.0,0.0,0.0,0.0,0.0,0.0,-1.1972,-1.2549,-1.3199,-1.3956,-1.5387,-1.6001,-1.5731,-1.7063,-1.7777,-1.7895,-1.8119,-1.8609,-1.9287,-1.9287,-1.9287,-1.9287,-1.9287,-1.8926,-1.8232,-1.6966,-1.5919,-1.5097,-1.4629,-1.4241,-1.3994,-1.3994,-1.4258,-1.4582,-1.4475,-1.4746,-1.4979,-1.403,0.0,-1.3433,-1.2768,0.0,0.0,0.0,0.0,-1.4228,-1.4513,-1.4951,-1.5361,-1.5644,-1.5722,-1.5683,-1.5605,-1.5332,-1.4863,0.0,-1.3496,-1.2988,-1.2357,0.0,0.0,0.0,0.0,-1.2691,-1.3145,-1.3379,-1.3506,-1.3506,-1.3135,-1.2905,-1.2905,-1.2905,-1.2905,-1.2905,-1.2905,-1.2734,-1.2389,-1.1973,-1.1172,-0.9962,0.0,0.0,0.0,0.0,0.0,0.0,0.0,0.0,0.0,0.0,0.0,0.0,0.0,0.0,0.0,0.0,0.0,0.0,0.0,0.0,0.0,0.0,0.0,0.0,0.0,0.0,0.0,0.0,0.0,-0.8407,-1.0208,0.0,0.0,0.0,0.0,-1.1722,-1.2419,-1.3088,-1.3636,-1.4113,-1.5078,-1.6562,-1.7059,-1.7875,-1.9035,-1.9156,-1.9221,-1.9221,-1.9204,-1.9251,-1.9287,-1.9287,-1.9287,-1.9287,-1.9287,-1.9268,-1.9131,-1.7842,-1.6829,-1.5987,-1.5518,-1.5303,-1.5312,-1.5312,-1.5596,-1.5938,-1.5488,-1.5635,-1.6016,-1.5958,-1.5654,-1.5273,-1.5234,-1.4951,0.0,0.0,-1.5302,-1.5968,-1.5987,-1.6299,-1.6609,-1.6629,-1.6629,-1.6521,-1.6153,-1.6046,-1.5772,0.0,-1.4365,-1.4026,-1.3987,0.0,-1.3486,-1.388,-1.3646,-1.3568,-1.3987,-1.3714,-1.3506,-1.3506,-1.3135,-1.2905,-1.2905,-1.2905,-1.2905,-1.2905,-1.2905,-1.2895,-1.2876,-1.2432,-1.1745,-1.0839,-0.9609,0.0,0.0,0.0,0.0,0.0,0.0,0.0,0.0,0.0,0.0,0.0,0.0,0.0,0.0,0.0,0.0,0.0,0.0,0.0,0.0,0.0,0.0,0.0,0.0,0.0,0.0,0.0,0.0,-1.0411,-1.1805,0.0,0.0,-1.2922,-1.3751,-1.4285,-1.4985,-1.5813,-1.6822,-1.7061,-1.7333,-1.7749,-1.8582,-1.9051,-1.9122,-1.9793,-2.0155,-2.0155,-2.0155,-2.0155,-2.0155,-2.0155,-2.0155,-2.0155,-2.0155,-1.9951,-1.9658,-1.9199,-1.8662,-1.81,-1.7363,-1.708,-1.7021,-1.6434,-1.6543,-1.6877,-1.6416,-1.6543,-1.6897,-1.6582,-1.6356,-1.6229,-1.6229,-1.6132,-1.6005,-1.6005,-1.626,-1.6494,-1.6494,-1.658,-1.6697,-1.6697,-1.6697,-1.6658,-1.6523,-1.6269,-1.5997,-1.5694,-1.5039,-1.4551,-1.4551,-1.4172,-1.3938,-1.4085,-1.4248,-1.4385,-1.4531,-1.4424,-1.4219,-1.3919,-1.3535,-1.3174,-1.2925,-1.2905,-1.2905,-1.2905,-1.2617,-1.2461,-1.2461,-1.2031,-1.1523,-1.0918,-1.0195,-0.9241,0.0,0.0,0.0,0.0,0.0,0.0,0.0,0.0,0.0,0.0,0.0,0.0,0.0,0.0,0.0,0.0,0.0,0.0,0.0,0.0,0.0,0.0,0.0,0.0,0.0,0.0,-1.1707,-1.1666,-1.3481,-1.4484,-1.3755,-1.498,-1.6051,-1.6628,-1.7225,-1.7959,-1.8773,-1.8958,-1.8987,-1.8851,-1.9813,-2.0139,-1.9734,-2.0466,-2.0791,-2.0791,-2.0674,-2.0605,-2.0605,-2.0605,-2.0605,-2.0605,-2.0605,-2.0439,-2.0137,-2.0137,-1.9971,-1.9639,-1.8779,-1.835,-1.812,-1.7545,-1.7438,-1.7549,-1.7266,-1.7353,-1.7549,-1.7223,-1.7126,-1.7106,-1.697,-1.7019,-1.7096,-1.696,-1.7019,-1.7126,-1.7126,-1.7126,-1.7126,-1.7126,-1.7126,-1.7087,-1.6982,-1.6719,-1.6496,-1.6318,-1.5596,-1.5,-1.5,-1.4728,-1.4533,-1.4533,-1.4814,-1.5,-1.5,-1.4873,-1.4678,-1.4385,-1.3821,-1.3389,-1.314,-1.2983,-1.2905,-1.2905,-1.2607,-1.2451,-1.2451,-1.2021,-1.1582,-1.1143,-1.043,-0.9648,-0.8799,0.0,0.0,0.0,0.0,0.0,0.0,0.0,0.0,0.0,0.0,0.0,0.0,0.0,0.0,0.0,0.0,0.0,0.0,0.0,0.0,0.0,0.0,0.0,-1.0019,-1.1605,-1.2713,-1.2158,-1.5258,-1.6647,-1.4652,-1.697,-1.8627,-1.8637,-1.9072,-1.9316,-1.9326,-1.9727,-1.9951,-1.9951,-2.0761,-2.121,-2.121,-2.121,-2.121,-2.121,-2.0801,-2.0625,-2.0625,-2.0615,-2.0605,-2.0605,-2.0605,-2.0605,-2.0605,-2.0605,-2.0605,-2.0517,-1.9639,-1.9053,-1.8637,-1.8627,-1.8364,-1.8047,-1.8037,-1.8027,-1.8027,-1.8018,-1.8008,-1.7939,-1.7529,-1.7686,-1.793,-1.7519,-1.7695,-1.8008,-1.8008,-1.8008,-1.8008,-1.8008,-1.8008,-1.79,-1.749,-1.7393,-1.7256,-1.6804,-1.6015,-1.5449,-1.543,-1.542,-1.541,-1.541,-1.541,0.0,-1.541,-1.5059,-1.4805,-1.4813,-1.4043,-1.3535,-1.3506,-1.3135,-1.2915,-1.2905,-1.2895,-1.2886,-1.2886,-1.2418,-1.2002,-1.1616,-1.0312,-0.9631,-0.9612,0.0,0.0,0.0,0.0,0.0,0.0,0.0,0.0,0.0,0.0,0.0,0.0,0.0,0.0,0.0,0.0,0.0,0.0,0.0,0.0,0.0,0.0,-1.2147,-1.1043,-1.3612,-1.5337,-1.4554,-1.6718,-1.8186,-1.7937,-1.8636,-1.9238,-1.9541,-1.9668,-1.9883,-2.0233,-2.0635,-2.083,-2.083,-2.1416,-2.1709,-2.1709,-2.1709,-2.1709,-2.1699,-2.126,-2.1055,-2.1045,-2.0713,-2.0605,-2.0605,-2.0605,-2.0605,-2.0605,-2.0605,-2.0605,-2.0546,-1.9951,-1.9668,-1.9521,-1.9219,-1.9033,-1.8887,-1.8539,-1.8432,-1.8383,-1.8105,-1.8008,-1.7988,-1.7871,-1.792,-1.7988,-1.7871,-1.792,-1.8008,-1.8008,-1.8008,-1.8008,-1.8008,-1.8008,-1.7978,-1.7861,-1.7598,-1.7344,-1.7227,-1.6748,-1.6269,-1.5968,-1.5625,-1.541,-1.541,-1.541,0.0,-1.541,-1.5312,-1.5117,-1.4814,-1.458,-1.418,-1.3555,-1.3398,-1.3203,-1.2925,-1.2588,-1.2389,-1.2389,-1.1982,-1.1712,-1.1606,-1.0898,-1.041,0.0,0.0,0.0,0.0,0.0,0.0,0.0,0.0,0.0,0.0,0.0,0.0,0.0,0.0,0.0,0.0,0.0,0.0,0.0,0.0,0.0,0.0,-1.3534,-1.421,-1.3624,-1.5393,-1.6591,-1.6183,-1.7912,-1.9085,-1.8993,-1.9483,-1.9922,-2.0166,-2.0361,-2.0576,-2.083,-2.1269,-2.1504,-2.1504,-2.1924,-2.2148,-2.2148,-2.2148,-2.2148,-2.2139,-2.1709,-2.1504,-2.1494,-2.124,-2.1055,0.0,-2.084,-2.0781,-2.0605,-2.0605,-2.0605,0.0,0.0,0.0,0.0,0.0,-1.9287,-1.9248,-1.8994,-1.887,-1.8802,-1.8373,-1.8237,-1.8208,-1.8057,-1.8008,-1.8008,-1.8008,-1.8008,-1.8008,-1.8008,-1.8008,-1.8008,-1.8008,-1.8008,-1.8008,-1.8008,-1.7822,-1.7646,-1.7646,-1.7305,0.0,-1.6692,-1.6124,-1.5625,-1.5439,-1.541,-1.541,-1.541,-1.541,-1.5322,-1.5078,-1.4893,-1.458,-1.4082,-1.3721,0.0,0.0,0.0,-1.2422,-1.2213,-1.1982,0.0,0.0,0.0,0.0,0.0,0.0,0.0,0.0,-1.1197,-1.1079,0.0,0.0,0.0,0.0,0.0,0.0,0.0,0.0,0.0,0.0,0.0,0.0,0.0,0.0,0.0,0.0,-1.5779,-1.6866,-1.6906,-1.7046,-1.722,-1.7316,-1.8843,-1.9582,-1.881,-1.9907,-2.0683,-2.0683,-2.1055,-2.1268,-2.1268,0.0,0.0,0.0,0.0,-2.2578,-2.2578,-2.2578,-2.2578,-2.2578,-2.2158,-2.1953,-2.1953,-2.1904,-2.167,-2.1268,-2.1268,-2.1055,-2.0683,-2.0683,-2.0644,-2.0605,-2.0605,-2.037,-1.9941,-1.957,-1.9434,-1.9424,-1.9375,0.0,0.0,-1.8763,-1.8598,-1.852,-1.8135,-1.8008,-1.8008,-1.8008,-1.8008,-1.8008,-1.8008,-1.8008,-1.8008,-1.8008,-1.8008,-1.8008,-1.8008,-1.8008,-1.8008,-1.8008,-1.7705,-1.7441,-1.7425,-1.6682,-1.5958,-1.5537,-1.5439,-1.541,-1.541,-1.541,-1.541,-1.541,0.0,0.0,-1.4785,-1.4092,-1.3613,-1.3516,-1.3115,-1.2705,-1.2301,-1.2281,-1.2281,-1.2281,-1.2281,-1.2467,-1.2905,-1.2905,-1.2905,-1.2856,-1.1257,-1.0964,0.0,0.0,0.0,0.0,0.0,0.0,0.0,0.0,0.0,0.0,0.0,0.0,0.0,0.0,0.0,-1.6381,-1.7307,-1.7988,-1.8691,-1.906,-1.9041,-1.8317,-1.9231,-1.9973,-2.0169,-2.0722,-2.1064,-2.1064,-2.1514,-2.1758,-2.1758,-2.2168,0.0,-2.2393,-2.275,-2.2974,-2.2974,-2.2974,-2.2974,-2.2974,0.0,0.0,-2.2383,-2.2041,-2.1836,-2.1758,-2.1758,-2.1514,-2.1064,-2.1064,-2.0889,-2.0605,-2.0605,-2.0546,-2.0468,-2.039,-2.0351,-2.0302,-1.9912,-1.9795,-1.9668,-1.8851,-1.8598,-1.852,-1.8135,-1.8008,0.0,-1.8008,-1.8008,-1.8008,-1.8008,-1.8008,-1.8008,-1.8008,-1.8008,-1.8008,-1.8008,-1.8008,-1.8008,-1.8008,-1.7939,-1.7783,-1.7474,-1.6682,-1.6065,-1.5977,-1.5635,-1.541,-1.541,-1.541,-1.541,-1.541,-1.5342,-1.5156,-1.4842,-1.4666,-1.4248,-1.3555,-1.3115,-1.2866,-1.2778,-1.2754,-1.2754,-1.2754,-1.2754,-1.2803,-1.2905,-1.2905,-1.2905,-1.2895,-1.2535,-1.264,0.0,0.0,0.0,0.0,0.0,0.0,0.0,0.0,0.0,0.0,0.0,-1.2386,0.0,0.0,-1.5776,-1.7692,-1.8369,-1.8877,-1.9512,-1.9785,-1.9724,-1.925,-1.9831,-2.0322,-2.0586,-2.0967,-2.119,-2.119,-2.1836,-2.2197,-2.2197,-2.2598,-2.2779,-2.2779,-2.2984,-2.3091,-2.3091,-2.3091,-2.3091,-2.3091,-2.2886,-2.2779,-2.2779,-2.2607,-2.2402,-2.2197,-2.2197,-2.1953,-2.1543,-2.1288,-2.0967,-2.0605,-2.0605,-2.0605,-2.0605,-2.0605,-2.0605,-2.0576,-2.0312,-2.0244,-2.0137,-1.9482,-1.9241,-1.9114,-1.8481,-1.8286,-1.8247,-1.8066,-1.8008,-1.8008,-1.8008,-1.8008,-1.8008,-1.8008,-1.8008,-1.8008,-1.8008,-1.8008,-1.8008,-1.8008,-1.8008,-1.7939,-1.7734,-1.7158,-1.6604,-1.6163,-1.5909,-1.5664,-1.5439,-1.541,-1.541,-1.541,-1.541,-1.5322,-1.5117,-1.4902,-1.4424,-1.3564,-1.3311,-1.3096,-1.2915,-1.2905,-1.2905,-1.2905,-1.2905,-1.2905,-1.2905,-1.3096,-1.3193,-1.3203,-1.3408,-1.3506,0.0,0.0,0.0,0.0,0.0,0.0,0.0,0.0,-1.0865,-1.2311,-1.3206,-1.4222,-1.5849,-1.6421,-1.7113,-1.8614,-1.918,-1.9561,-1.998,-2.0039,-2.0039,-2.0039,-2.0352,-2.0605,-2.0605,-2.1055,-2.1317,-2.1317,-2.2107,-2.2637,-2.2637,-2.2916,-2.3091,-2.3091,-2.3091,-2.3091,-2.3091,-2.3091,-2.3091,-2.3091,-2.3091,-2.3091,-2.3091,-2.3091,-2.2916,-2.2627,-2.2549,-2.2324,-2.1973,-2.1543,-2.1103,-2.0732,-2.0732,-2.0683,-2.0605,-2.0605,-2.0605,-2.0605,-2.0605,-2.0605,-2.0537,-2.0059,-1.9912,-1.9756,-1.8861,-1.8598,-1.852,-1.8091,-1.8008,-1.8008,-1.8008,-1.8008,-1.8008,-1.8008,-1.8008,-1.8008,-1.8008,-1.8008,-1.8008,-1.8008,-1.8008,-1.8008,-1.8008,-1.7734,-1.7269,-1.6476,-1.6202,-1.5968,-1.5586,-1.5469,-1.541,-1.541,-1.541,-1.541,-1.541,-1.5029,-1.4492,-1.3799,-1.3672,-1.3477,-1.3135,-1.3125,-1.3125,-1.3125,-1.3125,-1.3125,-1.3125,-1.3467,-1.3633,-1.3643,-1.4036,-1.4055,-0.731,-0.7101,-0.7166,-0.8283,-0.839,-0.8896,0.0,0.0,-1.3232,-1.4765,-1.572,-1.6596,-1.7561,-1.7765,-1.8226,-1.9533,-1.9814,-1.999,-2.0468,-2.0537,-2.0537,-2.0537,-2.0576,-2.0605,-2.0605,-2.1318,-2.1816,-2.1816,-2.2588,-2.3023,-2.3023,-2.3071,-2.3091,-2.3091,-2.3091,-2.3091,-2.3091,-2.3091,-2.3091,-2.3091,-2.3091,-2.3091,-2.3091,-2.3091,-2.3071,-2.3003,-2.2676,-2.248,-2.2412,-2.1982,-2.1553,-2.1122,-2.1122,-2.0918,-2.0605,-2.0605,-2.0605,-2.0605,-2.0605,-2.0605,-2.0537,-2.0059,-1.9912,-1.9756,-1.8861,-1.8598,-1.852,-1.8091,-1.8008,-1.8008,-1.8008,-1.8008,-1.8008,-1.8008,-1.8008,-1.8008,-1.8008,-1.8008,-1.8008,-1.8008,-1.8008,-1.8008,-1.8008,-1.7969,-1.7783,-1.7305,-1.6604,-1.6075,-1.6026,-1.5654,-1.541,-1.541,-1.541,-1.541,-1.541,-1.5029,-1.4774,-1.4648,-1.425,-1.4016,-1.3968,-1.3968,-1.3968,-1.3968,-1.3968,-1.3968,-1.3968,-1.4016,-1.4036,-1.4046,-1.4512,-1.4687,-0.869,0.0,0.0,0.0,-0.9733,-1.0472,-1.2617,-1.3052,-1.3526,-1.5349,-1.6226,-1.6812,-1.7409,-1.8187,-1.9004,0.0,-2.0127,-2.0159,-1.9737,-2.0206,-2.0275,-1.9389,-2.0052,-2.0605,-2.0605,-2.1407,-2.1885,-2.1885,-2.2666,-2.3091,-2.3091,-2.3091,-2.3091,-2.3091,-2.3091,-2.2765,-2.2076,-2.2775,-2.2775,-2.2076,-2.2765,-2.3091,-2.3091,-2.3091,-2.3091,-2.3081,-2.2906,-2.2744,-2.25,-2.2324,-2.1846,-2.119,-2.119,-2.0957,-2.0605,-2.0605,-2.0605,-2.0605,-2.0605,-2.0605,-2.0576,-2.0352,-2.0293,-2.0176,-1.957,-1.9348,-1.9202,-1.8529,-1.8344,-1.8286,-1.8076,-1.8008,-1.8008,-1.8008,-1.8008,-1.8008,-1.8008,-1.8008,-1.8008,-1.8008,-1.8008,-1.8008,-1.8008,-1.8008,-1.7949,-1.7773,-1.7012,-1.6357,-1.6124,-1.5684,-1.541,-1.541,-1.541,-1.541,-1.541,-1.5254,-1.5049,-1.4805,-1.4619,-1.4367,-1.4114,-1.4104,-1.4104,-1.4104,-1.4104,-1.4104,-1.4104,-1.4358,-1.4512,-1.4521,-1.4951,-1.5146,-0.9546,0.0,0.0,-1.0247,-1.0735,-1.1521,-1.3135,-1.33,-1.3618,-1.536,-1.6188,-1.6728,-1.7144,-1.8051,0.0,-1.9401,-1.9544,-1.9342,-1.8621,-1.9134,-1.9192,-1.8152,-1.9203,-2.0072,-2.0148,-2.1089,-2.1758,-2.1875,-2.2559,-2.2834,-2.2624,-2.2589,-2.2448,-2.2129,-2.2094,-2.1676,-2.08,-2.1987,-2.2173,-2.1293,-2.2173,-2.2589,-2.2589,-2.2589,-2.2775,-2.3091,-2.3091,-2.2925,-2.2685,-2.2685,-2.2246,-2.1541,-2.1455,-2.1143,-2.0732,-2.0644,-2.0605,-2.0605,-2.0605,-2.0605,-2.0605,-2.0605,-2.0605,-2.0517,-2.0049,-1.9912,-1.9736,-1.8841,-1.8598,-1.851,-1.8081,-1.8008,-1.8008,-1.8008,-1.8008,-1.8008,-1.8008,-1.8008,-1.8008,-1.8008,-1.8008,-1.8008,-1.8008,-1.8008,-1.8008,-1.8008,-1.7383,-1.6748,-1.6339,-1.5762,-1.541,-1.541,-1.541,-1.541,-1.541,-1.541,-1.5283,-1.498,-1.4961,-1.4814,-1.4475,-1.4465,-1.4465,-1.4465,-1.4465,-1.4465,-1.4465,-1.4805,-1.4961,-1.4971,-1.5264,-1.541,0.0,0.0,-0.9893,-1.0755,-1.1189,-1.1724,-1.3023,-1.3519,-1.3968,-1.5005,-1.5957,-1.6728,-1.7144,-1.7225,-1.7496,-1.8235,-1.7609,-1.7071,-1.7325,-1.7179,-1.7079,-1.7317,-1.8048,-1.8688,0.0,-2.037,-2.1385,-2.1855,-2.2285,-2.2169,-2.1408,-2.1337,-2.08,-1.9633,-1.9633,-1.9588,-1.9534,-2.0755,-2.1337,-2.1293,-2.1337,-2.1337,-2.1337,-2.1337,-2.1987,-2.3091,-2.3091,-2.3091,-2.3081,-2.3081,-2.2818,-2.2432,-2.2031,-2.1592,-2.1122,-2.0723,-2.0605,-2.0605,-2.0605,-2.0605,-2.0605,-2.0605,-2.0605,-2.0517,-2.0049,-1.9912,-1.9736,-1.8841,-1.8598,-1.851,-1.8081,-1.8008,-1.8008,-1.8008,-1.8008,-1.8008,-1.8008,-1.8008,-1.8008,-1.8008,-1.8008,-1.8008,-1.8008,-1.8008,-1.8008,-1.8008,-1.7637,-1.7207,-1.6736,-1.5917,-1.541,-1.541,-1.541,-1.541,-1.541,-1.541,-1.5371,-1.5391,-1.5391,-1.5391,-1.5371,-1.5371,-1.5371,-1.5371,-1.5371,-1.5371,-1.5371,-1.5362,-1.5391,-1.5391,-1.5371,-1.541,0.0,0.0,-1.0955,-1.1484,-1.179,-1.2283,-1.3344,-1.3165,-1.3005,-1.378,-1.4182,-1.4394,-1.435,-1.5277,-1.616,-1.6584,-1.6805,-1.6738,-1.6308,-1.6942,-1.709,-1.5978,-1.7131,0.0,0.0,0.0,0.0,-2.0666,-2.1065,-2.094,-2.0152,-2.0124,-1.9898,-1.9488,-1.9497,-1.9497,-1.9497,-1.9898,-2.0124,-2.0124,-2.0124,-2.0531,-2.1293,-2.1293,-2.1943,-2.3047,-2.2262,-2.1889,-2.1889,-2.1889,-2.1658,-2.1345,-2.1739,-2.1621,-2.1142,-2.0732,-2.0605,-2.0605,-2.0605,-2.0605,-2.0605,-2.0605,-2.0605,-2.0576,-2.0391,-2.0342,-2.0166,-1.9307,-1.9072,-1.8906,-1.8193,-1.8008,-1.8008,-1.8008,-1.8008,-1.8008,-1.8008,-1.8008,-1.8008,-1.8008,-1.8008,-1.8008,-1.8008,-1.8008,-1.8008,-1.8008,-1.7656,-1.7119,-1.6387,-1.6056,-1.5762,-1.5439,-1.541,-1.541,-1.541,-1.541,-1.541,-1.541,-1.541,-1.541,-1.541,-1.541,-1.541,-1.541,-1.541,-1.541,-1.541,-1.541,-1.541,-1.541,-1.541,-1.541,0.0,-1.1216,-1.1677,-1.2114,-1.2362,-1.2645,-1.3225,-1.2732,-1.2245,-1.2564,-1.2819,-1.2912,-1.2639,-1.3445,-1.4352,-1.4953,-1.529,-1.54,-1.5293,-1.607,-1.6219,-1.5167,-1.6305,0.0,0.0,0.0,0.0,-2.0009,-2.0007,-1.9688,-1.8886,-1.8864,-1.8634,-1.8211,-1.8164,-1.8164,-1.8164,-1.8634,-1.8864,-1.8864,-1.9314,-1.967,-2.0034,-2.044,-2.1078,-2.1774,-2.098,-2.0666,-2.0666,-2.0666,-2.0517,-2.0342,-2.0959,-2.1053,-2.0749,-2.0654,-2.0605,-2.0605,-2.0605,-2.0605,-2.0605,-2.0605,-2.0605,-2.0605,-2.0605,-2.0605,-2.0429,-1.9531,-1.9287,-1.9092,-1.8232,-1.8008,-1.8008,-1.8008,-1.8008,-1.8008,-1.8008,-1.8008,-1.8008,-1.8008,-1.8008,-1.8008,-1.8008,-1.8008,-1.8008,-1.8008,-1.7783,-1.7344,-1.6662,-1.629,-1.5987,-1.5674,-1.5508,-1.541,-1.541,-1.541,-1.541,-1.541,-1.541,-1.541,-1.541,-1.541,-1.541,-1.541,-1.541,-1.541,-1.541,-1.541,-1.541,-1.541,-1.541,-1.5498,-1.1189,-1.169,-1.2107,-1.267,-1.2797,-1.2784,-1.2764,-1.2301,-1.1792,-1.1443,-1.1834,-1.2187,0.0,0.0,-1.2309,-1.3442,-1.3145,-1.3219,-1.4355,-1.4492,-1.4643,0.0,0.0,0.0,0.0,0.0,0.0,-1.9758,0.0,-1.8398,-1.7623,-1.7598,-1.7037,-1.5825,-1.5784,-1.5832,-1.592,-1.7084,-1.7692,-1.7638,-1.8772,-1.8772,-1.7731,-1.891,-1.9451,-1.9497,-1.9443,-1.9405,-1.9405,-1.9405,-1.9389,-1.9443,-1.9773,-1.9934,-2.0036,-2.0375,-2.0557,-2.0605,-2.0605,-2.0605,-2.0605,-2.0605,-2.0566,-2.0527,-2.0566,-2.0566,-2.0352,-1.9551,-1.927,-1.9056,-1.8227,-1.7983,-1.794,-1.7974,-1.8008,-1.8008,-1.8008,-1.8008,-1.8008,-1.8008,-1.8008,-1.8008,-1.8008,-1.8008,-1.8008,-1.8008,-1.8008,-1.7852,-1.7432,-1.6662,-1.6124,-1.6095,-1.5674,-1.541,-1.541,-1.541,-1.541,-1.541,-1.541,-1.541,-1.541,-1.541,-1.541,-1.541,-1.541,-1.541,-1.541,-1.541,-1.541,-1.541,-1.543,-1.5664,-1.1697,-1.2298,-1.2906,-1.3053,-1.2958,-1.2723,-1.2465,-1.1957,-1.1396,-1.0882,-1.073,-1.0608,-1.0333,0.0,0.0,-1.224,-1.275,0.0,-1.4389,-1.471,0.0,0.0,0.0,-1.5856,-1.6521,-1.6296,0.0,0.0,-1.7558,-1.7128,-1.6325,-1.6292,-1.6157,-1.5832,-1.5784,-1.6251,-1.7225,-1.7552,-1.7225,-1.6292,-1.6615,-1.7077,-1.7684,-1.8002,-1.8642,-1.9451,-1.8549,-1.8141,-1.8141,-1.8141,-1.8026,-1.7869,-1.8537,-1.9184,-1.9674,-1.9457,-1.9923,-2.0605,-2.0605,-2.0605,-2.0605,-2.0605,-2.004,-1.9559,-2.0362,-2.004,-1.9457,-1.9676,-1.903,-1.8303,-1.8402,-1.7694,-1.7139,-1.7828,-1.8008,-1.8008,-1.8008,-1.8008,-1.8008,-1.8008,-1.8008,-1.8008,-1.8008,-1.8008,-1.8008,-1.8008,-1.8008,-1.7852,-1.7432,-1.6904,-1.6436,-1.6124,-1.5674,-1.541,-1.541,-1.541,-1.541,-1.541,-1.541,-1.541,-1.541,-1.541,-1.541,-1.541,-1.541,-1.541,-1.541,-1.541,-1.541,-1.542,-1.5772,-1.5987,-1.2351,-1.2919,-1.3367,-1.324,-1.308,-1.2844,-1.2238,-1.1657,-1.0995,-1.0154,-0.9846,0.0,0.0,0.0,0.0,0.0,0.0,0.0,-1.4362,-1.489,-1.5204,0.0,-1.5484,0.0,-1.6193,-1.5848,-1.5811,0.0,-1.648,-1.6285,-1.5818,-1.5784,-1.5784,-1.5784,-1.5784,-1.6157,-1.685,-1.685,-1.6527,-1.5832,-1.6386,-1.6709,-1.6897,-1.7458,-1.777,-1.7848,0.0,-1.685,-1.685,-1.685,-1.6704,-1.6466,-1.7288,-1.78,-1.8062,-1.8198,-1.863,-1.9146,-1.9146,-1.9146,-1.9225,-1.9717,-1.9155,-1.847,-1.9559,-1.9116,-1.8391,-1.9019,-1.8314,-1.7432,-1.7804,-1.7329,-1.6968,-1.7808,-1.8008,-1.8008,-1.8008,-1.8008,-1.8008,-1.8008,-1.8008,-1.8008,-1.8008,-1.8008,-1.8008,-1.8008,-1.8008,-1.793,-1.7686,-1.7285,-1.6924,-1.6701,-1.6105,-1.5693,-1.5693,-1.5527,-1.541,-1.541,-1.541,-1.541,-1.541,-1.541,-1.541,-1.541,-1.541,-1.541,-1.541,-1.541,-1.5508,-1.5703,-1.5977,-1.63,-1.2999,-1.3413,-1.3593,-1.33,-1.3206,-1.2913,-1.2011,-1.1296,-1.0508,-0.9377,0.0,0.0,-0.8099,0.0,-0.9517,-1.0499,0.0,-1.2779,-1.4309,-1.4957,-1.5418,-1.5738,-1.5784,-1.5784,-1.5784,-1.5784,-1.5784,-1.5784,-1.5784,-1.5784,-1.5784,-1.5784,-1.5784,-1.5784,-1.5784,-1.5784,-1.5784,-1.5784,-1.5784,-1.5825,-1.6897,-1.685,-1.5825,-1.6943,-1.685,-1.5784,0.0,0.0,-1.5784,-1.5784,-1.5631,-1.5402,-1.6099,-1.6241,-1.6127,-1.6835,-1.7172,-1.7302,-1.7302,-1.7212,-1.7253,-1.839,-1.802,-1.7293,-1.843,-1.798,-1.7227,-1.7939,-1.7371,-1.6577,-1.7002,-1.6963,-1.7009,-1.7797,-1.8008,-1.8008,-1.8008,-1.8008,-1.8008,-1.8008,-1.8008,-1.8008,-1.8008,-1.8008,-1.8008,-1.8008,-1.8008,-1.8008,-1.8008,-1.7646,-1.7396,-1.7305,-1.6584,-1.6065,-1.6007,-1.5625,-1.541,-1.541,-1.541,-1.541,-1.541,-1.541,-1.541,-1.541,-1.541,-1.541,-1.541,-1.541,-1.5605,-1.6007,-1.6124,-1.6594,-1.3166,-1.3601,-1.3941,-1.36,-1.3193,-1.263,-1.1703,-1.0675,0.0,0.0,0.0,-0.8159,-0.8283,-0.8785,0.0,-1.0735,0.0,0.0,0.0,0.0,-1.4963,0.0,0.0,0.0,0.0,0.0,0.0,0.0,0.0,0.0,-1.5784,-1.5784,-1.5784,-1.5784,-1.5784,-1.5784,-1.5784,-1.5784,-1.5784,-1.5784,-1.6015,-1.6015,-1.5832,-1.6015,-1.6015,-1.5784,-1.5784,0.0,-1.5784,-1.5784,-1.5518,-1.5082,-1.5201,-1.5474,-1.5778,-1.5925,-1.656,-1.7302,-1.7302,-1.6723,-1.615,-1.7253,-1.6846,-1.6191,-1.7253,-1.6846,-1.6175,-1.7179,-1.6541,-1.5874,-1.7223,-1.6718,-1.6191,-1.7649,-1.8008,-1.8008,-1.8008,-1.8008,-1.8008,-1.8008,-1.8008,-1.8008,-1.8008,-1.8008,-1.8008,-1.8008,-1.8008,-1.8008,-1.8008,-1.7646,-1.7246,-1.6853,-1.6377,-1.5948,-1.5557,-1.5459,-1.541,-1.541,-1.541,-1.541,-1.541,-1.541,-1.541,-1.541,-1.541,-1.541,-1.541,-1.541,-1.5449,-1.5537,-1.6248,-1.6668,-1.3267,-1.36,-1.3788,-1.3453,-1.2966,-1.2281,-1.1209,0.0,0.0,0.0,0.0,-0.7852,-0.7702,0.0,0.0,0.0,0.0,0.0,0.0,0.0,0.0,0.0,0.0,0.0,0.0,0.0,0.0,0.0,0.0,0.0,-1.5784,-1.5784,-1.5784,-1.5784,-1.5784,-1.5784,-1.5784,-1.5784,-1.5784,-1.5784,-1.5784,-1.5784,-1.5784,-1.5784,-1.5784,-1.5784,-1.5784,0.0,-1.5771,-1.5665,-1.5351,-1.4995,-1.4796,-1.4802,-1.4859,-1.4859,-1.5179,-1.5636,-1.5636,-1.5311,-1.4936,-1.547,-1.5304,-1.5054,-1.6157,-1.5711,-1.5095,-1.6157,-1.5599,-1.5039,-1.6741,-1.6518,-1.6215,-1.7929,-1.7766,-1.7148,-1.6655,-1.6932,-1.7285,-1.7285,-1.7681,-1.8008,-1.8008,-1.8008,-1.8008,-1.8008,-1.8008,-1.8008,-1.8008,-1.7832,-1.7549,-1.7119,-1.6496,-1.6007,-1.5762,-1.5537,-1.541,-1.541,-1.541,-1.541,-1.541,-1.541,-1.541,-1.541,-1.541,-1.541,-1.541,-1.541,-1.5527,-1.5762,-1.6395,-1.6824,-1.3127,-1.3413,-1.344,-1.3186,-1.2605,-1.1837,-1.0834,-0.978,0.0,0.0,0.0,-0.7586,-0.7173,0.0,0.0,0.0,0.0,0.0,0.0,0.0,0.0,0.0,0.0,0.0,0.0,0.0,0.0,0.0,0.0,0.0,-1.5784,-1.5784,-1.5784,-1.5784,-1.5784,-1.5784,-1.5784,-1.5784,-1.5784,-1.5784,-1.5784,-1.5784,-1.5784,-1.5784,-1.5784,-1.5784,-1.5784,0.0,0.0,-1.5518,-1.5224,-1.4981,-1.4636,-1.4342,-1.4088,-1.4088,-1.4088,-1.4088,-1.4088,-1.4088,-1.4088,-1.4088,-1.4088,-1.425,-1.5095,-1.4776,-1.4292,-1.5137,-1.4734,-1.4448,-1.5873,-1.5979,-1.6083,-1.7521,-1.7082,-1.6105,-1.5376,-1.579,-1.628,-1.628,-1.707,-1.7647,-1.7432,-1.7725,-1.794,-1.7725,-1.7872,-1.8008,-1.8008,-1.793,-1.7744,-1.7422,-1.6711,-1.6153,-1.5968,-1.5605,-1.541,-1.541,-1.541,-1.541,-1.541,-1.541,-1.541,-1.541,-1.541,-1.5459,-1.5557,-1.5557,-1.5771,-1.6251,-1.667,-1.7061,-1.2405,-1.2826,-1.3173,-1.2904,-1.2144,-1.1343,-1.0734,0.0,0.0,0.0,-0.7466,-0.7153,-0.7404,0.0,0.0,0.0,0.0,0.0,0.0,0.0,0.0,0.0,0.0,0.0,0.0,0.0,0.0,0.0,0.0,0.0,0.0,-1.5784,-1.5784,-1.5784,-1.5784,-1.5784,-1.5784,-1.5784,-1.5784,-1.5784,-1.5784,-1.5784,-1.5784,-1.5784,-1.5784,-1.5784,-1.5784,0.0,0.0,-1.5518,-1.5224,-1.4981,-1.4636,-1.4342,-1.4088,-1.4088,-1.4088,-1.4088,-1.4088,-1.4088,-1.4088,-1.4088,-1.4088,-1.413,-1.4208,-1.4166,-1.413,-1.4208,-1.4166,-1.4198,-1.4658,-1.4747,-1.4866,-1.5378,-1.5436,-1.5305,-1.5234,-1.5269,-1.534,-1.534,-1.6079,-1.6463,-1.5587,-1.6862,-1.7716,-1.6853,-1.7467,-1.8008,-1.8008,-1.7676,-1.7432,-1.7393,-1.6953,-1.6317,-1.5537,-1.543,-1.541,-1.541,-1.541,-1.541,-1.541,-1.541,-1.541,-1.541,-1.541,-1.5605,-1.6036,-1.6036,-1.6261,-1.6648,-1.7119,-1.7344,-1.2158,-1.2612,-1.2898,-1.2596,-1.1817,-1.1015,-1.0428,0.0,0.0,-0.7932,-0.7426,-0.704,-0.7174,-0.7363,-0.7705,0.0,-0.8704,0.0,0.0,0.0,0.0,0.0,0.0,0.0,0.0,0.0,0.0,0.0,0.0,0.0,0.0,-1.5784,-1.5784,-1.5784,-1.5784,-1.5784,-1.5784,-1.5784,-1.5784,-1.5784,-1.5784,-1.5784,-1.5784,-1.5784,-1.5784,-1.5771,-1.5645,0.0,0.0,-1.5064,-1.4803,-1.4669,-1.4376,-1.4188,-1.4088,-1.4088,-1.4088,-1.4088,-1.4088,-1.4088,-1.4088,-1.4088,-1.4088,-1.4088,-1.4088,-1.4088,-1.4088,-1.4088,-1.3955,-1.4001,-1.4819,-1.5181,-1.516,-1.446,-1.4314,-1.4135,-1.3593,-1.3918,-1.4314,-1.4314,-1.5084,-1.5658,-1.5269,-1.6298,-1.7035,-1.6655,-1.7407,-1.8008,-1.8008,-1.7861,-1.7666,-1.7445,-1.6748,-1.6191,-1.586,-1.5566,-1.541,-1.541,-1.541,-1.5527,-1.5821,-1.5557,-1.5537,-1.5831,-1.5831,-1.5919,-1.6095,-1.6338,-1.6531,-1.6716,-1.7178,-1.7383,-1.1597,-1.21,-1.2342,-1.2091,-1.1383,-1.0601,0.0,0.0,-0.7879,-0.7792,-0.7359,-0.7,-0.7,-0.7194,-0.7468,0.0,-0.8183,-0.8811,-0.9953,0.0,0.0,0.0,0.0,0.0,0.0,0.0,0.0,0.0,0.0,0.0,0.0,-1.5784,-1.5784,-1.5784,-1.5784,-1.5784,-1.5784,-1.5784,-1.5784,-1.5784,-1.5784,-1.5784,-1.5778,-1.5738,-1.5705,-1.5685,0.0,0.0,0.0,-1.473,-1.4522,-1.4489,-1.4202,-1.4088,-1.4088,-1.4088,-1.4088,-1.4088,-1.4088,-1.4088,-1.4088,-1.4088,-1.4088,-1.4088,-1.4088,-1.4088,-1.4088,-1.4088,-1.3814,-1.3649,-1.437,-1.4653,-1.4522,-1.3506,-1.328,-1.3098,-1.2445,-1.2806,-1.328,-1.328,-1.4091,-1.4772,-1.4772,-1.579,-1.6611,-1.6585,-1.7407,-1.8008,-1.8008,-1.8008,-1.79,-1.7598,-1.6936,-1.6378,-1.6114,-1.5898,-1.5664,-1.543,-1.5625,-1.582,-1.5899,-1.5703,-1.5693,-1.5899,-1.6026,-1.6163,-1.629,-1.6709,-1.696,-1.7087,-1.7422,-1.7568,-1.0526,-1.1002,-1.1402,-1.1402,-1.0743,-1.0047,0.0,-0.8778,-0.7819,-0.7558,-0.7235,-0.7,-0.7,-0.7006,-0.7206,-0.7806,-0.8183,-0.8811,0.0,0.0,0.0,0.0,0.0,0.0,0.0,0.0,0.0,0.0,0.0,0.0,0.0,-1.5784,-1.5784,-1.5784,-1.5784,-1.5784,-1.5784,-1.5784,-1.5784,-1.5784,-1.5784,-1.5784,-1.5771,-1.5531,-1.5398,0.0,0.0,0.0,0.0,-1.4643,-1.4522,-1.4489,-1.4202,-1.4088,-1.4088,-1.4088,-1.4088,-1.4088,-1.4088,-1.4088,-1.4088,-1.4088,-1.4088,-1.4088,-1.4088,-1.4088,-1.4088,-1.4088,-1.3667,-1.3146,-1.2871,-1.2569,-1.2342,-1.2335,-1.2298,-1.2298,-1.2305,-1.2305,-1.2298,-1.2298,-1.3062,-1.3709,-1.3709,-1.5332,-1.6602,-1.6602,-1.7398,-1.8008,-1.8008,-1.8008,-1.8008,-1.8008,-1.7627,-1.7044,-1.6163,-1.6465,-1.6317,-1.5439,-1.62,-1.6297,-1.5449,-1.586,-1.5889,-1.543,-1.587,-1.631,-1.6697,-1.7168,-1.7588,-1.7998,-1.7998,-1.8008,-0.9604,-1.0087,-1.0403,-1.0003,-0.969,-0.9357,-0.8898,-0.8343,-0.7819,-0.7551,-0.7228,-0.7,-0.7,-0.7,-0.7333,-0.8338,0.0,0.0,0.0,0.0,0.0,0.0,0.0,0.0,0.0,0.0,0.0,0.0,0.0,0.0,0.0,-1.5531,-1.5625,-1.5771,-1.5784,-1.5784,-1.5784,-1.5784,-1.5784,-1.5778,-1.5625,-1.5531,-1.5524,-1.5237,0.0,0.0,0.0,0.0,0.0,-1.4342,-1.4222,-1.4215,-1.4122,-1.4088,-1.4088,-1.4088,-1.4088,-1.4088,-1.4088,-1.4088,-1.4088,-1.4088,-1.4088,-1.4088,-1.4088,-1.4088,-1.4001,-1.3601,-1.3353,-1.3093,-1.2579,-1.2371,-1.2305,-1.2305,-1.2305,-1.2305,-1.2305,-1.2305,-1.2305,-1.2305,-1.2556,-1.2732,-1.2732,-1.3774,-1.4629,-1.4629,-1.5446,-1.6088,-1.6088,-1.6645,-1.7035,-1.7035,-1.7498,-1.7578,-1.7044,-1.6816,-1.658,-1.6297,-1.6551,-1.658,-1.6297,-1.6183,-1.6173,-1.6287,-1.6414,-1.6738,-1.7178,-1.7607,-1.7881,-1.8008,-1.8008,-1.8008,0.0,-0.9151,-0.9504,-0.9144,-0.8964,-0.8791,-0.8317,-0.7976,-0.7669,-0.7383,-0.7154,-0.7,-0.7,-0.7,-0.7319,-0.8292,0.0,0.0,0.0,0.0,0.0,0.0,0.0,0.0,0.0,0.0,0.0,0.0,0.0,0.0,0.0,0.0,-1.5317,-1.5498,-1.5504,-1.5558,-1.5665,-1.5558,-1.5558,-1.5665,-1.5371,-1.5237,-1.5224,-1.493,0.0,0.0,0.0,0.0,0.0,-1.4162,-1.4088,-1.4088,-1.4088,-1.4088,-1.4088,-1.4088,-1.4088,-1.4088,-1.4088,-1.4088,-1.4088,-1.4088,-1.4088,-1.4088,-1.4088,-1.4088,-1.3961,-1.3373,-1.3213,-1.3066,-1.2465,-1.2305,-1.2305,-1.2305,-1.2305,-1.2305,-1.2305,-1.2305,-1.2305,-1.2305,-1.2305,-1.2409,-1.2769,-1.331,-1.3818,-1.4207,-1.4807,-1.5199,-1.5199,-1.572,-1.607,-1.607,-1.6576,-1.684,-1.6591,-1.6959,-1.7048,-1.6726,-1.6999,-1.7038,-1.6716,-1.6621,-1.6444,-1.6192,-1.6693,-1.6905,-1.685,-1.7625,-1.7828,-1.7467,-1.7828,-1.7623,0.0,-0.8179,-0.8644,-0.8624,-0.8444,-0.8203,-0.7879,-0.7642,0.0,-0.7066,-0.7,-0.7013,-0.706,-0.7046,-0.7253,-0.7919,0.0,0.0,0.0,0.0,0.0,0.0,0.0,0.0,0.0,0.0,0.0,0.0,0.0,0.0,0.0,0.0,-1.4968,-1.4948,-1.4948,-1.5095,-1.5364,-1.5142,-1.5149,-1.5357,-1.507,-1.4975,-1.4968,-1.4623,0.0,0.0,0.0,0.0,0.0,-1.4088,-1.4088,-1.4088,-1.4088,-1.4088,-1.4088,-1.4088,-1.4088,-1.4088,-1.4088,-1.4088,-1.4088,-1.4088,-1.4088,-1.4082,-1.4062,-1.4055,-1.3935,-1.3373,-1.32,-1.3046,-1.2452,-1.2305,-1.2305,-1.2305,-1.2305,-1.2305,-1.2305,-1.2305,-1.2305,-1.2305,-1.2305,-1.2592,-1.3455,-1.36,-1.3918,-1.4843,-1.4985,-1.4985,-1.4985,-1.5057,-1.5092,-1.5092,-1.5163,-1.5199,-1.5199,-1.6802,-1.7465,-1.6642,-1.7359,-1.7427,-1.6584,-1.6963,-1.6571,-1.5269,-1.6557,-1.6788,-1.584,-1.7166,-1.7354,-1.6532,-1.7398,-1.6872,-0.608,0.0,-0.7061,-0.6854,-0.7061,-0.7261,0.0,-0.7216,-0.7404,-0.7066,0.0,-0.714,-0.7612,-0.7522,-0.7806,0.0,0.0,0.0,0.0,0.0,0.0,0.0,0.0,0.0,0.0,0.0,0.0,0.0,0.0,0.0,0.0,0.0,-1.4522,-1.4302,-1.4289,-1.4543,-1.5109,-1.5042,-1.5042,-1.5109,-1.477,-1.4623,-1.4616,-1.4322,0.0,0.0,0.0,0.0,-1.4088,-1.4088,-1.4088,-1.4088,-1.4088,-1.4088,-1.4088,-1.4088,-1.4088,-1.4088,-1.4088,-1.4088,-1.4088,-1.4088,-1.4088,-1.4048,-1.3814,-1.3706,-1.3633,-1.3313,-1.3039,-1.2804,-1.2398,-1.2305,-1.2305,-1.2305,-1.2305,-1.2305,-1.2305,-1.2305,-1.2305,-1.2305,-1.2305,-1.2372,-1.2592,-1.2629,-1.2696,-1.2945,-1.2981,-1.2981,-1.2981,-1.36,-1.4063,-1.4063,-1.4736,-1.5199,-1.5199,-1.5587,-1.5765,-1.5584,-1.5739,-1.5592,-1.5052,-1.512,-1.5027,-1.4689,-1.5377,-1.56,-1.5382,-1.5685,-1.5728,-1.5544,-1.5763,-1.5623,-0.519,-0.559,-0.609,-0.6475,-0.666,-0.6786,-0.6964,0.0,0.0,0.0,0.0,-0.714,-0.7629,0.0,0.0,0.0,0.0,0.0,0.0,0.0,0.0,0.0,0.0,0.0,0.0,0.0,0.0,0.0,0.0,0.0,0.0,0.0,-1.4249,-1.4088,-1.4088,-1.4309,-1.4756,-1.4673,-1.4673,-1.4756,-1.4462,-1.4322,-1.4315,-1.4162,-1.4088,0.0,0.0,0.0,-1.4088,-1.4088,-1.4088,-1.4088,-1.4088,-1.4088,-1.4088,-1.4088,-1.4088,-1.4068,-1.3928,-1.3881,-1.3908,-1.4041,-1.3995,-1.3854,-1.3653,-1.3447,-1.32,-1.3046,-1.2911,-1.2717,-1.2378,-1.2305,-1.2305,-1.2305,-1.2305,-1.2305,-1.2305,-1.2305,-1.2305,-1.2305,-1.2305,-1.2305,-1.2305,-1.2305,-1.2305,-1.2305,-1.2305,-1.2305,-1.2305,-1.2732,-1.3062,-1.3062,-1.3557,-1.3875,-1.3875,-1.3875,-1.4235,-1.5128,-1.5199,-1.5072,-1.4839,-1.4831,-1.4831,-1.4831,-1.4604,-1.4736,-1.5199,-1.5199,-1.495,-1.4522,-1.4985,-1.4736,-0.4777,-0.4985,-0.5545,-0.6527,-0.6585,-0.6571,-0.7186,0.0,0.0,0.0,0.0,0.0,0.0,0.0,0.0,0.0,0.0,0.0,0.0,0.0,0.0,0.0,0.0,0.0,0.0,0.0,0.0,0.0,0.0,0.0,0.0,0.0,0.0,-1.4088,-1.4088,-1.4208,-1.4449,-1.4208,-1.4208,-1.4449,-1.4208,-1.4088,-1.4088,-1.4088,-1.4088,0.0,0.0,0.0,-1.4088,-1.4088,-1.4088,-1.4088,-1.4088,-1.4088,-1.4088,-1.4088,-1.4055,-1.3975,-1.364,-1.354,-1.358,-1.3868,-1.3781,-1.3527,-1.348,-1.3153,-1.277,-1.273,-1.2717,-1.2656,-1.2365,-1.2305,-1.2305,-1.2305,-1.2305,-1.2305,-1.2305,-1.2305,-1.2305,-1.2305,-1.2305,-1.2305,-1.2305,-1.2305,-1.2305,-1.2305,-1.2305,-1.2305,-1.2305,-1.2305,-1.2305,-1.2305,-1.2305,-1.2305,-1.2305,-1.2305,-1.3018,-1.4665,-1.4772,-1.4772,-1.4772,-1.4772,-1.4772,-1.4772,-1.3918,-1.3918,-1.4772,-1.4772,-1.4307,-1.3528,-1.4343,-1.3875,-0.4966,-0.5153,-0.5365,-0.5665,-0.6079,-0.6429,-0.6543,0.0,0.0,0.0,0.0,0.0,0.0,0.0,0.0,0.0,0.0,0.0,0.0,0.0,0.0,0.0,0.0,0.0,0.0,0.0,0.0,0.0,0.0,0.0,0.0,0.0,0.0,-1.4088,-1.4088,-1.4108,-1.4155,-1.4108,-1.4108,-1.4155,-1.4108,-1.4088,-1.4088,-1.4088,-1.4088,0.0,0.0,-1.4088,-1.4088,-1.4088,-1.4088,-1.4088,-1.4088,-1.4088,-1.4088,-1.4088,-1.3928,-1.3626,-1.338,-1.3273,-1.328,-1.3333,-1.3313,-1.3227,-1.3005,-1.2857,-1.273,-1.2445,-1.2371,-1.2358,-1.2311,-1.2305,-1.2305,-1.2305,-1.2305,-1.2305,-1.2305,-1.2305,-1.2305,-1.2305,-1.2305,-1.2305,-1.2305,-1.2305,-1.2305,-1.2305,-1.2305,-1.2305,-1.2305,-1.2305,-1.2305,-1.2305,-1.2305,-1.2305,-1.2305,-1.2305,-1.2445,-1.2732,-1.2732,-1.2732,-1.2732,-1.2732,-1.2732,-1.2732,-1.2586,-1.2586,-1.2732,-1.2732,-1.2659,-1.2519,-1.2659,-1.2586,-0.4157,-0.46,-0.5173,-0.5514,-0.6241,-0.7037,-0.7573,0.0,0.0,0.0,0.0,0.0,0.0,0.0,0.0,0.0,0.0,0.0,0.0,0.0,0.0,0.0,0.0,0.0,0.0,0.0,0.0,0.0,0.0,0.0,0.0,0.0,0.0,0.0,-1.4088,-1.4088,-1.4088,-1.4088,-1.4088,-1.4088,-1.4088,-1.4088,-1.4088,-1.4088,-1.4088,-1.4088,0.0,-1.4088,-1.4088,-1.4088,-1.3988,-1.3848,-1.3848,-1.3754,-1.3614,-1.3614,-1.342,-1.316,-1.32,-1.31,-1.3025,-1.316,-1.3093,-1.2971,-1.2831,-1.267,-1.2516,-1.2338,-1.2305,-1.2305,-1.2305,-1.2305,-1.2305,-1.2305,-1.2305,-1.2305,-1.2305,-1.2305,-1.2305,-1.2305,-1.2305,-1.2305,-1.2305,-1.2305,-1.2305,-1.2305,-1.2305,-1.2305,-1.2305,-1.2305,-1.2305,-1.2305,-1.2305,-1.2305,-1.2305,-1.2305,-1.2305,-1.2305,-1.2305,-1.2305,-1.2305,-1.2305,-1.2305,-1.2305,-1.2305,-1.2305,-1.2305,-1.2305,-1.2305,-1.2305,-1.2305,-1.2305,-0.3521,-0.4173,-0.504,-0.5421,0.0,-0.7314,-0.8484,0.0,0.0,0.0,0.0,0.0,0.0,0.0,0.0,0.0,0.0,0.0,0.0,0.0,0.0,0.0,0.0,0.0,0.0,0.0,0.0,0.0,0.0,0.0,0.0,0.0,0.0,0.0,-1.3881,-1.3881,-1.3881,-1.3881,-1.3955,-1.4088,-1.4088,-1.4048,-1.3981,-1.3981,-1.3948,-1.3881,-1.3881,-1.3881,-1.3881,-1.3881,-1.3748,-1.35,-1.35,-1.3367,-1.32,-1.3126,-1.2991,-1.2811,-1.2939,-1.2839,-1.2717,-1.2919,-1.2832,-1.2683,-1.2683,-1.2485,-1.2305,-1.2305,-1.2305,-1.2305,-1.2305,-1.2305,-1.2305,-1.2305,-1.2305,-1.2305,-1.2305,-1.2305,-1.2305,-1.2305,-1.2305,-1.2305,-1.2305,-1.2305,-1.2305,-1.2305,-1.2305,-1.2305,-1.2305,-1.2305,-1.2305,-1.2305,-1.2305,-1.2305,-1.2305,-1.2305,-1.2305,-1.2305,-1.2305,-1.2305,-1.2305,-1.2305,-1.2305,-1.2305,-1.2305,-1.2305,-1.2305,-1.2305,-1.2305,-1.2305,-1.2305,-1.2305,-0.3799,-0.4411,-0.507,-0.4983,-0.5524,0.0,-0.8239,-0.8496,0.0,-0.8408,0.0,0.0,0.0,0.0,0.0,0.0,0.0,0.0,0.0,0.0,0.0,0.0,0.0,0.0,0.0,0.0,0.0,0.0,0.0,0.0,0.0,0.0,0.0,0.0,0.0,-1.3273,-1.3273,-1.3273,-1.3547,-1.4088,-1.4088,-1.3941,-1.3633,-1.3633,-1.3487,-1.3273,-1.3273,-1.3273,-1.3273,-1.3273,-1.326,-1.324,-1.324,-1.3227,-1.3173,-1.2924,-1.2804,-1.275,-1.2458,-1.2351,-1.2338,-1.2358,-1.2351,-1.2338,-1.2338,-1.2318,-1.2305,-1.2305,-1.2305,-1.2305,-1.2305,-1.2305,-1.2305,-1.2305,-1.2305,-1.2305,-1.2305,-1.2305,-1.2305,-1.2305,-1.2305,-1.2305,-1.2305,-1.2305,-1.2305,-1.2305,-1.2305,-1.2305,-1.2305,-1.2305,-1.2305,-1.2305,-1.2305,-1.2305,-1.2305,-1.2305,-1.2305,-1.2305,-1.2305,-1.2305,-1.2305,-1.2305,-1.2305,-1.2305,-1.2305,-1.2305,-1.2305,-1.2305,-1.2305,-1.2305,-1.2305,-1.2305,-0.3132,-0.3813,-0.4576,-0.4745,-0.5059,0.0,0.0,-0.7744,-0.7852,-0.7945,0.0,0.0,0.0,0.0,0.0,0.0,0.0,0.0,0.0,0.0,0.0,0.0,0.0,0.0,0.0,0.0,0.0,0.0,0.0,0.0,0.0,0.0,0.0,0.0,0.0,-1.3213,-1.3213,-1.3213,-1.332,-1.354,-1.354,-1.348,-1.3333,-1.3333,-1.3313,-1.3213,-1.3213,-1.3213,-1.3213,-1.3213,-1.3093,-1.2945,-1.2719,-1.2645,-1.2632,-1.2518,-1.2509,-1.2452,-1.2345,-1.2305,-1.2305,-1.2305,-1.2305,-1.2305,-1.2305,-1.2305,-1.2305,-1.2305,-1.2305,-1.2305,-1.2305,-1.2305,-1.2305,-1.2305,-1.2305,-1.2305,-1.2305,-1.2305,-1.2305,-1.2305,-1.2305,-1.2305,-1.2305,-1.2305,-1.2305,-1.2305,-1.2305,-1.2305,-1.2305,-1.2305,-1.2305,-1.2305,-1.2305,-1.2305,-1.2305,-1.2305,-1.2305,-1.2305,-1.2305,-1.2305,-1.2305,-1.2305,-1.2305,-1.2305,-1.2305,-1.2305,-1.2305,-1.2305,-1.2305,-1.2305,-1.2305,-1.2305,-0.2818,-0.3532,-0.4299,0.0,0.0,0.0,-0.6141,-0.6807,-0.7402,0.0,0.0,0.0,0.0,0.0,0.0,0.0,0.0,0.0,0.0,0.0,0.0,0.0,0.0,0.0,0.0,0.0,0.0,0.0,0.0,0.0,0.0,0.0,0.0,0.0,0.0,-1.2926,-1.2926,-1.2926,-1.2764,-1.2447,-1.2764,-1.2973,-1.3066,-1.3066,-1.3013,-1.2926,-1.2926,-1.2926,-1.2926,-1.2926,-1.2799,-1.2623,-1.2385,-1.2305,-1.2305,-1.2305,-1.2305,-1.2305,-1.2305,-1.2305,-1.2305,-1.2305,-1.2305,-1.2305,-1.2305,-1.2305,-1.2305,-1.2305,-1.2305,-1.2305,-1.2305,-1.2305,-1.2305,-1.2305,-1.2305,-1.2305,-1.2305,-1.2305,-1.2305,-1.2305,-1.2305,-1.2305,-1.2305,-1.2305,-1.2305,-1.2305,-1.2305,-1.2305,-1.2305,-1.2305,-1.2305,-1.2305,-1.2305,-1.2305,-1.2305,-1.2305,-1.2305,-1.2305,-1.2305,-1.2305,-1.2305,-1.2305,-1.2305,-1.2305,-1.2305,-1.2305,-1.2305,-1.2305,-1.2305,-1.2305,-1.2305,-1.2305,-0.3101,-0.3721,-0.4304,0.0,0.0,0.0,0.0,0.0,0.0,0.0,0.0,0.0,0.0,0.0,0.0,0.0,0.0,0.0,0.0,0.0,0.0,0.0,0.0,0.0,0.0,0.0,0.0,0.0,0.0,0.0,0.0,0.0,0.0,0.0,0.0,0.0,-1.2268,-1.2268,-1.1768,-1.0783,-1.1811,-1.2452,-1.2777,-1.2777,-1.2616,-1.2305,-1.2305,-1.2305,-1.2305,-1.2305,-1.2305,-1.2305,-1.2305,-1.2305,-1.2305,-1.2305,-1.2305,-1.2305,-1.2305,-1.2305,-1.2305,-1.2305,-1.2305,-1.2305,-1.2305,-1.2305,-1.2305,-1.2305,-1.2305,-1.2305,-1.2305,-1.2305,-1.2305,-1.2305,-1.2305,-1.2305,-1.2305,-1.2305,-1.2305,-1.2305,-1.2305,-1.2305,-1.2305,-1.2305,-1.2305,-1.2305,-1.2305,-1.2305,-1.2305,-1.2305,-1.2305,-1.2305,-1.2305,-1.2305,-1.2305,-1.2305,-1.2305,-1.2305,-1.2305,-1.2305,-1.2305,-1.2305,-1.2305,-1.2305,-1.2305,-1.2305,-1.2305,-1.2305,-1.2305,-1.2305,-1.2305,-1.2305,-0.2953,-0.3387,0.0,0.0,0.0,0.0,0.0,0.0,0.0,0.0,0.0,0.0,0.0,0.0,0.0,0.0,0.0,0.0,0.0,0.0,0.0,0.0,0.0,0.0,0.0,0.0,0.0,0.0,0.0,0.0,0.0,0.0,0.0,0.0,0.0,-1.0196,-1.0196,-1.0196,-1.0045,-0.9744,-1.0045,-1.0611,-1.1433,-1.2127,-1.2385,-1.2305,-1.2305,-1.2305,-1.2305,-1.2305,-1.2305,-1.2305,-1.2305,-1.2305,-1.2305,-1.2305,-1.2305,-1.2305,-1.2305,-1.2305,-1.2305,-1.2305,-1.2305,-1.2305,-1.2305,-1.2305,-1.2305,-1.2305,-1.2305,-1.2305,-1.2305,-1.2305,-1.2305,-1.2305,-1.2305,-1.2305,-1.2305,-1.2305,-1.2305,-1.2305,-1.2305,-1.2305,-1.2305,-1.2305,-1.2305,-1.2305,-1.2305,-1.2305,-1.2305,-1.2305,-1.2305,-1.2305,-1.2305,-1.2305,-1.2305,-1.2305,-1.2305,-1.2305,-1.2305,-1.2305,-1.2305,-1.2305,-1.2305,-1.2305,-1.2305,-1.2305,-1.2305,-1.2305,-1.2305,-1.2305,-1.2305,-1.2305,-0.3212,0.0,0.0,0.0,0.0,0.0,0.0,0.0,0.0,0.0,0.0,0.0,0.0,0.0,0.0,0.0,0.0,0.0,0.0,0.0,0.0,0.0,0.0,0.0,0.0,0.0,0.0,0.0,0.0,0.0,0.0,0.0,0.0,0.0,-0.9296,-0.9296,-0.9296,-0.9296,-0.9107,-0.8694,-0.9107,-0.9405,-0.9626,-1.0645,-1.1099,-1.1099,-1.1099,-1.1099,-1.1136,-1.1545,-1.1694,-1.1731,-1.215,-1.2077,-1.1731,-1.215,-1.204,-1.1768,-1.215,-1.2305,-1.2305,-1.2305,-1.2305,-1.2305,-1.2305,-1.2305,-1.2305,-1.2305,-1.2305,-1.2305,-1.2305,-1.2305,-1.2305,-1.2305,-1.2305,-1.2305,-1.2305,-1.2305,-1.2305,-1.2305,-1.2305,-1.2305,-1.2305,-1.2305,-1.2305,-1.2305,-1.2305,-1.2305,-1.2305,-1.2305,-1.2305,-1.2305,-1.2305,-1.2305,-1.2305,-1.2305,-1.2305,-1.2305,-1.2305,-1.2305,-1.2305,-1.2305,-1.2305,-1.2305,-1.2305,-1.2305,-1.2305,-1.2305,-1.2305,-1.2305,-1.2305,-1.2238,0.0,0.0,0.0,0.0,0.0,0.0,0.0,0.0,0.0,0.0,0.0,0.0,0.0,0.0,0.0,0.0,0.0,0.0,0.0,0.0,0.0,0.0,0.0,0.0,0.0,0.0,0.0,0.0,0.0,0.0,0.0,0.0,0.0,0.0,-0.9002,-0.9011,-0.9031,-0.9031,-0.858,0.0,-0.8561,-0.8519,-0.7706,-0.8803,-0.9296,-0.9296,-0.9296,-0.9296,-0.9372,-1.0303,-1.0677,-1.0746,-1.1663,-1.1471,-1.0789,-1.1694,-1.1434,-1.0789,-1.17,-1.204,-1.204,-1.204,-1.204,-1.204,-1.204,-1.204,-1.204,-1.204,-1.204,-1.204,-1.204,-1.2077,-1.215,-1.215,-1.2224,-1.2305,-1.2305,-1.2305,-1.2305,-1.2305,-1.2305,-1.2305,-1.2305,-1.2305,-1.2305,-1.2305,-1.2305,-1.2305,-1.2305,-1.2305,-1.2305,-1.2305,-1.2305,-1.2305,-1.2305,-1.2305,-1.2305,-1.2305,-1.2305,-1.2305,-1.2305,-1.2305,-1.2305,-1.2305,-1.2305,-1.2285,-1.2265,-1.2285,-1.2271,-1.2225,-1.2251,-1.2104,0.0,0.0,0.0,0.0,0.0,0.0,0.0,0.0,0.0,0.0,0.0,0.0,0.0,0.0,0.0,0.0,0.0,0.0,0.0,0.0,0.0,0.0,0.0,0.0,0.0,0.0,0.0,0.0,0.0,0.0,0.0,0.0,0.0,-0.6705,-0.6708,-0.6772,-0.6945,-0.6949,-0.6834,0.0,-0.6696,-0.6666,-0.6679,-0.8466,-0.9296,-0.9296,-0.9296,-0.9296,-0.9334,-0.9523,-0.9631,-0.9636,-0.9863,-0.982,-0.9636,-0.9863,-0.982,-0.9669,-0.9863,-0.9938,-0.9938,-0.9938,-0.9938,-0.9938,-0.9938,-0.9938,-0.9938,-0.9938,-0.9938,-0.9938,-0.9938,-1.0533,-1.1124,-1.1124,-1.1731,-1.2305,-1.2305,-1.2305,-1.2305,-1.2305,-1.2305,-1.2305,-1.2305,-1.2305,-1.2305,-1.2305,-1.2305,-1.2305,-1.2305,-1.2305,-1.2305,-1.2305,-1.2305,-1.2305,-1.2305,-1.2305,-1.2305,-1.2305,-1.2305,-1.2305,-1.2305,-1.2305,-1.2305,-1.2305,-1.2305,-1.2191,-1.2,-1.2191,-1.2064,-1.1582,-1.185,-1.1804,0.0,0.0,0.0,0.0,0.0,0.0,0.0,0.0,0.0,0.0,0.0,0.0,0.0,0.0,0.0,0.0,0.0,0.0,0.0,0.0,0.0,0.0,0.0,0.0,0.0,0.0,0.0,0.0,0.0,0.0,0.0,0.0,0.0,-0.5918,-0.5922,-0.5959,-0.6078,-0.6078,-0.6078,-0.6078,-0.5959,-0.5962,-0.6119,-0.7323,-0.7859,-0.7859,-0.7859,-0.7859,-0.7897,-0.8389,-0.858,-0.8618,-0.9107,-0.8993,-0.8656,-0.9107,-0.8993,-0.8651,-0.9145,-0.9296,-0.9296,-0.9296,-0.9296,-0.9296,-0.9296,-0.9296,-0.941,-0.9895,-1.0002,-1.0121,-1.0608,-1.1136,-1.1502,-1.1502,-1.1922,-1.2305,-1.2305,-1.2305,-1.2305,-1.2305,-1.2305,-1.2305,-1.2305,-1.2305,-1.2305,-1.2305,-1.2305,-1.2305,-1.2305,-1.2305,-1.2305,-1.2305,-1.2305,-1.2305,-1.2305,-1.1848,-1.1583,-1.1583,-1.1136,-1.0875,-1.0875,-1.0875,-1.1329,-1.2268,-1.2305,-1.2158,-1.1906,-1.206,-1.1864,-1.1395,-1.1583,-1.1496,0.0,0.0,0.0,0.0,0.0,0.0,0.0,0.0,0.0,0.0,0.0,0.0,0.0,0.0,0.0,0.0,0.0,0.0,0.0,0.0,0.0,0.0,0.0,0.0,0.0,0.0,0.0,0.0,0.0,0.0,0.0,0.0,-0.5739,-0.5766,-0.5766,-0.5776,-0.58,-0.58,-0.58,-0.58,-0.58,-0.5789,-0.5776,-0.6091,-0.6221,-0.6221,-0.6221,-0.6221,-0.6294,-0.7121,-0.7458,-0.7538,-0.8397,-0.8221,-0.7588,-0.8452,-0.8237,-0.7668,-0.8504,-0.877,-0.877,-0.877,-0.877,-0.877,-0.877,-0.877,-0.8993,-1.0002,-1.0297,-1.0484,-1.1316,-1.1663,-1.1737,-1.1545,-1.1663,-1.1811,-1.1996,-1.2033,-1.2033,-1.2033,-1.2033,-1.2033,-1.2033,-1.1885,-1.1774,-1.1774,-1.1774,-1.1774,-1.1774,-1.1774,-1.1774,-1.1774,-1.1774,-1.1774,-1.1774,-1.1019,-1.0527,-1.0527,-0.9744,-0.9296,-0.9296,-0.9296,-1.0067,-1.1704,-1.1741,-1.1599,-1.1323,-1.1359,-1.1185,-1.0823,-1.0874,-1.0813,0.0,0.0,0.0,0.0,0.0,0.0,0.0,0.0,0.0,0.0,0.0,0.0,0.0,0.0,0.0,0.0,0.0,0.0,0.0,0.0,0.0,0.0,0.0,0.0,0.0,0.0,0.0,0.0,0.0,0.0,0.0,-0.5453,-0.5515,-0.5613,-0.5616,-0.5677,-0.58,-0.58,-0.58,-0.58,-0.58,-0.5735,-0.5623,-0.5786,-0.5864,-0.5864,-0.5864,-0.5864,-0.5861,-0.6006,-0.6075,-0.6092,-0.6337,-0.6357,-0.6262,-0.659,-0.6606,-0.6528,-0.6644,-0.6718,-0.6718,-0.6718,-0.6718,-0.6718,-0.6718,-0.6718,-0.6911,-0.7931,-0.8199,-0.8232,-0.8347,-0.9031,-0.9485,-0.8613,-0.9069,-0.9933,-1.0826,-1.1013,-1.1013,-1.1013,-1.1013,-1.1013,-1.1013,-1.0271,-0.9712,-0.9712,-0.9712,-0.9712,-0.9712,-0.9712,-0.9712,-0.9712,-0.9712,-0.9712,-0.9712,-0.9599,-0.9485,-0.9485,-0.9372,-0.9296,-0.9296,-0.9296,-0.9355,-0.952,-0.9515,-0.9362,-0.9057,-0.9157,-0.8962,-0.8445,-0.868,-0.9053,0.0,0.0,0.0,0.0,0.0,0.0,0.0,0.0,0.0,0.0,0.0,0.0,0.0,0.0,0.0,0.0,0.0,0.0,0.0,0.0,0.0,0.0,0.0,0.0,0.0,0.0,0.0,0.0,0.0,0.0,-0.5395,-0.5395,-0.5426,-0.5494,-0.5494,-0.5525,-0.559,-0.559,-0.559,-0.559,-0.559,-0.5556,-0.5498,-0.5562,-0.5644,-0.58,-0.58,-0.58,-0.58,-0.58,-0.58,-0.581,-0.5874,-0.5919,-0.6,-0.6105,-0.6186,-0.63,-0.63,-0.63,-0.63,-0.63,-0.63,-0.63,-0.63,-0.63,-0.6528,-0.7518,-0.7783,-0.7936,-0.8504,-0.8955,-0.9183,-0.8732,-0.8998,-0.9258,-0.9135,-0.955,-0.997,-0.997,-0.997,-0.997,-0.997,-0.9593,-0.9296,-0.9296,-0.9296,-0.9296,-0.9296,-0.9296,-0.9296,-0.9296,-0.9296,-0.9296,-0.9296,-0.877,-0.8466,-0.8466,-0.7936,-0.7629,-0.7629,-0.7629,-0.7592,-0.7547,-0.8545,-0.8893,-0.8506,-0.8535,-0.864,-0.8716,-0.8853,-0.9309,0.0,0.0,0.0,0.0,0.0,0.0,0.0,0.0,0.0,0.0,0.0,0.0,0.0,0.0,0.0,0.0,0.0,0.0,0.0,0.0,0.0,0.0,0.0,0.0,0.0,0.0,0.0,0.0,0.0,0.0,-0.5395,-0.5395,-0.5395,-0.5395,-0.5395,-0.5395,-0.5395,-0.5395,-0.5395,-0.5395,-0.5395,-0.5395,-0.5395,-0.5395,-0.5515,-0.5688,-0.5688,-0.5688,-0.5688,-0.5688,-0.5688,-0.5694,-0.5732,-0.5817,-0.5885,-0.5922,-0.6067,-0.6242,-0.6242,-0.6265,-0.63,-0.63,-0.63,-0.63,-0.63,-0.63,-0.6528,-0.7518,-0.7783,-0.797,-0.8727,-0.8917,-0.8846,-0.858,-0.8542,-0.8389,-0.7897,-0.8389,-0.8917,-0.8917,-0.8917,-0.8917,-0.8917,-0.8694,-0.8542,-0.8542,-0.8542,-0.8542,-0.8542,-0.8542,-0.8542,-0.8542,-0.8542,-0.8542,-0.8542,-0.7859,-0.7403,-0.7403,-0.6718,-0.63,-0.63,-0.63,-0.6282,-0.6242,-0.7557,-0.8106,-0.7722,-0.7885,-0.819,-0.8646,-0.8877,-0.9428,0.0,0.0,0.0,0.0,0.0,0.0,0.0,0.0,0.0,0.0,0.0,0.0,0.0,0.0,0.0,0.0,0.0,0.0,0.0,0.0,0.0,0.0,0.0,0.0,0.0,0.0,0.0,0.0,0.0,0.0,-0.5395,-0.5395,-0.5395,-0.5395,-0.5395,-0.5395,-0.5395,-0.5395,-0.5395,-0.5395,-0.5395,-0.5395,-0.5395,-0.5395,-0.5402,-0.5419,-0.5419,-0.5419,-0.5419,-0.5419,-0.5419,-0.5433,-0.5545,-0.5606,-0.563,-0.5766,-0.5911,-0.6003,-0.6003,-0.6139,-0.63,-0.63,-0.63,-0.63,-0.63,-0.63,-0.6528,-0.7518,-0.7783,-0.7821,-0.7859,-0.7897,-0.7629,-0.6679,-0.6451,-0.6718,-0.7591,-0.7859,-0.7897,-0.7897,-0.7897,-0.7897,-0.7897,-0.7099,-0.6451,-0.6451,-0.6451,-0.6451,-0.6451,-0.6451,-0.6451,-0.6451,-0.6451,-0.6451,-0.6451,-0.6412,-0.6377,-0.6377,-0.6338,-0.63,-0.63,-0.63,-0.6193,-0.6006,-0.5997,-0.5946,-0.5929,-0.6507,-0.6793,-0.685,-0.7697,-0.8549,0.0,0.0,0.0,0.0,0.0,0.0,0.0,0.0,0.0,0.0,0.0,0.0,0.0,0.0,0.0,0.0,0.0,0.0,0.0,0.0,0.0,0.0,0.0,0.0,0.0,0.0,0.0,0.0,0.0,0.0,-0.5077,-0.5077,-0.5077,-0.5077,-0.5165,-0.526,-0.5392,-0.5395,-0.5395,-0.5395,-0.5395,-0.5395,-0.5395,-0.5395,-0.5395,-0.5395,-0.5395,-0.5395,-0.5395,-0.5395,-0.5395,-0.5399,-0.5453,-0.5539,-0.5596,-0.5647,-0.5755,-0.5884,-0.5884,-0.5918,-0.5983,-0.6081,-0.6112,-0.6132,-0.6269,-0.63,-0.6377,-0.6718,-0.6834,-0.6834,-0.6834,-0.6834,-0.6756,-0.6377,-0.63,-0.6412,-0.6756,-0.6834,-0.6834,-0.6834,-0.6834,-0.6834,-0.6834,-0.6528,-0.63,-0.63,-0.63,-0.63,-0.63,-0.63,-0.63,-0.63,-0.63,-0.63,-0.63,-0.63,-0.63,-0.63,-0.63,-0.63,-0.63,-0.63,-0.6186,-0.5996,-0.5878,-0.5755,-0.5664,-0.5791,-0.6141,-0.6719,-0.7013,-0.7929,0.0,0.0,0.0,0.0,0.0,0.0,0.0,0.0,0.0,0.0,0.0,0.0,0.0,0.0,0.0,0.0,0.0,0.0,0.0,0.0,0.0,0.0,0.0,0.0,0.0,0.0,0.0,0.0,0.0,0.0,-0.4887,-0.4887,-0.4887,-0.4887,-0.4978,-0.5111,-0.5245,-0.5245,-0.5245,-0.5245,-0.5245,-0.5245,-0.5248,-0.5296,-0.5284,-0.5287,-0.5371,-0.5395,-0.5395,-0.5395,-0.5395,-0.5395,-0.5395,-0.5457,-0.5545,-0.5545,-0.5606,-0.5732,-0.5732,-0.5762,-0.582,-0.5922,-0.5915,-0.5973,-0.6074,-0.6146,-0.6146,-0.6146,-0.6184,-0.6183,-0.6183,-0.6259,-0.63,-0.63,-0.63,-0.63,-0.63,-0.63,-0.63,-0.63,-0.63,-0.63,-0.63,-0.63,-0.63,-0.63,-0.63,-0.63,-0.63,-0.63,-0.63,-0.63,-0.63,-0.63,-0.63,-0.63,-0.63,-0.63,-0.63,-0.63,-0.63,-0.6248,-0.6135,-0.5993,-0.5833,-0.5684,-0.5589,-0.5765,-0.6137,-0.6719,-0.7013,-0.7767,0.0,0.0,0.0,0.0,0.0,0.0,0.0,0.0,0.0,0.0,0.0,0.0,0.0,0.0,0.0,0.0,0.0,0.0,0.0,0.0,0.0,0.0,0.0,0.0,0.0,0.0,0.0,0.0,0.0,-0.4874,-0.4874,-0.4874,-0.4877,-0.4881,-0.4881,-0.4884,-0.4887,-0.4887,-0.4887,-0.4887,-0.4887,-0.4887,-0.4894,-0.5029,-0.5096,-0.5106,-0.532,-0.5392,-0.5395,-0.5395,-0.5395,-0.5395,-0.5395,-0.5395,-0.5395,-0.5395,-0.5491,-0.5583,-0.5583,-0.5674,-0.5789,-0.5793,-0.5793,-0.5796,-0.58,-0.58,-0.58,-0.58,-0.5908,-0.5986,-0.5986,-0.6135,-0.6286,-0.6286,-0.6289,-0.6293,-0.6293,-0.6296,-0.63,-0.63,-0.63,-0.63,-0.63,-0.63,-0.63,-0.63,-0.63,-0.63,-0.63,-0.63,-0.63,-0.63,-0.63,-0.63,-0.63,-0.63,-0.63,-0.63,-0.63,-0.6296,-0.6293,-0.6108,-0.599,-0.5979,-0.5735,-0.5589,-0.5583,-0.6319,-0.6654,-0.6687,-0.7567,-0.7962,-0.1822,0.0,0.0,0.0,0.0,0.0,0.0,0.0,0.0,0.0,0.0,0.0,0.0,0.0,0.0,0.0,0.0,0.0,0.0,0.0,0.0,0.0,0.0,0.0,0.0,0.0,0.0,0.0,-0.4617,-0.4617,-0.4617,-0.4617,-0.4668,-0.4752,-0.4755,-0.4806,-0.4887,-0.4887,-0.4887,-0.4887,-0.4887,-0.4887,-0.4891,-0.4928,-0.5002,-0.51,-0.5176,-0.5257,-0.5395,-0.5395,-0.5395,-0.5395,-0.5395,-0.5395,-0.5395,-0.5395,-0.5423,-0.5457,-0.5457,-0.5484,-0.5535,-0.5613,-0.5647,-0.5667,-0.5769,-0.58,-0.58,-0.58,-0.583,-0.5864,-0.5864,-0.5898,-0.5928,-0.5928,-0.6013,-0.6095,-0.6095,-0.6179,-0.63,-0.63,-0.63,-0.63,-0.63,-0.63,-0.63,-0.63,-0.63,-0.63,-0.63,-0.63,-0.63,-0.63,-0.63,-0.63,-0.63,-0.63,-0.63,-0.63,-0.63,-0.6248,-0.6098,-0.6016,-0.5892,-0.5715,-0.5633,-0.5535,-0.5457,-0.5675,-0.5752,-0.5782,-0.6658,-0.7046,0.0,0.0,0.0,0.0,0.0,0.0,0.0,0.0,0.0,0.0,0.0,0.0,0.0,0.0,0.0,0.0,0.0,0.0,0.0,0.0,0.0,0.0,0.0,0.0,0.0,0.0,0.0,0.0,-0.4491,-0.4491,-0.4491,-0.4491,-0.4532,-0.4621,-0.4624,-0.4665,-0.4728,-0.4728,-0.4728,-0.4728,-0.4728,-0.4728,-0.4731,-0.4796,-0.4867,-0.4955,-0.5046,-0.5182,-0.527,-0.5368,-0.5395,-0.5395,-0.5395,-0.5395,-0.5395,-0.5395,-0.5395,-0.5395,-0.5395,-0.5395,-0.5409,-0.5498,-0.5528,-0.5545,-0.5593,-0.562,-0.562,-0.562,-0.5664,-0.5728,-0.5786,-0.58,-0.58,-0.58,-0.5871,-0.5935,-0.5935,-0.6006,-0.6146,-0.6276,-0.63,-0.63,-0.63,-0.63,-0.63,-0.63,-0.63,-0.63,-0.63,-0.63,-0.63,-0.63,-0.63,-0.63,-0.63,-0.63,-0.63,-0.63,-0.63,-0.6193,-0.6,-0.5932,-0.5827,-0.5596,-0.5562,-0.5484,-0.5395,-0.5395,-0.5395,-0.5428,-0.5914,-0.6174,-0.0905,-0.0896,0.0,0.0,0.0,0.0,0.0,-0.2141,0.0,0.0,0.0,0.0,0.0,0.0,0.0,0.0,0.0,0.0,0.0,0.0,0.0,0.0,0.0,0.0,0.0,0.0,-0.4491,-0.4491,-0.4491,-0.4491,-0.4491,-0.4491,-0.4491,-0.4491,-0.4491,-0.4491,-0.4491,-0.4491,-0.4491,-0.4491,-0.4491,-0.4491,-0.4494,-0.4631,-0.4674,-0.4704,-0.4938,-0.5059,-0.5086,-0.5274,-0.5378,-0.5395,-0.5395,-0.5395,-0.5395,-0.5395,-0.5395,-0.5395,-0.5395,-0.5395,-0.5395,-0.5395,-0.5395,-0.5395,-0.5395,-0.5395,-0.5395,-0.5395,-0.5494,-0.5593,-0.5722,-0.5752,-0.5752,-0.5752,-0.5766,-0.5779,-0.5779,-0.5789,-0.5881,-0.6194,-0.6262,-0.6279,-0.6296,-0.63,-0.63,-0.63,-0.63,-0.63,-0.63,-0.63,-0.63,-0.63,-0.63,-0.63,-0.63,-0.6282,-0.6276,-0.6276,-0.6255,-0.6139,-0.5949,-0.585,-0.5708,-0.5566,-0.5463,-0.5395,-0.5395,-0.5395,-0.5395,-0.5395,-0.5395,-0.5395,-0.0932,-0.0828,-0.0713,0.0,0.0,0.0,0.0,-0.089,0.0,0.0,0.0,0.0,0.0,0.0,0.0,0.0,0.0,0.0,0.0,0.0,0.0,0.0,0.0,0.0,0.0,0.0,-0.4491,-0.4491,-0.4491,-0.4491,-0.4491,-0.4491,-0.4491,-0.4491,-0.4491,-0.4491,-0.4491,-0.4491,-0.4491,-0.4491,-0.4491,-0.4491,-0.4491,-0.4522,-0.4604,-0.4694,-0.4752,-0.4847,-0.4941,-0.5086,-0.525,-0.5395,-0.5395,-0.5395,-0.5395,-0.5395,-0.5395,-0.5395,-0.5395,-0.5395,-0.5395,-0.5395,-0.5395,-0.5395,-0.5395,-0.5395,-0.5395,-0.5395,-0.5416,-0.5446,-0.5474,-0.5481,-0.5481,-0.5481,-0.5576,-0.563,-0.563,-0.5722,-0.582,-0.5878,-0.5989,-0.6115,-0.6279,-0.63,-0.63,-0.63,-0.63,-0.63,-0.63,-0.63,-0.63,-0.63,-0.63,-0.63,-0.63,-0.6146,-0.6074,-0.6074,-0.5959,-0.5827,-0.5681,-0.5647,-0.5559,-0.5443,-0.5409,-0.5395,-0.5395,-0.5395,-0.5395,-0.5395,-0.5395,-0.5395,0.0,-0.0412,-0.0321,-0.023,0.0,0.0,0.0,0.0,0.0,0.0,0.0,0.0,0.0,0.0,0.0,0.0,0.0,0.0,0.0,0.0,0.0,0.0,0.0,0.0,0.0,0.0,-0.4491,-0.4491,-0.4491,-0.4491,-0.4491,-0.4491,-0.4491,-0.4491,-0.4491,-0.4491,-0.4491,-0.4491,-0.4491,-0.4491,-0.4491,-0.4491,-0.4491,-0.4491,-0.4532,-0.461,-0.4657,-0.4735,-0.4816,-0.4935,-0.507,-0.5155,-0.5337,-0.5395,-0.5395,-0.5395,-0.5395,-0.5395,-0.5395,-0.5395,-0.5395,-0.5395,-0.5395,-0.5395,-0.5395,-0.5395,-0.5395,-0.5395,-0.5395,-0.5395,-0.5395,-0.5395,-0.5395,-0.5395,-0.5453,-0.5511,-0.5511,-0.5566,-0.5603,-0.5681,-0.5755,-0.5857,-0.6006,-0.6067,-0.6067,-0.6067,-0.6067,-0.6061,-0.6135,-0.6146,-0.6176,-0.6289,-0.6193,-0.6146,-0.6146,-0.6003,-0.5915,-0.5915,-0.5844,-0.5739,-0.5596,-0.5589,-0.5552,-0.5399,-0.5395,-0.5395,-0.5395,-0.5395,-0.5395,-0.5395,-0.5395,-0.5395,0.0,0.0,0.0,0.0,0.0,-0.0097,0.0,0.0,0.0,-0.0975,0.0,0.0,0.0,0.0,0.0,0.0,0.0,0.0,0.0,0.0,0.0,0.0,0.0,0.0,0.0,0.0,-0.4311,-0.4481,-0.4219,-0.4179,-0.4487,-0.4349,-0.4349,-0.4491,-0.4349,-0.4294,-0.4267,-0.4125,-0.407,-0.407,-0.407,-0.407,-0.407,-0.407,-0.4125,-0.4273,-0.439,-0.4528,-0.466,-0.4813,-0.4874,-0.4901,-0.5204,-0.531,-0.531,-0.531,-0.5327,-0.5351,-0.5351,-0.5371,-0.5395,-0.5395,-0.5395,-0.5395,-0.5395,-0.5395,-0.5395,-0.5395,-0.5395,-0.5395,-0.5395,-0.5395,-0.5395,-0.5395,-0.5395,-0.5395,-0.5395,-0.5395,-0.5433,-0.5556,-0.5545,-0.5599,-0.5772,-0.58,-0.58,-0.58,-0.58,-0.5844,-0.5932,-0.5949,-0.6034,-0.6197,-0.6061,-0.5949,-0.5949,-0.5847,-0.5762,-0.5762,-0.5732,-0.5667,-0.5552,-0.5545,-0.5521,-0.5395,-0.5395,-0.5395,-0.5395,-0.5395,-0.5395,-0.5395,-0.5395,-0.5395,0.0,0.0,0.0,0.0,0.0,0.0,0.0,0.0,-0.0093,-0.013,0.0,0.0,0.0,0.0,0.0,0.0,0.0,0.0,0.0,0.0,0.0,0.0,0.0,0.0,0.0,0.0,0.0,-0.445,-0.3225,-0.3059,-0.4412,-0.3818,-0.3763,-0.4487,-0.3873,-0.3483,-0.3428,-0.2788,-0.2454,-0.2454,-0.2454,-0.2454,-0.2454,-0.2454,-0.2813,-0.3428,-0.3524,-0.3925,-0.4528,-0.4653,-0.4718,-0.4731,-0.4904,-0.4969,-0.4969,-0.4969,-0.5019,-0.5123,-0.5123,-0.5247,-0.5395,-0.5395,-0.5395,-0.5395,-0.5395,-0.5395,-0.5395,-0.5395,-0.5395,-0.5395,-0.5395,-0.5395,-0.5395,-0.5395,-0.5395,-0.5395,-0.5395,-0.5395,-0.5399,-0.5419,-0.5423,-0.5511,-0.5752,-0.58,-0.58,-0.58,-0.58,-0.581,-0.5823,-0.5827,-0.5833,-0.585,-0.5837,-0.5827,-0.5827,-0.5694,-0.5613,-0.5613,-0.5521,-0.5436,-0.5423,-0.5423,-0.5412,-0.5395,-0.5395,-0.5395,-0.5395,-0.5395,-0.5395,-0.5395,-0.5395,-0.5395,0.0,0.0,0.0,0.0,0.0,0.0,0.0,0.0,0.0,0.0,0.0,0.0,0.0,0.0,0.0,0.0,0.0,0.0,0.0,0.0,0.0,0.0,0.0,0.0,0.0,0.0,0.0,0.0,0.0,-0.2485,-0.312,-0.2839,-0.2812,-0.3146,-0.2871,-0.2704,-0.2676,-0.2343,-0.2202,-0.2202,-0.2202,-0.2202,-0.2202,-0.2202,-0.2369,-0.2676,-0.2704,-0.2871,-0.3181,-0.3227,-0.3246,-0.3251,-0.3323,-0.3985,-0.4887,-0.4887,-0.4924,-0.4988,-0.5069,-0.514,-0.5243,-0.5365,-0.5395,-0.5395,-0.5395,-0.5395,-0.5395,-0.5395,-0.5395,-0.5395,-0.5395,-0.5395,-0.5395,-0.5395,-0.5395,-0.5395,-0.5395,-0.5395,-0.5395,-0.5395,-0.5395,-0.5433,-0.5559,-0.5579,-0.5579,-0.5579,-0.5579,-0.5614,-0.5667,-0.5677,-0.5708,-0.5793,-0.5728,-0.5677,-0.5677,-0.5576,-0.5491,-0.5491,-0.5429,-0.5395,-0.5395,-0.5395,-0.5395,-0.5395,-0.5395,-0.5395,-0.5395,-0.5395,-0.5395,-0.5395,-0.5395,-0.5395,0.0,0.0,0.0,0.0,0.0,0.0,0.0,0.0,0.0,0.0,0.0,0.0,0.0,0.0,0.0,0.0,0.0,0.0,0.0,0.0,0.0,0.0,0.0,0.0,0.0,0.0,0.0,0.0,0.0,0.0,-0.2181,-0.2012,-0.1992,-0.22,-0.2009,-0.1898,-0.1898,-0.1703,-0.1591,-0.1591,-0.1591,-0.1591,-0.1591,-0.1591,-0.1703,-0.1898,-0.1898,-0.2009,-0.2202,-0.2202,-0.2202,-0.2202,-0.2202,-0.3016,-0.4192,-0.4374,-0.4637,-0.487,-0.4941,-0.5032,-0.5123,-0.5344,-0.5395,-0.5395,-0.5395,-0.5395,-0.5395,-0.5395,-0.5395,-0.5395,-0.5395,-0.5395,-0.5395,-0.5395,-0.5395,-0.5329,-0.5057,-0.5024,-0.5024,-0.5024,-0.4821,-0.4722,-0.499,-0.5024,-0.5024,-0.5024,-0.4821,-0.4688,-0.4785,-0.4797,-0.4832,-0.4956,-0.5061,-0.5145,-0.5145,-0.5084,-0.5024,-0.5024,-0.5259,-0.5395,-0.5395,-0.5395,-0.5395,-0.5395,-0.5395,-0.5395,-0.5395,-0.5395,-0.5395,-0.5395,-0.5395,-0.5395,0.0,0.0,0.0,0.0,0.0,0.0,0.0,0.0,0.0,0.0,0.0,0.0,0.0,0.0,0.0,0.0,0.0,0.0,0.0,0.0,0.0,0.0,0.0,0.0,0.0,0.0,0.0,0.0,0.0,0.0,-0.2122,-0.1511,-0.1455,-0.2173,-0.1507,-0.1146,-0.1146,-0.042,-0.0084,-0.0084,-0.0084,-0.0084,-0.0084,-0.0084,-0.0448,-0.1146,-0.1146,-0.1535,-0.2202,-0.2202,-0.2202,-0.2202,-0.2202,-0.2233,-0.2378,-0.3074,-0.394,-0.4701,-0.4704,-0.4891,-0.5123,-0.5344,-0.5395,-0.5395,-0.5395,-0.5395,-0.5395,-0.5395,-0.5395,-0.5395,-0.5395,-0.5395,-0.5395,-0.5395,-0.5395,-0.516,-0.4251,-0.4048,-0.4048,-0.4048,-0.338,-0.3045,-0.3915,-0.4048,-0.4048,-0.4048,-0.3311,-0.2778,-0.2781,-0.2781,-0.2783,-0.2785,-0.3553,-0.4054,-0.4054,-0.4051,-0.4048,-0.4048,-0.4891,-0.5395,-0.5395,-0.5395,-0.5395,-0.5395,-0.5395,-0.5395,-0.5395,-0.5395,-0.5395,-0.5395,-0.5395,-0.5395,0.0,0.0,0.0,0.0,0.0,0.0,0.0,0.0,0.0,0.0,0.0,0.0,0.0,0.0,0.0,0.0,0.0,0.0,0.0,0.0,0.0,0.0,0.0,0.0,0.0,0.0,0.0,0.0,0.0,0.0,0.0,-0.05,-0.0496,-0.0729,-0.0498,-0.0364,-0.0364,-0.0112,0.0,0.0,0.0,0.0,0.0,0.0,-0.014,-0.0364,-0.0364,-0.0504,-0.0755,-0.0755,-0.0755,-0.0755,-0.0755,-0.1034,-0.1563,-0.2286,-0.2779,-0.3128,-0.375,-0.4148,-0.4463,-0.5028,-0.5277,-0.5395,-0.5395,-0.5395,-0.5395,-0.5395,-0.5395,-0.5395,-0.5395,-0.4954,-0.4486,-0.4486,-0.4048,-0.3513,-0.3211,-0.3145,-0.3145,-0.3145,-0.2911,-0.2811,-0.3078,-0.2609,-0.241,-0.3045,-0.2878,-0.2711,-0.2711,-0.2711,-0.2711,-0.2711,-0.2978,-0.3145,-0.3145,-0.3145,-0.3145,-0.3145,-0.3982,-0.4486,-0.4486,-0.5057,-0.5395,-0.5395,-0.5395,-0.5395,-0.5395,-0.5395,-0.5395,-0.5395,-0.5395,-0.5395,0.0,0.0,0.0,0.0,0.0,0.0,0.0,0.0,0.0,0.0,0.0,0.0,0.0,0.0,0.0,0.0,0.0,0.0,0.0,0.0,0.0,0.0,0.0,0.0,0.0,0.0,-0.058,-0.0577,0.0,0.0,0.0,0.0,0.0,0.0,0.0,0.0,0.0,0.0,0.0,0.0,0.0,0.0,0.0,0.0,0.0,0.0,0.0,0.0,0.0,0.0,0.0,0.0,0.0,-0.028,-0.0811,-0.1535,-0.1981,-0.2298,-0.2985,-0.3334,-0.3542,-0.4088,-0.4348,-0.4453,-0.4453,-0.4453,-0.4453,-0.4453,-0.4453,-0.4453,-0.4453,-0.3982,-0.3547,-0.3547,-0.3111,-0.2611,-0.2277,-0.221,-0.221,-0.221,-0.1942,-0.1843,-0.2143,-0.1441,-0.1141,-0.2076,-0.1944,-0.1744,-0.1744,-0.1744,-0.1744,-0.1744,-0.2009,-0.221,-0.221,-0.2509,-0.2544,-0.2209,-0.3045,-0.3547,-0.3547,-0.4115,-0.4453,-0.4453,-0.4453,-0.4453,-0.4453,-0.4755,-0.4891,-0.4921,-0.5259,-0.5395]}]]